     2              OBSERVATION DATA    G                   RINEX VERSION / TYPE
Leica SKI-Pro 3.0 V3 11-9-5 16:00                           PGM / RUN BY / DATE
                                                            OBSERVER / AGENCY
bigref                                                      MARKER NAME
bigref                                                      MARKER NUMBER
0000 LEICA SR530 4.20                                       REC # / TYPE / VERS
LEIAT502                                                    ANT # / TYPE
  -207601.7220 -5240330.4610  3617865.0841                  APPROX POSITION XYZ
        0.3600        0.0000        0.0000                  ANTENNA: DELTA H/E/N
L1PhaOff: 0.0683 L2PhaOff: 0.0712                           COMMENT
     1     1                                                WAVELENGTH FACT L1/2
     4    C1    L1    P2    L2                              # / TYPES OF OBSERV
  2005     4    10    14    17   40.000000                  TIME OF FIRST OBS
  2005     4    10    21    58   10.000000                  TIME OF LAST OBS
    13                                                      LEAP SECONDS
    16                                                      # OF SATELLITES
C1 P1 L1 D1 P2 L2 D2                                        COMMENT
   G 1     0     0     0     0     0     0     0            PRN / # OF OBS
   G 2  2888     0  2888     0  2888  2888     0            PRN / # OF OBS
   G 3     0     0     0     0     0     0     0            PRN / # OF OBS
   G 4  1531     0  1531     0  1531  1531     0            PRN / # OF OBS
   G 5  2811     0  2811     0  2811  2811     0            PRN / # OF OBS
   G 6  3587     0  3587     0  3581  3581     0            PRN / # OF OBS
   G 7     0     0     0     0     0     0     0            PRN / # OF OBS
   G 8     0     0     0     0     0     0     0            PRN / # OF OBS
   G 9  1884     0  1884     0  1858  1858     0            PRN / # OF OBS
   G10  3621     0  3621     0  3609  3609     0            PRN / # OF OBS
   G11     0     0     0     0     0     0     0            PRN / # OF OBS
   G12     0     0     0     0     0     0     0            PRN / # OF OBS
   G13     0     0     0     0     0     0     0            PRN / # OF OBS
   G14   710     0   710     0   695   695     0            PRN / # OF OBS
   G15  1338     0  1338     0  1332  1332     0            PRN / # OF OBS
   G16     0     0     0     0     0     0     0            PRN / # OF OBS
   G17     0     0     0     0     0     0     0            PRN / # OF OBS
   G18  2666     0  2666     0  2647  2647     0            PRN / # OF OBS
   G19     0     0     0     0     0     0     0            PRN / # OF OBS
   G20     0     0     0     0     0     0     0            PRN / # OF OBS
   G21  2649     0  2649     0  2647  2647     0            PRN / # OF OBS
   G22  1262     0  1262     0  1251  1251     0            PRN / # OF OBS
   G23     0     0     0     0     0     0     0            PRN / # OF OBS
   G24   142     0   142     0   125   125     0            PRN / # OF OBS
   G25     0     0     0     0     0     0     0            PRN / # OF OBS
   G26  3190     0  3190     0  3180  3180     0            PRN / # OF OBS
   G27     0     0     0     0     0     0     0            PRN / # OF OBS
   G28    64     0    64     0    40    40     0            PRN / # OF OBS
   G29  3159     0  3159     0  3137  3137     0            PRN / # OF OBS
   G30  2674     0  2674     0  2648  2648     0            PRN / # OF OBS
   G31     0     0     0     0     0     0     0            PRN / # OF OBS
   G32     0     0     0     0     0     0     0            PRN / # OF OBS
                                                            END OF HEADER
  5  4 10 14 17 40.0000000  0  6G 2G 4G 5G 9G24G28
  21087289.464   110814461.78848  21087287.220    86348920.21749
  20218202.370   106247378.78349  20218202.221    82790156.86549
  22423376.107   117835637.01947  22423376.028    91819981.59548
  23290740.769   122393669.01647  23290741.334    95371692.71748
  23135182.420   121576194.37548  23135183.423    94734705.01448
  23740191.228   124755551.21646  23740192.147    97212115.16346
  5  4 10 14 17 45.0000000  0  6G 2G 4G 5G 9G24G28
  21085471.895   110804910.40148  21085469.652    86341477.57949
  20219292.237   106253106.04549  20219292.088    82794619.65949
  22420816.737   117822187.46947  22420816.655    91809501.42648
  23292457.408   122402689.95647  23292457.982    95378722.00948
  23138007.188   121591038.56948  23138008.192    94746271.91048
  23743534.475   124773119.84846  23743535.407    97225804.94046
  5  4 10 14 17 50.0000000  0  6G 2G 4G 5G 9G24G28
  21083655.725   110795366.39048  21083653.475    86334040.69849
  20220383.599   106258841.19149  20220383.452    82799088.60949
  22418258.482   117808743.83947  22418258.392    91799025.88948
  23294175.513   122411718.59247  23294176.092    95385757.29048
  23140831.779   121605881.80048  23140832.796    94757838.03548
  23746878.082   124790690.58746  23746879.014    97239496.42346
  5  4 10 14 17 55.0000000  0  6G 2G 4G 5G 9G24G28
  21081899.653   110786138.20348  21081897.395    86326849.91149
  20221535.145   106264892.60449  20221534.998    82803803.99949
  22415760.044   117795614.52447  22415759.959    91788795.25648
  23295953.759   122421063.37347  23295954.352    95393038.93848
  23143714.873   121621032.49848  23143715.899    94769643.76248
  23750280.768   124808571.75946  23750281.708    97253429.79147
  5  4 10 14 18  0.0000000  0  6G 2G 4G 5G 9G24G28
  21080115.841   110776764.17448  21080113.577    86319545.47049
  20222659.033   106270798.67449  20222658.885    82808406.12849
  22413233.567   117782337.95647  22413233.487    91778449.90148
  23297704.333   122430262.67147  23297704.940    95400207.20948
  23146568.615   121636029.01748  23146569.655    94781329.35648
  23753654.707   124826301.83846  23753655.663    97267245.41746
  5  4 10 14 18  5.0000000  0  6G 2G 4G 5G 9G24G28
  21078275.115   110767091.06348  21078272.842    86312007.97149
  20223726.083   106276406.05949  20223725.936    82812775.52349
  22410649.917   117768760.81247  22410649.842    91767870.30648
  23299398.036   122439163.10747  23299398.651    95407142.60748
  23149363.849   121650718.06948  23149364.890    94792775.37548
  23756970.696   124843727.41246  23756971.658    97280823.76846
  5  4 10 14 18 10.0000000  0  6G 2G 4G 5G 9G24G28
  21076465.474   110757581.39848  21076463.194    86304597.85649
  20224824.335   106282177.38149  20224824.188    82817272.65049
  22408097.084   117755345.64546  22408097.001    91757416.94248
  23301122.896   122448227.27647  23301123.525    95414205.58448
  23152188.611   121665562.19948  23152189.658    94804342.20548
  23760316.760   124861311.12946  23760317.722    97294525.37446
  5  4 10 14 18 15.0000000  0  7G 2G 4G 5G 9G10G24G28
  21074687.007   110748235.49048  21074684.719    86297315.33149
  20225953.820   106288112.83449  20225953.660    82821897.67949
  22405575.174   117742092.92146  22405575.104    91747090.13248
  23302878.956   122457455.46647  23302879.591    95421396.38248
  24529285.346   128902262.76256         0.000           0.00040
  23155042.924   121680561.71848  23155043.980    94816030.14448
  23763692.983   124879053.23846  23763693.951    97308350.37446
  5  4 10 14 18 20.0000000  0  7G 2G 4G 5G 9G10G24G28
  21072910.482   110738899.82048  21072908.193    86290040.78549
  20227085.323   106294058.92249  20227085.163    82826530.99549
  22403054.894   117728848.82346  22403054.830    91736770.06248
  23304637.025   122466694.11547  23304637.667    95428595.31548
  24525646.469   128883142.70746         0.000           0.00040
  23157897.589   121695563.05348  23157898.658    94827719.48048
  23767070.149   124896800.17745  23767071.118    97322179.12046
  5  4 10 14 18 25.0000000  0  7G 2G 4G 5G 9G10G24G28
  21071106.657   110729420.75349  21071104.363    86282654.52749
  20228189.638   106299862.13949  20228189.478    82831052.98349
  22400507.072   117715459.98846  22400507.020    91726337.20648
  23306367.852   122475789.58147  23306368.502    95435682.66948
  24521978.196   128863867.43146  24521981.253   100413415.20657
  23160723.370   121710412.60248  23160724.448    94839290.55448
  23770418.953   124914398.32745  23770419.916    97335891.98246
  5  4 10 14 18 30.0000000  0  7G 2G 4G 5G 9G10G24G28
  21069305.021   110719953.08948  21069302.733    86275277.12449
  20229296.190   106305677.10749  20229296.030    82835584.12849
  22397961.132   117702081.11146  22397961.092    91715912.12048
  23308100.880   122484896.67447  23308101.544    95442779.09448
  24518310.235   128844591.72646  24518313.056   100398395.17647
  23163549.722   121725265.14748  23163550.806    94850863.95548
  23773768.936   124932002.48345  23773769.907    97349609.47846
  5  4 10 14 18 35.0000000  0  7G 2G 4G 5G 9G10G24G28
  21067505.594   110710497.09948  21067503.314    86267908.83649
  20230405.048   106311504.10149  20230404.881    82840124.62649
  22395417.156   117688712.48947  22395417.128    91705495.01248
  23309836.159   122494015.56547  23309836.830    95449884.70648
  24514642.138   128825315.90246  24514644.925   100383375.07547
  23166376.683   121740120.89748  23166377.775    94862439.85948
  23777120.107   124949612.81545  23777121.085    97363331.77146
  5  4 10 14 18 40.0000000  0  7G 2G 4G 5G 9G10G24G28
  21065708.483   110701053.18848  21065706.217    86260549.93049
  20231516.232   106317343.44649  20231516.066    82844674.77249
  22392875.194   117675354.54647  22392875.184    91695086.24148
  23311573.769   122503146.70347  23311574.454    95456999.86248
  24510974.152   128806040.31946  24510976.994   100368355.13547
  23169204.331   121754980.22448  23169205.437    94874018.53748
  23780472.513   124967229.85745  23780473.485    97377059.35346
  5  4 10 14 18 45.0000000  0  7G 2G 4G 5G 9G10G24G28
  21063943.067   110691775.86348  21063940.808    86253320.84249
  20232659.207   106323349.81749  20232659.041    82849355.06249
  22390364.692   117662161.80047  22390364.695    91684806.17448
  23313343.120   122512444.64347  23313343.819    95464244.99048
  24507335.649   128786919.51346  24507338.471   100353455.80547
  23172062.075   121769997.73848  23172063.189    94885720.48948
  23783855.621   124985008.05645  23783856.587    97390912.46546
  5  4 10 14 18 50.0000000  0  7G 2G 4G 5G 9G10G24G28
  21062180.128   110682511.61649  21062177.868    86246101.96249
  20233804.736   106329369.61349  20233804.562    82854045.81449
  22387856.395   117648980.73348  22387856.410    91674535.23048
  23315114.949   122521755.73146  23315115.655    95471500.39548
  24503697.301   128767799.99045  24503700.113   100338557.52547
  23174920.692   121785019.84348  23174921.821    94897426.01648
  23787240.151   125002793.81945  23787241.119    97404771.49446
  5  4 10 14 18 55.0000000  0  7G 2G 4G 5G 9G10G24G28
  21060361.206   110672953.08548  21060358.946    86238653.75049
  20234894.331   106335095.44249  20234894.158    82858507.49749
  22385291.858   117635504.06547  22385291.873    91664033.94348
  23316830.814   122530772.63046  23316831.528    95478526.54448
  24500000.777   128748374.46846  24500003.524   100323420.73547
  23177721.706   121799739.20748  23177722.842    94908895.63748
  23790567.644   125020279.85045  23790568.614    97418396.96846
  5  4 10 14 19  0.0000000  0  7G 2G 4G 5G 9G10G24G28
  21058603.584   110663716.72049  21058601.325    86231456.58449
  20236045.309   106341143.84449  20236045.124    82863220.53949
  22382788.379   117622348.16247  22382788.399    91653782.57448
  23318608.013   122540111.84446  23318608.741    95485803.83948
  24496363.290   128729259.34545  24496365.967   100308525.86247
  23180582.401   121814772.26048  23180583.551    94920609.70048
  23793955.438   125038082.64144  23793956.424    97432269.23446
  5  4 10 14 19  5.0000000  0  7G 2G 4G 5G 9G10G24G28
  21056819.455   110654341.03048  21056817.197    86224150.84749
  20237169.815   106347053.16149  20237169.630    82867825.20249
  22380258.116   117609051.57047  22380258.142    91643421.59448
  23320358.724   122549311.82847  23320359.459    95492972.64348
  24492697.091   128709993.12445  24492699.720   100293513.19146
  23183414.980   121829657.50248  23183416.139    94932208.57848
  23797315.643   125055740.57544  23797316.637    97446028.65246
  5  4 10 14 19 10.0000000  0  7G 2G 4G 5G 9G10G24G28
  21055038.177   110644980.44148  21055035.911    86216856.90349
  20238297.264   106352977.94549  20238297.086    82872441.91649
  22377730.471   117595768.70747  22377730.510    91633071.30148
  23322112.303   122558526.95047  23322113.039    95500153.26248
  24489031.494   128690730.24845  24489034.043   100278503.17047
  23186248.802   121844549.30748  23186249.976    94943812.57348
  23800677.688   125073408.05044  23800678.696    97459795.47046
  5  4 10 14 19 15.0000000  0  7G 2G 4G 5G 9G10G24G28
  21053259.870   110635635.34848  21053257.619    86209575.00149
  20239427.710   106358918.44849  20239427.525    82877070.87549
  22375205.527   117582500.06847  22375205.573    91622732.10548
  23323868.852   122567757.67347  23323869.587    95507346.03448
  24485366.610   128671471.18545  24485369.142   100263496.10646
  23189083.953   121859448.09248  23189085.140    94955422.00548
  23804041.601   125091085.56644  23804042.596    97473570.17446
  5  4 10 14 19 20.0000000  0  7G 2G 4G 5G 9G10G24G28
  21051513.926   110626460.41248  21051511.669    86202425.72449
  20240590.599   106365029.44049  20240590.408    82881832.68549
  22372712.710   117569400.22648  22372712.755    91612524.43448
  23325657.793   122577158.56147  23325658.529    95514671.38648
  24481731.814   128652370.48345  24481734.337   100248612.49946
  23191949.864   121874508.49548  23191951.066    94967157.36648
  23807436.929   125108927.72945  23807437.932    97487473.06946
  5  4 10 14 19 25.0000000  0  7G 2G 4G 5G 9G10G24G28
  21049741.883   110617148.16948  21049739.634    86195169.40949
  20241727.410   106371003.42349  20241727.219    82886487.73949
  22370193.514   117556161.79048  22370193.572    91602208.76748
  23327420.620   122586422.21947  23327421.357    95521889.81148
  24478068.743   128633120.88546  24478071.221   100233612.81147
  23194788.007   121889423.06747  23194789.223    94978779.11248
  23810804.977   125126627.00245  23810805.967    97501264.73445
  5  4 10 14 19 30.0000000  0  7G 2G 4G 5G 9G10G24G28
  21047914.471   110607545.11748  21047912.222    86187686.52749
  20242808.924   106376686.78549  20242808.726    82890916.32849
  22367618.730   117542631.24147  22367618.788    91591665.48948
  23329128.099   122595395.08247  23329128.835    95528881.64948
  24474348.093   128613568.77046  24474350.551   100218377.38247
  23197569.211   121904038.30247  23197570.435    94990167.58648
  23814116.668   125144029.96445  23814117.645    97514825.46945
  5  4 10 14 19 35.0000000  0  7G 2G 4G 5G 9G10G24G28
  21046178.398   110598421.99048  21046176.149    86180577.59849
  20243981.808   106382850.33249  20243981.611    82895719.09649
  22365135.027   117529579.32847  22365135.093    91581495.17348
  23330926.926   122604847.91646  23330927.669    95536247.47848
  24470716.579   128594484.90746  24470718.989   100203506.83447
  23200440.092   121919124.91347  23200441.329    95001923.38648
  23817518.583   125161907.23845  23817519.551    97528755.83146
  5  4 10 14 19 40.0000000  0  7G 2G 4G 5G 9G10G24G28
  21044416.479   110589163.04548  21044414.231    86173362.83849
  20245128.905   106388878.36849  20245128.708    82900416.26449
  22362625.242   117516390.31547  22362625.314    91571218.01648
  23332699.903   122614164.91146  23332700.646    95543507.45948
  24467056.951   128575253.55545  24467059.330   100188521.39347
  23203283.516   121934067.14347  23203284.767    95013566.66448
  23820893.615   125179643.15445  23820894.563    97542576.03445
  5  4 10 14 19 45.0000000  0  7G 2G 4G 5G 9G10G24G28
  21042658.142   110579922.89148  21042655.889    86166162.72049
  20246279.616   106394925.39749  20246279.426    82905128.23449
  22360118.783   117503218.81947  22360118.870    91560954.51648
  23334476.451   122623500.67247  23334477.195    95550782.06848
  24463398.668   128556029.33645  24463401.079   100173541.50047
  23206128.873   121949019.56446  23206130.138    95025217.88948
  23824271.217   125197392.29245  23824272.158    97556406.47045
  5  4 10 14 19 50.0000000  0  7G 2G 4G 5G 9G10G24G28
  21040874.135   110570547.83948  21040871.874    86158857.47949
  20247404.685   106400837.64049  20247404.488    82909735.17549
  22357586.423   117489911.17448  22357586.510    91550584.92448
  23336227.317   122632701.47247  23336228.067    95557951.50548
  24459712.500   128536658.58145  24459714.926   100158447.44346
  23208946.925   121963828.46447  23208948.204    95036757.27448
  23827622.013   125215000.87344  23827622.938    97570127.45045
  5  4 10 14 19 55.0000000  0  7G 2G 4G 5G 9G10G24G28
  21039123.182   110561346.51848  21039120.922    86151687.62049
  20248562.862   106406923.90549  20248562.666    82914477.71849
  22355086.884   117476776.04148  22355086.972    91540349.76548
  23338011.238   122642075.94846  23338012.003    95565256.26648
  24456057.221   128517449.99546  24456059.659   100143479.70547
  23211796.396   121978802.50647  23211797.689    95048425.34348
  23831004.842   125232777.63144  23831005.773    97583979.43845
  5  4 10 14 20  0.0000000  0  7G 2G 4G 5G 9G10G24G28
  21037376.102   110552165.55248  21037373.836    86144533.62749
  20249724.961   106413030.74349  20249724.758    82919236.29149
  22352590.994   117463660.01948  22352591.083    91530129.48748
  23339799.004   122651470.71946  23339799.774    95572576.86148
  24452403.546   128498250.05146  24452406.013   100128518.73047
  23214648.105   121993788.27647  23214649.418    95060102.54048
  23834390.473   125250569.05844  23834391.405    97597842.84845
  5  4 10 14 20  5.0000000  0  7G 2G 4G 5G 9G10G24G28
  21035662.302   110543159.50048  21035660.036    86137515.93449
  20250920.365   106419312.63549  20250920.169    82924131.26949
  22350128.141   117450717.63747  22350128.238    91520044.51548
  23341620.039   122661040.29447  23341620.824    95580033.66248
  24448780.964   128479213.40846  24448783.450   100113685.00347
  23217531.435   122008940.27747  23217532.762    95071909.29048
  23837808.269   125268529.75944  23837809.188    97611838.22145
  5  4 10 14 20 10.0000000  0  7G 2G 4G 5G 9G10G24G28
  21033864.690   110533712.98948  21033862.431    86130155.01249
  20252031.982   106425154.22249  20252031.780    82928683.16149
  22347581.246   117437333.58547  22347581.343    91509615.37848
  23343357.228   122670169.31547  23343358.020    95587147.19048
  24445072.354   128459724.72046  24445074.832   100098499.04847
  23220329.329   122023643.24547  23220330.662    95083366.12948
  23841141.238   125286044.37845  23841142.178    97625485.91345
  5  4 10 14 20 15.0000000  0  7G 2G 4G 5G 9G10G24G28
  21032159.176   110524750.45248  21032156.918    86123171.22149
  20253235.743   106431479.99548  20253235.541    82933612.32849
  22345126.199   117424432.28647  22345126.303    91499562.42948
  23345186.501   122679782.20947  23345187.292    95594637.75248
  24441453.668   128440708.42746  24441456.132   100083681.17347
  23223217.670   122038821.55147  23223219.010    95095193.36948
  23844565.225   125304037.36645  23844566.164    97639506.37945
  5  4 10 14 20 20.0000000  0  7G 2G 4G 5G 9G10G24G28
  21030399.355   110515502.56249  21030397.091    86115965.08749
  20254385.225   106437520.53347  20254385.016    82938319.23849
  22342616.633   117411244.39747  22342616.737    91489286.14548
  23346961.450   122689109.63047  23346962.255    95601905.86548
  24437778.478   128421395.17346  24437780.922   100068631.89547
  23226050.052   122053705.82047  23226051.399    95106791.49948
  23847933.807   125321739.31945  23847934.746    97653300.09645
  5  4 10 14 20 25.0000000  0  7G 2G 4G 5G 9G10G24G28
  21028643.924   110506277.67748  21028641.660    86108776.85949
  20255539.097   106443584.20448  20255538.888    82943044.18349
  22340111.201   117398078.29447  22340111.306    91479026.85348
  23348740.763   122698459.91747  23348741.567    95609191.79048
  24434105.477   128402093.36046  24434107.902   100053591.52247
  23228885.184   122068604.44147  23228886.537    95118400.78948
  23851305.682   125339458.61245  23851306.623    97667107.33645
  5  4 10 14 20 30.0000000  0  7G 2G 4G 5G 9G10G24G28
  21026892.985   110497076.42849  21026890.720    86101607.05149
  20256697.505   106449671.64649  20256697.290    82947787.64449
  22337610.064   117384934.70047  22337610.170    91468785.08948
  23350524.542   122707833.67847  23350525.347    95616496.00648
  24430434.762   128382803.62346  24430437.188   100038560.56247
  23231723.142   122083518.01147  23231724.496    95130021.75648
  23854680.954   125357195.84844  23854681.882    97680928.58545
  5  4 10 14 20 35.0000000  0  7G 2G 4G 5G 9G10G24G28
  21025175.980   110488053.47649  21025173.716    86094576.17649
  20257889.862   106455937.46349  20257889.648    82952670.08749
  22335142.610   117371968.17548  22335142.716    91458681.30948
  23352342.206   122717385.56647  23352343.005    95623939.04248
  24426795.747   128363680.62946  24426798.185   100023659.55047
  23234593.382   122098601.16447  23234594.749    95141774.84048
  23858089.099   125375105.61444  23858090.035    97694884.21345
  5  4 10 14 20 40.0000000  0  7G 2G 4G 5G 9G10G24G28
  21023434.410   110478901.46648  21023432.140    86087444.74449
  20259057.670   106462074.36849  20259057.456    82957452.09649
  22332650.394   117358871.46147  22332650.501    91448476.07348
  23354135.285   122726808.22747  23354136.084    95631281.37048
  24423129.997   128344417.07846  24423132.448   100008649.00047
  23237437.401   122113546.55547  23237438.763    95153420.59948
  23861471.579   125392880.69944  23861472.523    97708734.93445
  5  4 10 14 20 45.0000000  0  7G 2G 4G 5G 9G10G24G28
  21021668.433   110469621.25848  21021666.164    86080213.42949
  20260201.115   106468083.17649  20260200.901    82962134.28249
  22330133.555   117345645.41247  22330133.669    91438170.06748
  23355903.932   122736102.50046  23355904.732    95638523.65748
  24419437.650   128325013.78645  24419440.081    99993529.59147
  23240255.370   122128355.08047  23240256.724    95164959.71248
  23864828.604   125410521.89144  23864829.557    97722481.30145
  5  4 10 14 20 50.0000000  0  7G 2G 4G 5G 9G10G24G28
  21019966.060   110460675.22748  21019963.798    86073242.49749
  20261408.162   106474426.22349  20261407.949    82967076.91049
  22327680.072   117332752.33247  22327680.193    91428123.52548
  23357736.137   122745730.71047  23357736.950    95646026.12948
  24415806.740   128305933.16446  24415809.151    99978661.57247
  23243135.270   122143489.05847  23243136.619    95176752.42848
  23868248.130   125428491.43244  23868249.101    97736483.48245
  5  4 10 14 20 55.0000000  0  7G 2G 4G 5G 9G10G24G28
  21018210.159   110451447.93648  21018207.891    86066052.41349
  20262561.699   106480488.10249  20262561.479    82971800.45649
  22325172.857   117319576.86347  22325172.979    91417856.93348
  23359514.756   122755077.38547  23359515.576    95653309.24348
  24412120.087   128286559.82945  24412122.498    99963565.50047
  23245960.000   122158333.02247  23245961.348    95188319.13148
  23871612.981   125446174.09344  23871613.938    97750262.23945
  5  4 10 14 21  0.0000000  0  7G 2G 4G 5G 9G10G24G28
  21016488.761   110442401.92849  21016486.487    86059003.58049
  20263749.726   106486731.25549  20263749.513    82976665.25549
  22322699.937   117306581.54747  22322700.073    91407730.70448
  23361327.815   122764605.10446  23361328.635    95660733.44548
  24408465.745   128267356.25545  24408468.154    99948601.69847
  23248817.560   122173349.53848  23248818.901    95200020.30248
  23875012.052   125464032.26944         0.000           0.00040
  5  4 10 14 21  5.0000000  0  7G 2G 4G 5G 9G10G24G28
  21014772.685   110433383.88648  21014770.410    86051976.53549
  20264943.109   106493002.46349  20264942.896    82981551.89949
  22320232.113   117293613.07747  22320232.250    91397625.41248
  23363146.156   122774160.55046  23363146.982    95668179.24348
  24404814.548   128248169.14645  24404816.958    99933650.72247
  23251678.772   122188385.30647  23251680.112    95211736.48248
  23878414.637   125481912.56844         0.000           0.00040
  5  4 10 14 21 10.0000000  0  7G 2G 4G 5G 9G10G24G28
  21013032.747   110424240.38848  21013030.479    86044851.71349
  20266112.617   106499148.27149  20266112.405    82986340.84249
  22317740.205   117280518.01448  22317740.349    91387421.46448
  23364940.582   122783590.22846  23364941.421    95675527.01248
  24401137.258   128228845.13846  24401139.675    99918593.11447
  23254514.445   122203286.80947  23254515.780    95223348.03848
  23881792.010   125499661.59744         0.000           0.00040
  5  4 10 14 21 15.0000000  0  7G 2G 4G 5G 9G10G24G28
  21011327.632   110415279.94948  21011325.357    86037869.55649
  20267316.956   106505477.08249  20267316.737    82991272.37849
  22315282.934   117267604.96347  22315283.086    91377359.34948
  23366769.787   122793202.70546  23366770.634    95683017.24048
  24397492.687   128209692.75946  24397495.105    99903669.17947
  23257383.284   122218362.62548  23257384.612    95235095.42348
  23885203.325   125517587.89644         0.000           0.00040
  5  4 10 14 21 20.0000000  0  7G 2G 4G 5G 9G10G24G28
  21009598.894   110406195.39849  21009596.619    86030790.69249
  20268497.684   106511681.85149  20268497.465    82996107.26449
  22312801.824   117254566.67548  22312801.970    91367199.65748
  23368575.316   122802690.76046  23368576.176    95690410.50848
  24393822.289   128190404.81246  24393824.696    99888639.65547
  23260226.822   122233305.51848  23260228.149    95246739.23448
  23888589.875   125535384.27543         0.000           0.00040
  5  4 10 14 21 25.0000000  0  6G 2G 4G 5G 9G10G24
  21007875.976   110397141.46749  21007873.694    86023735.69849
  20269684.251   106517917.26749  20269684.025    83000966.03049
  22310326.342   117241557.92848  22310326.489    91357062.97848
  23370386.607   122812209.09447  23370387.479    95697827.36948
  24390155.579   128171136.02746  24390157.996    99873625.00747
  23263074.531   122248270.23847  23263075.859    95258400.03648
  5  4 10 14 21 30.0000000  0  6G 2G 4G 5G 9G10G24
  21006129.647   110387964.38148  21006127.367    86016584.71549
  20270847.369   106524029.52549  20270847.151    83005728.83449
  22307827.221   117228424.96248  22307827.377    91346829.49848
  23372174.374   122821603.93646  23372175.247    95705148.04248
  24386463.231   128151732.63746  24386465.642    99858505.49847
  23265897.116   122263102.98948  23265898.437    95269958.02148
  5  4 10 14 21 35.0000000  0  6G 2G 4G 5G 9G10G24
  21004418.607   110378972.83748  21004416.327    86009578.32349
  20272045.810   106530327.34749  20272045.586    83010636.22549
  22305363.207   117215476.51248  22305363.363    91336739.80748
  23373997.406   122831183.93946  23373998.286    95712612.95648
  24382804.020   128132503.48045  24382806.426    99843521.77447
  23268753.348   122278112.52848  23268754.670    95281653.75348
  5  4 10 14 21 40.0000000  0  7G 2G 4G 5G 9G10G24G28
  21002713.729   110370013.58549  21002711.451    86002597.07949
  20273250.390   106536657.42649  20273250.167    83015568.75249
  22302905.145   117202559.27848  22302905.302    91326674.42648
  23375826.489   122840795.89847  23375827.361    95720102.80648
  24379148.785   128113295.18345  24379151.206    99828554.28947
  23271614.045   122293145.53148  23271615.367    95293367.76948
  23902153.887   125606667.95154         0.000           0.00040
  5  4 10 14 21 45.0000000  0  7G 2G 4G 5G 9G10G24G28
  21001015.136   110361087.44448  21001012.850    85995641.65549
  20274461.252   106543020.54649  20274461.028    83020527.02549
  22300453.183   117189674.12848  22300453.348    91316634.05248
  23377661.820   122850440.56747  23377662.693    95727618.12148
  24375497.685   128094108.61746  24375500.121    99813603.73847
  23274479.365   122308202.82848  23274480.688    95305100.71748
  23905564.808   125624593.55444         0.000           0.00040
  5  4 10 14 21 50.0000000  0  7G 2G 4G 5G 9G10G24G28
  20999293.643   110352040.94149  20999291.365    85988592.42949
  20275649.189   106549263.17049  20275648.973    83025391.40049
  22297978.117   117176667.54048  22297978.283    91306499.04548
  23379474.152   122859964.46847  23379475.031    95735039.34148
  24371821.514   128074790.30246  24371823.966    99798550.53247
  23277320.077   122323130.86847  23277321.399    95316732.95248
  23908951.742   125642392.89244         0.000           0.00040
  5  4 10 14 21 55.0000000  0  7G 2G 4G 5G 9G10G24G28
  20997578.680   110343028.71948  20997576.394    85981569.91449
  20276843.650   106555540.10549  20276843.428    83030282.52249
  22295509.387   117163694.24648  22295509.548    91296389.98648
  23381292.965   122869522.26847  23381293.851    95742486.94848
  24368149.728   128055494.90446  24368152.185    99783515.17147
  23280165.646   122338084.37447  23280166.962    95328385.02748
  23912344.419   125660220.83943         0.000           0.00040
  5  4 10 14 22  0.0000000  0  7G 2G 4G 5G 9G10G24G28
  20995870.349   110334051.41149  20995868.058    85974574.62349
  20278044.756   106561851.92649  20278044.533    83035200.81849
  22293047.116   117150754.85848  22293047.271    91286307.34448
  23383118.320   122879114.54446  23383119.214    95749961.44248
  24364482.401   128036223.03546  24364484.849    99768498.16747
  23283016.166   122353063.95347  23283017.480    95340057.42248
  23915742.507   125678077.66544         0.000           0.00040
  5  4 10 14 22  5.0000000  0  7G 2G 4G 5G 9G10G24G28
  20994168.869   110325110.04249  20994166.579    85967607.31949
  20279252.682   106568199.58749  20279252.453    83040147.04849
  22290591.484   117137850.39548  22290591.634    91276251.91848
  23384950.431   122888742.29246  23384951.318    95757463.57348
  24360819.760   128016975.75546  24360822.199    99753500.32147
  23285871.850   122368070.61247  23285873.165    95351750.91148
  23919146.447   125695964.49044         0.000           0.00040
  5  4 10 14 22 10.0000000  0  7G 2G 4G 5G 9G10G24G28
  20992503.569   110316358.86349  20992501.273    85960788.23249
  20280496.774   106574737.33749  20280496.552    83045241.39349
  22288171.856   117125135.13147  22288172.000    91266343.92148
  23386818.651   122898559.75947  23386819.552    95765113.52148
  24357191.192   127997907.37646  24357193.621    99738641.83947
  23288762.029   122383258.54447  23288763.345    95363585.65248
  23922585.412   125714035.52944         0.000           0.00040
  5  4 10 14 22 15.0000000  0  7G 2G 4G 5G 9G10G24G28
  20990757.412   110307182.71249  20990755.115    85953637.97749
  20281659.968   106580849.96149  20281659.740    83050004.48549
  22285671.158   117111993.87547  22285671.295    91256103.98548
  23388605.891   122907951.73547  23388606.804    95772431.92748
  24353479.551   127978402.60646  24353481.963    99723443.34447
  23291569.640   122398012.54547  23291570.949    95375082.25948
  23925942.271   125731675.75044         0.000           0.00040
  5  4 10 14 22 20.0000000  0  7G 2G 4G 5G 9G10G24G28
  20989047.646   110298197.86548  20989045.343    85946636.81149
  20282859.535   106587153.76149  20282859.313    83054916.53849
  22283206.678   117099042.94547  22283206.823    91246012.35248
  23390429.444   122917534.53846  23390430.356    95779899.03748
  24349802.177   127959077.90446  24349804.583    99708385.15047
  23294411.947   122412948.93747  23294413.255    95386720.99648
  23929334.309   125749501.31244         0.000           0.00040
  5  4 10 14 22 25.0000000  0  7G 2G 4G 5G 9G10G24G28
  20987374.421   110289405.00848  20987372.119    85939785.23649
  20284095.623   106593649.38249  20284095.402    83059978.05149
  22280778.551   117086283.05247  22280778.689    91236069.58348
  23392289.430   122927308.83646  23392290.357    95787515.36648
  24346159.191   127939933.88646  24346161.585    99693467.74547
  23297289.091   122428068.37047  23297290.401    95398502.36448
  23932761.768   125767512.88744         0.000           0.00040
  5  4 10 14 22 30.0000000  0  7G 2G 4G 5G 9G10G24G28
  20985679.230   110280496.68848  20985676.928    85932843.68049
  20285309.725   106600029.53449  20285309.504    83064949.59749
  22278328.265   117073406.77747  22278328.404    91226036.13548
  23394127.361   122936967.19746  23394128.288    95795041.35648
  24342492.108   127920663.10646  24342494.482    99678451.54047
  23300142.583   122443063.51047  23300143.886    95410186.87748
  23936166.172   125785403.12344         0.000           0.00040
  5  4 10 14 22 35.0000000  0  7G 2G 4G 5G 9G10G24G28
  20983991.533   110271627.81049  20983989.231    85925932.87549
  20286531.296   106606448.93549  20286531.076    83069951.73049
  22275885.322   117060568.99147  22275885.461    91216032.66348
  23395972.678   122946664.46647  23395973.598    95802597.68648
  24338830.345   127901420.50946  24338832.700    99663457.34447
  23303001.873   122458089.11647  23303003.182    95421895.12348
  23939576.944   125803326.78744         0.000           0.00040
  5  4 10 14 22 40.0000000  0  7G 2G 4G 5G 9G10G24G28
  20982282.117   110262644.77048  20982279.816    85918933.10649
  20287731.122   106612754.06049  20287730.901    83074864.81349
  22273420.456   117047616.06448  22273420.597    91205939.48748
  23397796.184   122956246.99147  23397797.105    95810064.57948
  24335144.730   127882052.46946  24335147.058    99648365.38047
  23305837.726   122472991.62747  23305839.028    95433507.47148
  23942964.822   125821130.26744         0.000           0.00040
  5  4 10 14 22 45.0000000  0  7G 2G 4G 5G 9G10G24G28
  20980639.051   110254010.39648  20980636.742    85912205.02549
  20288997.271   106619407.68649  20288997.057    83080049.44749
  22271021.787   117035010.94448  22271021.936    91196117.31048
  23399685.939   122966177.62747  23399686.854    95817802.72248
  24331523.323   127863021.88046  24331525.640    99633536.37047
  23308738.228   122488233.83347  23308739.522    95445384.50648
  23946417.927   125839276.39844         0.000           0.00040
  5  4 10 14 22 50.0000000  0  7G 2G 4G 5G 9G10G24G28
  20978945.160   110245108.97048  20978942.857    85905268.85149
  20290212.556   106625794.02049  20290212.336    83085025.81149
  22268572.113   117022137.82048  22268572.264    91186086.31048
  23401524.759   122975840.62547  23401525.680    95825332.31348
  24327848.936   127843712.94046  24327851.253    99618490.46347
  23311586.214   122503200.00747  23311587.507    95457046.43848
  23949819.077   125857149.49543         0.000           0.00040
  5  4 10 14 22 55.0000000  0  7G 2G 4G 5G 9G10G24G28
  20977288.505   110236403.15848  20977286.204    85898485.09949
  20291465.028   106632375.80649  20291464.808    83090154.47449
  22266159.491   117009459.40848  22266159.642    91176207.02848
  23403400.682   122985698.63746  23403401.602    95833013.87148
  24324209.618   127824588.44446  24324211.927    99603588.31647
  23314469.718   122518352.83047  23314471.012    95468853.81248
  23953256.293   125875212.12644         0.000           0.00040
  5  4 10 14 23  0.0000000  0  7G 2G 4G 5G 9G10G24G28
  20975610.581   110227585.61049  20975608.274    85891614.28849
  20292696.205   106638845.65449  20292695.986    83095195.91049
  22263725.444   116996668.36948  22263725.595    91166239.98248
  23405255.228   122995444.31447  23405256.156    95840607.89648
  24320546.937   127805340.98947  24320549.255    99588590.31547
  23317330.242   122533384.92147  23317331.530    95480567.12448
  23956671.107   125893157.06444         0.000           0.00040
  5  4 10 14 23  5.0000000  0  7G 2G 4G 5G 9G10G24G28
  20973911.544   110218657.10849  20973909.237    85884657.01549
  20293906.213   106645204.28949  20293905.994    83100150.69349
  22261270.094   116983765.45248  22261270.254    91156185.77048
  23407088.560   123005078.41247  23407089.495    95848114.95648
  24316861.017   127785971.34746  24316863.342    99573497.08947
  23320167.938   122548297.05347  23320169.225    95492186.95048
  23960063.654   125910984.95444         0.000           0.00040
  5  4 10 14 23 10.0000000  0  7G 2G 4G 5G 9G10G24G28
  20972220.784   110209772.10748  20972218.477    85877733.63949
  20295124.448   106651606.19049  20295124.230    83105139.19549
  22258822.872   116970905.17948  22258823.026    91146164.78048
  23408930.033   123014755.32247  23408930.974    95855655.38148
  24313181.206   127766633.99947  24313183.533    99558429.07147
  23323012.172   122563243.60647  23323013.452    95503833.61548
  23963463.382   125928850.27343         0.000           0.00040
  5  4 10 14 23 15.0000000  0  6G 2G 4G 5G 9G10G24
  20970567.748   110201085.31349  20970565.435    85870964.70849
  20296380.378   106658206.11649  20296380.166    83110281.98349
  22256413.195   116958242.24448  22256413.351    91136297.56448
  23410809.086   123024629.78546  23410810.035    95863349.75748
  24309537.001   127747483.66347  24309539.323    99543506.76547
  23325892.424   122578379.37047  23325893.705    95515627.70548
  5  4 10 14 23 20.0000000  0  6G 2G 4G 5G 9G10G24
  20968835.335   110191981.42149  20968833.023    85863870.76749
  20297556.881   106664388.65049  20297556.656    83115099.54449
  22253923.992   116945161.35948  22253924.141    91126104.66748
  23412608.629   123034086.47847  23412609.583    95870718.60748
  24305811.309   127727905.05447  24305813.620    99528250.72948
  23328691.578   122593089.02047  23328692.857    95527089.76748
  5  4 10 14 23 25.0000000  0  6G 2G 4G 5G 9G10G24
  20967199.418   110183384.65048  20967197.099    85857171.99649
  20298829.842   106671078.10249  20298829.624    83120312.10249
  22251531.115   116932586.74248  22251531.266    91116306.27448
  23414504.547   123044049.62447  23414505.501    95878482.10548
  24302180.008   127708822.40547  24302182.309    99513381.14948
  23331585.517   122608296.74347  23331586.789    95538939.93548
  5  4 10 14 23 30.0000000  0  6G 2G 4G 5G 9G10G24
  20965513.626   110174525.78548  20965511.314    85850268.98849
  20300052.863   106677505.09149  20300052.639    83125320.14349
  22249088.214   116919749.20548  22249088.373    91106303.00348
  23416350.474   123053749.97147  23416351.435    95886040.80148
  24298496.708   127689466.53647  24298498.999    99498298.67247
  23334427.876   122623233.34647  23334429.148    95550578.82648
  5  4 10 14 23 35.0000000  0  6G 2G 4G 5G 9G10G24
  20963866.016   110165867.50448  20963863.705    85843522.27449
  20301314.017   106684132.46949  20301313.793    83130484.32849
  22246683.323   116907111.41847  22246683.482    91096455.37848
  23418234.446   123063650.21947  23418235.409    95893755.26748
  24294849.447   127670300.14046  24294851.724    99483363.85047
  23337306.662   122638361.47047  23337307.921    95562366.98248
  5  4 10 14 23 40.0000000  0  6G 2G 4G 5G 9G10G24
  20962198.008   110157102.09349  20962195.697    85836692.09049
  20302554.719   106690652.39949  20302554.495    83135564.79749
  22244257.889   116894365.64748  22244258.050    91086523.60948
  23420097.884   123073442.58848  23420098.846    95901385.66948
  24291179.692   127651015.48246  24291181.965    99468336.86047
  23340163.369   122653373.40847  23340164.628    95574064.56148
  5  4 10 14 23 45.0000000  0  6G 2G 4G 5G 9G10G24
  20960509.765   110148230.28549  20960507.454    85829778.98949
  20303775.121   106697065.62849  20303774.891    83140562.11349
  22241812.052   116881512.65848  22241812.216    91076508.29348
  23421940.923   123083127.82447  23421941.892    95908932.60248
  24287487.562   127631613.33346  24287489.843    99453218.33147
  23342998.070   122668269.86447  23342999.329    95585672.19048
  5  4 10 14 23 50.0000000  0  6G 2G 4G 5G 9G10G24
  20958889.333   110139714.89149  20958887.023    85823143.62249
  20305063.295   106703834.99449  20305063.065    83145836.93849
  22239433.877   116869015.26248  22239434.040    91066770.06348
  23423851.660   123093168.68947  23423852.630    95916756.63048
  24283861.126   127612556.40446  24283863.408    99438368.81347
  23345898.860   122683513.58747  23345900.105    95597550.41648
  5  4 10 14 23 55.0000000  0  6G 2G 4G 5G 9G10G24
  20957219.613   110130940.41848  20957217.303    85816306.36749
  20306302.105   106710344.98749  20306301.875    83150909.65949
  22237006.258   116856258.00548  22237006.415    91056829.34448
  23425712.919   123102949.73547  23425713.883    95924378.24148
  24280183.306   127593229.33146  24280185.591    99423308.76547
  23348748.633   122698489.18347  23348749.872    95609219.70248
  5  4 10 14 24  0.0000000  0  6G 2G 4G 5G 9G10G24
  20955588.606   110122369.45249  20955586.296    85809627.69949
  20307579.573   106717058.12349  20307579.343    83156140.67749
  22234617.226   116843703.52748  22234617.392    91047046.62948
  23427612.763   123112933.51346  23427613.731    95932157.80448
  24276542.096   127574094.70746  24276544.388    99408398.68147
  23351635.397   122713659.16847  23351636.637    95621040.45948
  5  4 10 14 24  5.0000000  0  6G 2G 4G 5G 9G10G24
  20953908.499   110113540.42748  20953906.188    85802747.93949
  20308807.857   106723512.77149  20308807.621    83161170.27049
  22232178.923   116830890.22148  22232179.089    91037062.24848
  23429463.356   123122658.44646  23429464.324    95939735.67248
  24272849.654   127554690.97946  24272851.940    99393278.94047
  23354471.322   122728562.02447  23354472.555    95632653.07148
  5  4 10 14 24 10.0000000  0  6G 2G 4G 5G 9G10G24
  20952238.036   110104762.08549  20952235.718    85795907.67449
  20310045.733   106730017.85249  20310045.504    83166239.16349
  22229750.148   116818126.86248  22229750.322    91027116.76349
  23431323.441   123132433.25647  23431324.407    95947352.40048
  24269164.758   127535326.90946  24269167.052    99378190.09647
  23357315.156   122743506.44147  23357316.389    95644298.06448
  5  4 10 14 24 15.0000000  0  6G 2G 4G 5G 9G10G24
  20950635.884   110096342.75248  20950633.566    85789347.16149
  20311351.864   106736881.58749  20311351.628    83171587.52449
  22227389.529   116805721.75648  22227389.704    91017450.45649
  23433251.685   123142566.21647  23433252.645    95955248.21248
  24265546.094   127516310.79646  24265548.402    99363372.35947
  23360225.566   122758800.68447  23360226.798    95656215.64148
  5  4 10 14 24 20.0000000  0  6G 2G 4G 5G 9G10G24
  20948955.657   110087513.06848  20948953.340    85782466.88549
  20312579.840   106743334.61149  20312579.611    83176615.84449
  22224950.693   116792905.55448  22224950.869    91007463.80548
  23435101.685   123152288.00147  23435102.645    95962823.62148
  24261847.229   127496873.28346  24261849.538    99348226.28747
  23363056.149   122773675.46947  23363057.374    95667806.37748
  5  4 10 14 24 25.0000000  0  6G 2G 4G 5G 9G10G24
  20947285.376   110078735.68648  20947283.053    85775627.36849
  20313817.686   106749839.53649  20313817.450    83181684.61949
  22222521.668   116780140.90848  22222521.839    90997517.33448
  23436961.479   123162061.22147  23436962.446    95970439.10348
  24258156.227   127477477.06446  24258158.544    99333112.37847
  23365894.936   122788593.33247  23365896.162    95679430.67648
  5  4 10 14 24 30.0000000  0  6G 2G 4G 5G 9G10G24
  20945625.159   110070011.21749  20945622.829    85768829.09049
  20315065.505   106756396.86949  20315065.270    83186794.23249
  22220102.562   116767428.45648  22220102.742    90987611.53448
  23438831.173   123171886.43848  23438832.154    95978095.08948
  24254473.196   127458122.72846  24254475.513    99318031.10847
  23368742.035   122803554.96947  23368743.260    95691089.09848
  5  4 10 14 24 35.0000000  0  6G 2G 4G 5G 9G10G24
  20944033.759   110061648.28749  20944031.429    85762312.51349
  20316382.069   106763315.42749  20316381.827    83192185.31449
  22217752.130   116755076.85047  22217752.318    90977986.90748
  23440769.512   123182072.32447  23440770.495    95986032.11348
  24250856.887   127439118.92946  24250859.192    99303222.97047
  23371656.208   122818868.95947  23371657.434    95703022.05648
  5  4 10 14 24 40.0000000  0  6G 2G 4G 5G 9G10G24
  20942394.045   110053031.53549  20942391.708    85755598.16049
  20317650.246   106769979.71049  20317650.005    83197378.25849
  22215353.264   116742470.72247  22215353.459    90968163.95348
  23442659.344   123192003.48747  23442660.326    95993770.68748
  24247190.204   127419850.34747  24247192.496    99288208.49747
  23374520.315   122833919.94147  23374521.533    95714750.09648
  5  4 10 14 24 45.0000000  0  6G 2G 4G 5G 9G10G24
  20940735.430   110044315.48749  20940733.093    85748806.44049
  20318899.431   106776544.22249  20318899.189    83202493.45949
  22212935.362   116729764.59348  22212935.558    90958263.08448
  23444530.100   123201834.37847  23444531.082    96001431.12248
  24243502.509   127400471.47247  24243504.789    99273108.10647
  23377363.785   122848862.41547  23377365.009    95726393.56347
  5  4 10 14 24 50.0000000  0  6G 2G 4G 5G 9G10G24
  20939116.614   110035808.54848  20939114.270    85742177.66249
  20320188.346   106783317.48549  20320188.104    83207771.32249
  22210557.135   116717266.93048  22210557.332    90948524.64648
  23446440.505   123211873.52947  23446441.487    96009253.81548
  24239852.538   127381290.77846  24239854.804    99258162.12448
  23380245.290   122864004.79547  23380246.515    95738192.81548
  5  4 10 14 24 55.0000000  0  6G 2G 4G 5G 9G10G24
  20937449.775   110027049.25248  20937447.439    85735352.23649
  20321429.156   106789837.95349  20321428.908    83212852.20549
  22208130.768   116704516.28248  22208130.973    90938589.07848
  23448302.688   123221659.33747  23448303.670    96016879.11248
  24236152.480   127361846.84146  24236154.731    99243011.00648
  23383077.020   122878885.63747  23383078.244    95749788.27348
  5  4 10 14 25  0.0000000  0  6G 2G 4G 5G 9G10G24
  20935822.952   110018500.24148  20935820.610    85728690.67649
  20322709.888   106796568.21749  20322709.641    83218096.56149
  22205744.278   116691975.22448  22205744.477    90928816.83848
  23450204.693   123231654.43847  23450205.667    96024667.50348
  24232490.339   127342602.19346  24232492.577    99228015.19147
  23385947.020   122893967.52447  23385948.237    95761540.38448
  5  4 10 14 25  5.0000000  0  6G 2G 4G 5G 9G10G24
  20934177.609   110009853.90248  20934175.267    85721953.26949
  20323972.009   106803200.70949  20323971.762    83223264.73549
  22203339.155   116679336.21848  22203339.355    90918968.26648
  23452088.008   123241551.26347  23452088.983    96032379.30748
  24228807.599   127323249.32646  24228809.824    99212935.05747
  23388796.745   122908942.90047  23388797.976    95773209.49348
  5  4 10 14 25 10.0000000  0  6G 2G 4G 5G 9G10G24
  20932601.817   110001573.06148  20932599.483    85715500.66749
  20325303.590   106810198.18249  20325303.343    83228717.30749
  22201003.457   116667062.04048  22201003.656    90909403.97048
  23454040.689   123251812.60947  23454041.665    96040375.15048
  24225192.332   127304250.99846  24225194.550    99198131.17647
  23391714.249   122924274.48647  23391715.479    95785156.18247
  5  4 10 14 25 15.0000000  0  6G 2G 4G 5G 9G10G24
  20930949.133   109992888.17848  20930946.798    85708733.23049
  20326558.179   106816791.08849  20326557.931    83233854.63349
  22198590.749   116654383.17748  22198590.956    90899524.33648
  23455916.288   123261668.85647  23455917.272    96048055.32048
  24221498.100   127284837.77346  24221500.291    99183004.02247
  23394553.120   122939192.79347  23394554.364    95796780.81547
  5  4 10 14 25 20.0000000  0  6G 2G 4G 5G 9G10G24
  20929366.185   109984569.73348  20929363.852    85702251.32949
  20327882.405   106823749.94749  20327882.157    83239277.11949
  22196247.664   116642070.15248  22196247.873    90889929.77148
  23457861.421   123271890.59547  23457862.410    96056020.30648
  24217871.535   127265780.07746  24217873.720    99168153.88147
  23397459.950   122954468.25846  23397461.188    95808683.77147
  5  4 10 14 25 25.0000000  0  6G 2G 4G 5G 9G10G24
  20927706.525   109975848.12748  20927704.185    85695455.27049
  20329129.817   106830305.14249  20329129.570    83244385.06549
  22193827.738   116629353.35347  22193827.947    90880020.57848
  23459729.647   123281708.09847  23459730.644    96063670.28748
  24214166.173   127246308.36446  24214168.352    99152981.14447
  23400288.302   122969331.28247  23400289.552    95820265.32547
  5  4 10 14 25 30.0000000  0  6G 2G 4G 5G 9G10G24
  20926116.765   109967493.91648  20926114.432    85688945.49749
  20330447.055   106837227.23949  20330446.808    83249778.90349
  22191477.609   116617003.33948  22191477.817    90870397.19048
  23461667.576   123291891.95247  23461668.567    96071605.75848
  24210528.671   127227193.19346  24210530.842    99138086.21347
  23403184.822   122984552.47547  23403186.073    95832125.97147
  5  4 10 14 25 35.0000000  0  6G 2G 4G 5G 9G10G24
  20924450.460   109958737.45549  20924448.120    85682122.29349
  20331687.636   106843746.53949  20331687.389    83254858.87549
  22189050.827   116604250.48648  22189051.023    90860459.90248
  23463528.757   123301672.49347  23463529.748    96079226.95148
  24206812.546   127207664.91546  24206814.710    99122869.39847
  23406003.006   122999362.09846  23406004.256    95843665.92747
  5  4 10 14 25 40.0000000  0  6G 2G 4G 5G 9G10G24
  20922854.259   109950349.36149  20922851.927    85675586.11649
  20332998.215   106850633.64749  20332997.961    83260225.45049
  22186694.039   116591865.45148  22186694.236    90850809.22248
  23465459.835   123311820.28147  23465460.819    96087134.30248
  24203164.462   127188494.13846  24203166.620    99107931.14247
  23408889.513   123014530.79746  23408890.770    95855485.68947
  5  4 10 14 25 45.0000000  0  6G 2G 4G 5G 9G10G24
  20921240.390   109941868.38849  20921238.051    85668977.56549
  20334291.001   106857427.28249  20334290.747    83265519.19149
  22184319.468   116579386.99548  22184319.671    90841085.74448
  23467373.015   123321874.11047  23467373.998    96094968.45148
  24199496.620   127169219.65346  24199498.777    99092912.09647
  23411756.589   123029597.28646  23411757.846    95867225.79147
  5  4 10 14 25 50.0000000  0  6G 2G 4G 5G 9G10G24
  20919638.229   109933448.97549  20919635.891    85662416.98749
  20335595.412   106864281.97749  20335595.152    83270860.51049
  22181956.503   116566969.53047  22181956.706    90831409.79848
  23469297.695   123331988.37247  23469298.671    96102849.69548
  24195838.470   127149995.94747  24195840.627    99077932.58348
  23414633.589   123044716.02846  23414634.854    95879006.62747
  5  4 10 14 25 55.0000000  0  6G 2G 4G 5G 9G10G24
  20918047.935   109925091.89548  20918045.590    85655904.97049
  20336911.579   106871198.45049  20336911.325    83276249.95849
  22179605.291   116554613.82747  22179605.481    90821781.98948
  23471234.042   123342163.85047  23471235.018    96110778.61848
  24192190.100   127130823.75747  24192192.244    99062993.25148
  23417520.678   123059887.77846  23417521.942    95890828.76947
  5  4 10 14 26  0.0000000  0  6G 2G 4G 5G 9G10G24
  20916440.185   109916643.17348  20916437.839    85649321.56149
  20338210.184   106878022.66449  20338209.931    83281567.53149
  22177236.531   116542165.94247  22177236.721    90812082.34448
  23473152.717   123352246.52747  23473153.686    96118635.24247
  24188522.260   127111549.16047  24188524.398    99047974.09548
  23420388.571   123074958.59646  23420389.842    95902572.24847
  5  4 10 14 26  5.0000000  0  6G 2G 4G 5G 9G10G24
  20914844.432   109908257.40349  20914842.086    85642787.18949
  20339520.661   106884909.20549  20339520.400    83286933.65549
  22174879.666   116529780.50148  22174879.863    90802431.34348
  23475083.169   123362391.02348  23475084.137    96126540.02448
  24184864.350   127092326.67947  24184866.482    99032995.54448
  23423266.643   123090082.96846  23423267.916    95914357.47947
  5  4 10 14 26 10.0000000  0  6G 2G 4G 5G 9G10G24
  20913231.444   109899781.09748  20913229.092    85636182.28149
  20340813.780   106891704.59449  20340813.520    83292228.76549
  22172505.458   116517303.98348  22172505.656    90792709.39448
  23476996.166   123372443.79647  23476997.134    96134373.33348
  24181187.156   127073002.89647  24181189.282    99017938.05647
  23426125.725   123105107.45046  23426127.011    95926064.84047
  5  4 10 14 26 15.0000000  0  6G 2G 4G 5G 9G10G24
  20911630.660   109891368.94749  20911628.315    85629627.36349
  20342118.987   106898563.50149  20342118.721    83297573.37549
  22170143.359   116504891.13248  22170143.558    90783037.05748
  23478921.119   123382559.49547  23478922.080    96142255.69548
  24177520.117   127053732.47647  24177522.237    99002922.14747
  23428995.237   123120186.77646  23428996.531    95937814.94847
  5  4 10 14 26 20.0000000  0  6G 2G 4G 5G 9G10G24
  20910012.861   109882867.35548  20910010.509    85623002.75049
  20343407.071   106905332.36849  20343406.812    83302847.79749
  22167764.161   116492388.36447  22167764.375    90773294.63748
  23480828.827   123392584.60147  23480829.782    96150067.47848
  24173834.019   127034361.93347  24173836.119    98987828.23847
  23431845.935   123135167.26646  23431847.229    95949488.05147
  5  4 10 14 26 25.0000000  0  6G 2G 4G 5G 9G10G24
  20908436.727   109874584.74848  20908434.376    85616548.78149
  20344736.683   106912319.55649  20344736.416    83308292.36849
  22165426.537   116480104.06448  22165426.750    90763722.45748
  23482777.982   123402827.44748  23482778.937    96158048.91248
  24170187.531   127015199.56746  24170189.623    98972896.54147
  23434736.529   123150357.31546  23434737.837    95961324.42147
  5  4 10 14 26 30.0000000  0  6G 2G 4G 5G 9G10G24
  20906843.790   109866213.81049  20906841.446    85610025.96949
  20346049.371   106919217.74449  20346049.104    83313667.57249
  22163071.999   116467730.94847  22163072.214    90754081.08748
  23484710.094   123412980.69947  23484711.056    96165960.52248
  24166522.197   126995938.20246  24166524.283    98957887.70947
  23437608.483   123165449.65946  23437609.791    95973084.71547
  5  4 10 14 26 35.0000000  0  6G 2G 4G 5G 9G10G24
  20905234.107   109857754.83749  20905231.757    85603434.56149
  20347345.180   106926027.23949  20347344.915    83318973.67049
  22160700.631   116455269.35848  22160700.847    90744370.76548
  23486625.228   123423044.70647  23486626.191    96173802.58848
  24162838.083   126976578.11746  24162840.170    98942801.94547
  23440461.958   123180444.58445  23440463.287    95984769.02347
  5  4 10 14 26 40.0000000  0  6G 2G 4G 5G 9G10G24
  20903666.382   109849516.38749  20903664.032    85597014.98849
  20348682.821   106933056.59049  20348682.556    83324451.08749
  22158371.135   116443027.80248  22158371.364    90734831.89148
  23488582.073   123433327.99347  23488583.029    96181815.54248
  24159193.897   126957427.82346  24159195.990    98927879.63747
  23443355.545   123195650.58045  23443356.881    95996617.87047
  5  4 10 14 26 45.0000000  0  6G 2G 4G 5G 9G10G24
  20902082.126   109841191.09748  20902079.769    85590527.75849
  20350003.821   106939998.45949  20350003.549    83329860.33449
  22156025.045   116430699.01548  22156025.274    90725225.04648
  23490522.156   123443523.13547  23490523.107    96189759.80548
  24155531.126   126938180.04846  24155533.212    98912881.42647
  23446230.851   123210760.35145  23446232.195    96008391.70747
  5  4 10 14 26 50.0000000  0  6G 2G 4G 5G 9G10G24
  20900452.109   109832625.30148  20900449.745    85583853.11349
  20351278.909   106946699.08949  20351278.643    83335081.59949
  22153633.105   116418129.28848  22153633.335    90715430.45548
  23492416.223   123453476.49547  23492417.160    96197515.66847
  24151820.586   126918681.06246  24151822.672    98897687.41547
  23449058.569   123225620.10945  23449059.928    96019970.73846
  5  4 10 14 26 55.0000000  0  6G 2G 4G 5G 9G10G24
  20898864.338   109824281.50548  20898861.973    85577351.45549
  20352596.115   106953621.02249  20352595.842    83340475.30849
  22151283.346   116405781.15748  22151283.583    90705808.52148
  23494352.284   123463650.53547  23494353.222    96205443.48548
  24148150.246   126899393.41847  24148152.332    98882658.11047
  23451926.744   123240692.46945  23451928.111    96031715.43746
  5  4 10 14 27  0.0000000  0  6G 2G 4G 5G 9G10G24
  20897289.614   109816006.27348  20897287.243    85570903.23049
  20353926.233   106960610.84149  20353925.961    83345921.92249
  22148946.550   116393501.18248  22148946.782    90696239.71048
  23496301.149   123473891.85647  23496302.093    96213423.72448
  24144490.945   126880163.69446  24144493.037    98867673.90947
  23454806.183   123255823.93045  23454807.564    96043506.15946
  5  4 10 14 27  5.0000000  0  6G 2G 4G 5G 9G10G24
  20895757.350   109807954.20348  20895754.994    85564628.89249
  20355298.680   106967823.09749  20355298.407    83351541.86149
  22146652.141   116381443.94948  22146652.373    90686844.46048
  23498292.234   123484354.98347  23498293.178    96221576.79248
  24140872.079   126861146.48546  24140874.169    98852855.31447
  23457726.278   123271169.10345  23457727.674    96055463.42746
  5  4 10 14 27 10.0000000  0  6G 2G 4G 5G 9G10G24
  20894150.413   109799509.69648  20894148.051    85558048.76449
  20356596.317   106974642.19849  20356596.045    83356855.44049
  22144282.971   116368993.84447  22144283.190    90677143.08248
  23500208.371   123494424.32347  23500209.316    96229423.02448
  24137176.545   126841726.26346  24137178.641    98837722.65047
  23460569.883   123286112.35045  23460571.294    96067107.51446
  5  4 10 14 27 15.0000000  0  6G 2G 4G 5G 9G10G24
  20892586.066   109791289.02648  20892583.704    85551643.05449
  20357936.412   106981684.41049  20357936.140    83362342.87349
  22141956.320   116356767.21448  22141956.541    90667615.84248
  23502166.838   123504716.13447  23502167.776    96237442.62148
  24133521.532   126822519.25546  24133523.606    98822756.20447
  23463454.285   123301269.98345  23463455.710    96078918.65146
  5  4 10 14 27 20.0000000  0  6G 2G 4G 5G 9G10G24
  20890976.527   109782830.84149  20890974.172    85545052.25749
  20359231.152   106988488.28749  20359230.881    83367644.58949
  22139584.393   116344302.71648  22139584.620    90657903.25548
  23504079.858   123514769.08947  23504080.789    96245276.09248
  24129819.340   126803064.16846  24129821.420    98807596.40447
  23466291.667   123316180.68145  23466293.092    96090537.41246
  5  4 10 14 27 25.0000000  0  6G 2G 4G 5G 9G10G24
  20889409.762   109774597.43649  20889407.407    85538636.61849
  20360568.516   106995516.21349  20360568.251    83373120.89649
  22137255.175   116332062.65148  22137255.394    90648365.55748
  23506035.388   123525045.44047  23506036.321    96253283.63548
  24126157.910   126783823.28746  24126159.983    98792603.52347
  23469170.084   123331306.61744  23469171.530    96102323.79245
  5  4 10 14 27 30.0000000  0  6G 2G 4G 5G 9G10G24
  20887856.607   109766435.55049  20887854.252    85532276.70849
  20361919.347   107002614.84649  20361919.075    83378652.29749
  22134939.509   116319893.71648  22134939.729    90638883.26548
  23508004.265   123535391.89547  23508005.197    96261345.79448
  24122508.079   126764643.35747  24122510.145    98777658.14147
  23472060.237   123346494.56844  23472061.683    96114158.58145
  5  4 10 14 27 35.0000000  0  6G 2G 4G 5G 9G10G24
  20886258.528   109758037.55949  20886256.159    85525732.81749
  20363225.093   107009476.55449  20363224.821    83383999.07649
  22132578.831   116307488.33048  22132579.051    90629216.74348
  23509927.943   123545500.79547  23509928.883    96269222.83948
  24118811.290   126745216.72647  24118813.350    98762520.53947
  23474903.714   123361436.94844  23474905.180    96125801.94445
  5  4 10 14 27 40.0000000  0  6G 2G 4G 5G 9G10G24
  20884732.847   109750020.08449  20884730.479    85519485.44349
  20364603.079   107016717.91949  20364602.800    83389641.70049
  22130290.507   116295463.10548  22130290.726    90619846.43848
  23511923.723   123555988.75648  23511924.650    96277395.29748
  24115184.931   126726160.04847  24115186.992    98747671.17947
  23477817.699   123376750.26444  23477819.159    96137734.45145
  5  4 10 14 27 45.0000000  0  6G 2G 4G 5G 9G10G24
  20883162.458   109741767.60249  20883160.083    85513054.93249
  20365936.217   107023723.60849  20365935.945    83395100.67449
  22127957.419   116283202.61348  22127957.632    90610292.80848
  23513874.557   123566240.33048  23513875.483    96285383.50748
  24111511.818   126706857.86847  24111513.880    98732630.55847
  23480685.224   123391819.05544  23480686.705    96149476.32045
  5  4 10 14 27 50.0000000  0  6G 2G 4G 5G 9G10G24
  20881606.009   109733588.43748  20881603.633    85506681.56149
  20367283.135   107030801.71249  20367282.856    83400616.08249
  22125638.213   116271015.07748  22125638.428    90600796.02248
  23515839.037   123576563.68348  23515839.957    96293427.66848
  24107850.686   126687618.48647  24107852.754    98717638.82747
  23483564.897   123406951.58644  23483566.391    96161267.84245
  5  4 10 14 27 55.0000000  0  6G 2G 4G 5G 9G10G24
  20880063.648   109725483.30449  20880061.272    85500365.88149
  20368643.991   107037953.02549  20368643.705    83406188.53349
  22123333.038   116258901.26848  22123333.246    90591356.68548
  23517817.333   123586959.60548  23517818.253    96301528.36748
  24104201.634   126668442.58946  24104203.703    98702696.57247
  23486456.780   123422148.59743  23486458.259    96173109.68445
  5  4 10 14 28  0.0000000  0  5G 2G 4G 5G 9G10
  20878506.136   109717298.52849  20878503.762    85493988.13949
  20369989.522   107045023.83949  20369989.237    83411698.25849
  22121012.652   116246707.52348  22121012.859    90581855.05948
  23519780.180   123597274.40348  23519781.093    96309565.86948
  24100535.425   126649176.56446  24100537.495    98687684.09447
  5  4 10 14 28  5.0000000  0  6G 2G 4G 5G 9G10G24
  20876962.886   109709188.69249  20876960.512    85487668.78849
  20371349.164   107052168.77349  20371348.878    83417265.73049
  22118706.470   116234588.48948  22118706.670    90572411.66548
  23521757.004   123607662.65247  23521757.904    96317660.61048
  24096881.475   126629975.02146  24096883.545    98672721.87447
  23492218.214   123452429.70054         0.000           0.00040
  5  4 10 14 28 10.0000000  0  6G 2G 4G 5G 9G10G24
  20875375.339   109700846.07749  20875372.965    85481168.04749
  20372664.345   107059080.06649  20372664.067    83422651.14649
  22116355.951   116222236.39748  22116356.152    90562786.65248
  23523689.242   123617816.59847  23523690.135    96325572.77248
  24093181.238   126610530.20447  24093183.309    98657570.08647
  23495059.701   123467360.56644         0.000           0.00040
  5  4 10 14 28 15.0000000  0  6G 2G 4G 5G 9G10G24
  20873802.218   109692579.26849  20873799.844    85474726.38149
  20373993.787   107066066.30249  20373993.503    83428094.96449
  22114019.806   116209959.86848  22114020.000    90553220.53148
  23525635.620   123628044.79147  23525636.507    96333542.77748
  24089493.455   126591150.74647  24089495.520    98642469.20847
  23497913.826   123482357.71944         0.000           0.00040
  5  4 10 14 28 20.0000000  0  6G 2G 4G 5G 9G10G24
  20872243.650   109684388.93948  20872241.269    85468344.31049
  20375337.608   107073128.12749  20375337.316    83433597.68749
  22111698.168   116197759.58148  22111698.362    90543713.81348
  23527596.226   123638347.91047  23527597.119    96341571.18948
  24085818.240   126571837.33046  24085820.298    98627419.79147
  23500780.689   123497421.65444         0.000           0.00040
  5  4 10 14 28 25.0000000  0  6G 2G 4G 5G 9G10G24
  20870728.993   109676429.33049  20870726.605    85462142.01349
  20376725.166   107080419.79349  20376724.881    83439279.50349
  22109420.376   116185789.76348  22109420.563    90534386.70348
  23529600.451   123648880.18147  23529601.344    96349778.15448
  24082184.943   126552744.19546  24082187.001    98612542.01447
  23503689.374   123512706.73944         0.000           0.00040
  5  4 10 14 28 30.0000000  0  6G 2G 4G 5G 9G10G24
  20869199.742   109668393.06649  20869197.348    85455879.99149
  20378097.960   107087633.87249  20378097.674    83444900.86149
  22107127.971   116173743.06548  22107128.153    90524999.66648
  23531589.810   123659334.21047  23531590.704    96357924.12448
  24078535.072   126533564.02146  24078537.122    98597596.43347
  23506581.617   123527905.61244         0.000           0.00040
  5  4 10 14 28 35.0000000  0  6G 2G 4G 5G 9G10G24
  20867655.926   109660280.25849  20867653.524    85449558.32249
  20379456.020   107094770.49549  20379455.735    83450461.86049
  22104820.965   116161619.57548  22104821.149    90515552.77748
  23533564.285   123669710.08147  23533565.185    96366009.20048
  24074868.642   126514296.83346  24074870.678    98582583.05247
  23509457.528   123543018.28144         0.000           0.00040
  5  4 10 14 28 40.0000000  0  6G 2G 4G 5G 9G10G24
  20866097.687   109652091.65649  20866095.278    85443177.59549
  20380799.466   107101830.35549  20380799.182    83455963.05149
  22102499.473   116149420.08348  22102499.657    90506046.68648
  23535524.029   123680008.54448  23535524.936    96374033.96148
  24071185.812   126494943.46146  24071187.841    98567502.51147
  23512317.239   123558045.47944         0.000           0.00040
  5  4 10 14 28 45.0000000  0  6G 2G 4G 5G 9G10G24
  20864554.383   109643981.57049  20864551.974    85436858.05549
  20382157.695   107108967.83149  20382157.404    83461524.71349
  22100192.889   116137298.86948  22100193.073    90496601.57848
  23537498.418   123690383.87447  23537499.326    96382118.60347
  24067515.970   126475658.18847  24067517.992    98552475.00047
  23515189.954   123573141.56944         0.000           0.00040
  5  4 10 14 28 50.0000000  0  6G 2G 4G 5G 9G10G24
  20863055.458   109636104.66648  20863053.050    85430720.21349
  20383560.101   107116337.52549  20383559.810    83467267.33349
  22097930.649   116125410.68948  22097930.828    90487338.06548
  23539516.854   123700990.76247  23539517.768    96390383.69147
  24063888.507   126456595.73946  24063890.516    98537621.15447
  23518105.186   123588461.18844         0.000           0.00040
  5  4 10 14 28 55.0000000  0  6G 2G 4G 5G 9G10G24
  20861483.806   109627845.57848  20861481.398    85424284.56149
  20384889.607   107123324.09449  20384889.316    83472711.40449
  22095595.643   116113140.11848  22095595.815    90477776.57548
  23541462.264   123711213.77447  23541463.171    96398349.63647
  24060186.320   126437140.74246  24060188.322    98522461.44647
  23520945.859   123603388.87043         0.000           0.00040
  5  4 10 14 29  0.0000000  0  6G 2G 4G 5G 9G10G24
  20859986.031   109619974.75048  20859983.630    85418151.45049
  20386292.799   107130697.91749  20386292.507    83478457.23849
  22093334.474   116101257.59348  22093334.646    90468517.46848
  23543481.189   123721823.35947  23543482.096    96406616.85847
  24056556.069   126418063.61246  24056558.071    98507596.14047
  23523858.622   123618695.22644         0.000           0.00040
  5  4 10 14 29  5.0000000  0  6G 2G 4G 5G 9G10G24
  20858444.982   109611876.48349  20858442.574    85411841.11449
  20387652.520   107137843.29949  20387652.228    83484025.06749
  22091029.987   116089147.46048  22091030.165    90459081.00348
  23545456.517   123732203.80647  23545457.417    96414705.52948
  24052880.539   126398748.66445  24052882.538    98492545.54447
  23526726.257   123633764.44044         0.000           0.00040
  5  4 10 14 29 10.0000000  0  6G 2G 4G 5G 9G10G24
  20856919.358   109603859.27248  20856916.950    85405593.94049
  20389027.481   107145068.73949  20389027.189    83489655.27349
  22088740.892   116077118.21948  22088741.064    90449707.58048
  23547446.937   123742663.56447  23547447.845    96422855.99648
  24049218.484   126379504.43845  24049220.483    98477550.04147
  23529607.499   123648905.03244         0.000           0.00040
  5  4 10 14 29 15.0000000  0  6G 2G 4G 5G 9G10G24
  20855379.943   109595769.59449  20855377.529    85399290.29949
  20390388.466   107152220.76149  20390388.175    83495228.28049
  22086437.980   116065016.36747  22086438.153    90440277.57448
  23549423.267   123753049.16048  23549424.183    96430948.64748
  24045540.660   126360177.43446  24045542.658    98462490.05647
  23532473.094   123663963.39744         0.000           0.00040
  5  4 10 14 29 20.0000000  0  6G 2G 4G 5G 9G10G24
  20853856.105   109587761.77048  20853853.684    85393050.43849
  20391764.826   107159453.58649  20391764.535    83500864.24849
  22084150.630   116052996.26248  22084150.796    90430911.26148
  23551414.848   123763514.89548  23551415.765    96439103.74748
  24041876.477   126340922.02346  24041878.474    98447485.83547
  23535352.388   123679094.00444         0.000           0.00040
  5  4 10 14 29 25.0000000  0  6G 2G 4G 5G 9G10G24
  20852318.622   109579682.27148  20852316.200    85386754.73349
  20393127.367   107166613.75349  20393127.076    83506443.59449
  22081849.621   116040904.37548  22081849.787    90421489.01548
  23553392.472   123773907.21848  23553393.381    96447201.63148
  24038196.689   126321584.67246  24038198.679    98432417.78247
  23538215.868   123694143.22444  23538219.465    96385077.45055
  5  4 10 14 29 30.0000000  0  6G 2G 4G 5G 9G10G24
  20850796.918   109571685.66349  20850794.496    85380523.60949
  20394505.479   107173855.78249  20394505.188    83512086.73249
  22079564.361   116028895.25648  22079564.528    90412131.26148
  23555385.508   123784380.66548  23555386.417    96455362.75048
  24034530.708   126302319.93346  24034532.702    98417406.31447
  23541094.236   123709265.67744         0.000           0.00040
  5  4 10 14 29 35.0000000  0  5G 2G 4G 5G 9G10
  20849320.365   109563926.32848  20849317.944    85374477.37549
  20395928.547   107181334.02349  20395928.250    83517913.93149
  22077324.249   116017123.32348  22077324.416    90402958.31548
  23557423.366   123795089.58747  23557424.282    96463707.34248
  24030907.926   126283282.18146  24030909.914    98402571.72547
  5  4 10 14 29 40.0000000  0  5G 2G 4G 5G 9G10
  20847801.109   109555942.61148  20847798.689    85368256.30949
  20397308.715   107188586.85549  20397308.417    83523565.48649
  22075041.405   116005126.92648  22075041.564    90393610.48048
  23559418.189   123805572.35648  23559419.099    96471875.71948
  24027240.527   126264009.83946  24027242.515    98387554.30947
  5  4 10 14 29 45.0000000  0  5G 2G 4G 5G 9G10
  20846239.278   109547735.10748  20846236.852    85361860.84749
  20398646.105   107195614.85649  20398645.807    83529041.84349
  22072715.971   115992906.65847  22072716.131    90384088.18748
  23561370.064   123815829.53047  23561370.982    96479868.32148
  24023528.587   126244503.45946  24023530.567    98372354.53547
  5  4 10 14 29 50.0000000  0  5G 2G 4G 5G 9G10
  20844722.831   109539766.12048  20844720.404    85355651.24749
  20400028.695   107202880.35049  20400028.397    83534703.25649
  22070435.906   115980924.86648  22070436.058    90374751.73348
  23563367.008   123826323.44848  23563367.934    96488045.38148
  24019860.096   126225225.44147  24019862.069    98357332.71347
  5  4 10 14 29 55.0000000  0  5G 2G 4G 5G 9G10
  20843251.885   109532036.21949  20843249.460    85349627.94649
  20401456.547   107210383.82549  20401456.248    83540550.13049
  22068201.329   115969182.11748  22068201.482    90365601.54748
  23565409.081   123837054.58548  23565410.007    96496407.30048
  24016235.152   126206176.32647  24016237.125    98342489.26547
  5  4 10 14 30  0.0000000  0  5G 2G 4G 5G 9G10
  20841767.861   109524237.68249  20841765.428    85343551.17849
  20402871.130   107217817.48249  20402870.832    83546342.58349
  22065953.668   115957370.63948  22065953.827    90356397.80748
  23567437.744   123847715.18447  23567438.669    96504714.23947
  24012595.214   126187048.29347  24012597.188    98327584.30047
  5  4 10 14 30  5.0000000  0  5G 2G 4G 5G 9G10
  20840241.556   109516216.86148  20840239.123    85337301.18249
  20404243.222   107225027.83949  20404242.924    83551961.03849
  22063663.735   115945336.90248  22063663.888    90347020.85948
  23569423.739   123858151.69047  23569424.657    96512846.58948
  24008911.018   126167687.83847  24008912.979    98312498.26747
  5  4 10 14 30 10.0000000  0  5G 2G 4G 5G 9G10
  20838731.646   109508282.26248  20838729.213    85331118.38449
  20405631.500   107232323.29249  20405631.195    83557645.80849
  22061390.188   115933389.35948  22061390.339    90337711.08848
  23571425.785   123868672.51547  23571426.704    96521044.63548
  24005241.345   126148403.45247  24005243.314    98297471.44547
  5  4 10 14 30 15.0000000  0  5G 2G 4G 5G 9G10
  20837238.221   109500434.26048  20837235.788    85325003.05949
  20407036.036   107239704.14649  20407035.738    83563397.11249
  22059133.124   115921528.34948  22059133.270    90328468.73548
  23573443.970   123879277.99247  23573444.902    96529308.60347
  24001586.159   126129195.47247  24001588.112    98282504.22447
  5  4 10 14 30 20.0000000  0  5G 2G 4G 5G 9G10
  20835761.313   109492673.08749  20835758.881    85318955.40149
  20408456.873   107247170.69749  20408456.568    83569215.20849
  22056892.584   115909754.17048  22056892.722    90319294.03848
  23575478.299   123889968.46247  23575479.224    96537638.84048
  23997945.619   126110064.21647  23997947.574    98267596.73447
  5  4 10 14 30 25.0000000  0  5G 2G 4G 5G 9G10
  20834271.712   109484845.15448  20834269.280    85312855.70549
  20409864.806   107254569.39949  20409864.501    83574980.42649
  22054639.333   115897913.28348  22054639.456    90310067.38348
  23577499.561   123900590.23447  23577500.486    96545915.54047
  23994290.427   126090856.11247  23994292.373    98252629.39247
  5  4 10 14 30 30.0000000  0  5G 2G 4G 5G 9G10
  20832740.147   109476796.75349  20832737.707    85306584.23249
  20411230.555   107261746.46049  20411230.243    83580572.94149
  22052344.137   115885851.91648  22052344.261    90300668.91148
  23579478.496   123910989.57948  23579479.428    96554018.91448
  23990591.366   126071417.38547  23990593.306    98237482.33347
  5  4 10 14 30 35.0000000  0  5G 2G 4G 5G 9G10
  20831225.356   109468836.47649  20831222.917    85300381.42049
  20412612.846   107269010.45049  20412612.541    83586233.18949
  22050065.699   115873878.64348  22050065.809    90291339.09148
  23581473.816   123921475.08447  23581474.734    96562189.45047
  23986907.161   126052056.63047  23986909.100    98222395.99847
  5  4 10 14 30 40.0000000  0  5G 2G 4G 5G 9G10
  20829727.423   109460964.78249  20829724.977    85294247.63649
  20414011.774   107276361.86849  20414011.469    83591961.56649
  22047804.120   115861993.99947  22047804.230    90282078.33748
  23583485.659   123932047.23447  23583486.578    96570427.46048
  23983237.873   126032774.39146  23983239.797    98207370.88147
  5  4 10 14 30 45.0000000  0  5G 2G 4G 5G 9G10
  20828275.712   109453335.99048  20828273.266    85288303.12449
  20415456.713   107283955.04049  20415456.408    83597878.31749
  22045588.780   115850352.30948  22045588.890    90273006.89048
  23585543.315   123942860.29047  23585544.226    96578853.21748
  23979612.891   126013724.98146  23979614.801    98192527.19047
  5  4 10 14 30 50.0000000  0  5G 2G 4G 5G 9G10
  20826811.688   109445642.55349  20826809.242    85282308.25249
  20416889.120   107291482.35949  20416888.808    83603743.75849
  22043361.138   115838646.03348  22043361.241    90263885.13248
  23587588.298   123953606.68847  23587589.203    96587227.02548
  23975973.682   125994600.87646  23975975.592    98177625.30047
  5  4 10 14 30 55.0000000  0  5G 2G 4G 5G 9G10
  20825306.148   109437730.88848  20825303.702    85276143.31649
  20418279.769   107298790.26949  20418279.456    83609438.23049
  22041091.999   115826721.59648  22041092.095    90254593.35848
  23589591.392   123964132.89047  23589592.303    96595429.22847
  23972291.044   125975248.54146  23972292.947    98162545.57547
  5  4 10 14 31  0.0000000  0  5G 2G 4G 5G 9G10
  20823817.772   109429909.38948  20823815.319    85270048.64049
  20419687.340   107306187.10449  20419687.027    83615201.99749
  22038840.025   115814887.39248  22038840.113    90245371.90048
  23591611.232   123974747.22247  23591612.143    96603700.13548
  23968623.658   125955976.29746  23968625.560    98147528.24047
  5  4 10 14 31  5.0000000  0  5G 2G 4G 5G 9G10
  20822375.964   109422332.66749  20822373.511    85264144.70749
  20421141.250   107313827.45449  20421140.937    83621155.51249
  22036634.637   115803298.03348  22036634.725    90236341.23548
  23593677.270   123985604.29648  23593678.181    96612160.18448
  23965000.956   125936938.77647  23965002.853    98132693.79747
  5  4 10 14 31 10.0000000  0  5G 2G 4G 5G 9G10
  20820863.537   109414384.81149  20820861.085    85257951.57349
  20422524.304   107321095.45249  20422523.984    83626818.89149
  22034358.662   115791337.70448  22034358.749    90227021.49648
  23595672.324   123996088.21548  23595673.235    96620329.44248
  23961305.713   125917520.14547  23961307.605    98117562.40647
  5  4 10 14 31 15.0000000  0  5G 2G 4G 5G 9G10
  20819397.814   109406682.38548  20819395.354    85251949.68549
  20423953.831   107328607.63549  20423953.511    83632672.53649
  22032129.405   115779622.90748  22032129.485    90217893.09448
  23597713.678   124006815.45148  23597714.591    96628688.29348
  23957655.275   125898336.93546  23957657.153    98102614.44847
  5  4 10 14 31 20.0000000  0  5G 2G 4G 5G 9G10
  20817920.262   109398917.76449  20817917.796    85245899.33249
  20425371.302   107336056.46149  20425370.981    83638476.80549
  22029888.353   115767846.06848  22029888.419    90208716.33748
  23599742.781   124017478.45548  23599743.693    96636997.12948
  23953991.097   125879081.55046  23953992.975    98087610.25247
  5  4 10 14 31 25.0000000  0  5G 2G 4G 5G 9G10
  20816430.947   109391091.36149  20816428.482    85239800.83649
  20426776.758   107343442.18249  20426776.437    83644231.91349
  22027635.566   115756007.53248  22027635.627    90199491.49648
  23601759.728   124028077.55248  23601760.633    96645256.16348
  23950313.237   125859754.38546  23950315.107    98072550.15147
  5  4 10 14 31 30.0000000  0  5G 2G 4G 5G 9G10
  20814988.571   109383511.65448  20814986.105    85233894.57549
  20428228.905   107351073.26849  20428228.583    83650178.21049
  22025429.742   115744415.81948  22025429.803    90190458.98648
  23603823.202   124038921.21348  23603824.114    96653705.77348
  23946680.459   125840663.98046  23946682.330    98057674.50847
  5  4 10 14 31 35.0000000  0  5G 2G 4G 5G 9G10
  20813505.257   109375716.81848  20813502.798    85227820.68249
  20429639.887   107358488.00049  20429639.573    83655955.91449
  22023183.009   115732609.12548  22023183.063    90181258.96248
  23605845.345   124049547.61648  23605846.259    96661986.08548
  23943004.830   125821348.47946  23943006.701    98042623.48147
  5  4 10 14 31 40.0000000  0  5G 2G 4G 5G 9G10
  20812039.735   109368015.44949  20812037.270    85221819.62249
  20431068.397   107365994.86849  20431068.076    83661805.42549
  22020954.086   115720896.08848  22020954.133    90172131.92848
  23607884.869   124060265.38748  23607885.777    96670337.60148
  23939345.102   125802116.51346  23939346.979    98027637.53447
  5  4 10 14 31 45.0000000  0  5G 2G 4G 5G 9G10
  20810592.088   109360408.04349  20810589.629    85215891.77549
  20432514.552   107373594.43549  20432514.224    83667727.16149
  22018743.089   115709277.18948  22018743.136    90163078.23548
  23609941.856   124071074.92548  23609942.764    96678760.61948
  23935701.373   125782968.55746  23935703.243    98012717.04347
  5  4 10 14 31 50.0000000  0  5G 2G 4G 5G 9G10
  20809103.771   109352586.88748  20809101.314    85209797.37149
  20433919.770   107380978.90449  20433919.441    83673481.28849
  22016491.443   115697444.70848  22016491.476    90153858.12548
  23611957.765   124081668.54047  23611958.660    96687015.37848
  23932015.069   125763596.96046  23932016.933    97997622.31347
  5  4 10 14 31 55.0000000  0  5G 2G 4G 5G 9G10
  20807662.761   109345014.32749  20807660.304    85203896.67649
  20435372.019   107388610.55749  20435371.683    83679428.04249
  22014287.132   115685861.00747  22014287.164    90144831.86848
  23614020.570   124092508.55847  23614021.466    96695462.12748
  23928374.207   125744464.03746  23928376.071    97982713.52847
  5  4 10 14 32  0.0000000  0  5G 2G 4G 5G 9G10
  20806181.238   109337228.90149  20806178.781    85197830.12149
  20436783.538   107396028.07549  20436783.209    83685207.90849
  22012042.363   115674064.66548  22012042.388    90135639.91548
  23616042.423   124103133.46948  23616043.312    96703741.28048
  23924690.937   125725108.38546  23924692.801    97967631.21947
  5  4 10 14 32  5.0000000  0  5G 2G 4G 5G 9G10
  20804776.483   109329846.83148  20804774.020    85192077.85749
  20438271.538   107403847.59849  20438271.202    83691301.05349
  22009874.390   115662671.86148  22009874.415    90126762.39848
  23618140.640   124114159.51347  23618141.528    96712332.97048
  23921082.537   125706146.17946  23921084.401    97952855.48547
  5  4 10 14 32 10.0000000  0  5G 2G 4G 5G 9G10
  20803302.060   109322098.68848  20803299.597    85186040.34449
  20439689.631   107411299.66749  20439689.295    83697107.84649
  22007636.798   115650913.23548  22007636.824    90117599.83748
  23620168.768   124124817.30747  23620169.664    96720637.72148
  23917402.603   125686808.05946  23917404.468    97937786.83647
  5  4 10 14 32 15.0000000  0  5G 2G 4G 5G 9G10
  20801816.658   109314292.88049  20801814.203    85179957.90149
  20441096.469   107418692.71149  20441096.132    83702868.67249
  22005388.269   115639097.13548  22005388.288    90108392.48848
  23622185.489   124135415.15347  23622186.385    96728895.76348
  23913709.826   125667402.47946  23913711.690    97922665.62147
  5  4 10 14 32 20.0000000  0  5G 2G 4G 5G 9G10
  20800378.915   109306737.46049  20800376.454    85174070.56049
  20442550.698   107426334.73749  20442550.361    83708823.49349
  22003187.443   115627531.65348  22003187.463    90099380.41548
  23624249.421   124146261.12747  23624250.310    96737347.16148
  23910062.830   125648237.38446  23910064.701    97907731.78247
  5  4 10 14 32 25.0000000  0  5G 2G 4G 5G 9G10
  20798930.298   109299124.95648  20798927.836    85168138.74549
  20443993.813   107433918.29549  20443993.469    83714732.75049
  22000975.786   115615909.38148  22000975.800    90090324.11948
  23626302.058   124157047.74447  23626302.947    96745752.30348
  23906403.112   125629005.43546  23906404.983    97892745.84747
  5  4 10 14 32 30.0000000  0  5G 2G 4G 5G 9G10
  20797470.919   109291455.86849  20797468.450    85162162.83349
  20445425.881   107441443.89249  20445425.543    83720596.85349
  21998753.438   115604230.79848  21998753.452    90081223.91348
  23628343.487   124167775.49447  23628344.369    96754111.58447
  23902730.731   125609707.03946  23902732.597    97877708.16647
  5  4 10 14 32 35.0000000  0  5G 2G 4G 5G 9G10
  20796059.436   109284038.50348  20796056.966    85156383.07349
  20446905.603   107449219.85349  20446905.258    83726656.04049
  21996579.030   115592804.20948  21996579.038    90072320.08348
  23630432.389   124178752.68347  23630433.284    96762665.21747
  23899104.397   125590650.58446  23899106.269    97862858.99047
  5  4 10 14 32 40.0000000  0  5G 2G 4G 5G 9G10
  20794607.985   109276411.07649  20794605.515    85150439.62549
  20448345.073   107456784.28949  20448344.721    83732550.40149
  21994364.701   115581167.86047  21994364.716    90063252.80448
  23632480.851   124189517.45947  23632481.739    96771053.36247
  23895436.249   125571374.33746  23895438.122    97847838.54147
  5  4 10 14 32 45.0000000  0  5G 2G 4G 5G 9G10
  20793204.609   109269036.28749  20793202.133    85144693.04249
  20449832.349   107464599.97649  20449832.004    83738640.54449
  21992198.515   115569784.48048  21992198.525    90054382.64448
  23634576.980   124200532.56548  23634577.874    96779636.52847
  23891814.310   125552340.95046  23891816.190    97833007.33747
  5  4 10 14 32 50.0000000  0  5G 2G 4G 5G 9G10
  20791732.110   109261298.28348  20791729.641    85138663.43149
  20451250.236   107472050.99249  20451249.884    83744446.52449
  21989963.264   115558038.18548  21989963.281    90045229.69548
  23636603.521   124211182.11048  23636604.408    96787934.87447
  23888121.400   125532934.57946  23888123.281    97817885.49147
  5  4 10 14 32 55.0000000  0  5G 2G 4G 5G 9G10
  20790307.784   109253813.39948  20790305.315    85132831.05449
  20452716.004   107479753.65649  20452715.651    83750448.59749
  21987776.248   115546545.33848  21987776.272    90036274.22848
  23638677.808   124222082.43748  23638678.694    96796428.60447
  23884474.826   125513771.64046  23884476.715    97802953.31747
  5  4 10 14 33  0.0000000  0  5G 2G 4G 5G 9G10
  20788902.422   109246428.17548  20788899.946    85127076.33649
  20454200.466   107487554.52349  20454200.113    83756527.18949
  21985608.260   115535152.48348  21985608.292    90027396.67848
  23640770.575   124233080.00347  23640771.441    96804998.14747
  23880845.337   125494698.60946  23880847.218    97788091.23047
  5  4 10 14 33  5.0000000  0  5G 2G 4G 5G 9G10
  20787428.118   109238680.68748  20787425.642    85121039.33949
  20455615.701   107494991.63449  20455615.341    83762322.34249
  21983371.395   115523397.65148  21983371.429    90018237.06748
  23642793.966   124243712.93248  23642794.831    96813283.53148
  23877145.065   125475253.61346  23877146.939    97772939.29947
  5  4 10 14 33 10.0000000  0  5G 2G 4G 5G 9G10
  20786002.184   109231187.35448  20785999.709    85115200.38049
  20457079.019   107502681.42049  20457078.659    83768314.38249
  21981182.968   115511897.32748  21981183.002    90009275.76248
  23644865.259   124254597.61847  23644866.117    96821765.10147
  23873491.321   125456053.02546  23873493.195    97757977.79647
  5  4 10 14 33 15.0000000  0  5G 2G 4G 5G 9G10
  20784595.377   109223794.56149  20784592.901    85109439.76849
  20458561.200   107510470.33749  20458560.833    83774383.67249
  21979013.724   115500497.90248  21979013.758    90000393.10248
  23646955.213   124265580.39947  23646956.072    96830323.11848
  23869854.842   125436943.29147  23869856.701    97743087.11747
  5  4 10 14 33 20.0000000  0  5G 2G 4G 5G 9G10
  20783178.453   109216348.54349  20783175.970    85103637.67449
  20460032.967   107518204.49049  20460032.600    83780410.27749
  21976834.435   115489045.66448  21976834.462    89991469.28248
  23649034.583   124276507.56547  23649035.450    96838837.79047
  23866206.399   125417770.65847  23866208.251    97728147.42047
  5  4 10 14 33 25.0000000  0  5G 2G 4G 5G 9G10
  20781751.449   109208849.62248  20781748.974    85097794.36349
  20461494.376   107525884.24949  20461494.015    83786394.49849
  21974645.157   115477540.89747  21974645.184    89982504.52148
  23651103.418   124287379.39548  23651104.278    96847309.35647
  23862546.074   125398535.45847  23862547.920    97713158.94347
  5  4 10 14 33 30.0000000  0  5G 2G 4G 5G 9G10
  20780343.752   109201452.12048  20780341.276    85092030.07649
  20462974.797   107533663.87949  20462974.429    83792456.54549
  21972475.253   115466137.97347  21972475.280    89973619.13048
  23653191.083   124298350.21248  23653191.949    96855858.05147
  23858903.200   125379392.05647  23858905.032    97698242.02047
  5  4 10 14 33 35.0000000  0  5G 2G 4G 5G 9G10
  20778955.422   109194156.42748  20778952.946    85086345.12649
  20464474.294   107541543.82349  20464473.933    83798596.76449
  21970324.786   115454837.22448  21970324.814    89964813.35948
  23655297.675   124309420.30248  23655298.547    96864484.06347
  23855277.866   125360340.79747  23855279.698    97683396.88547
  5  4 10 14 33 40.0000000  0  5G 2G 4G 5G 9G10
  20777498.615   109186500.86049  20777496.147    85080379.74849
  20465905.016   107549062.28949  20465904.649    83804455.30649
  21968105.931   115443177.00348  21968105.952    89955727.46248
  23657335.301   124320128.03848  23657336.174    96872827.74247
  23851582.215   125340920.02146  23851584.047    97668263.80947
  5  4 10 14 33 45.0000000  0  5G 2G 4G 5G 9G10
  20776090.585   109179101.63949  20776088.110    85074614.13549
  20467384.226   107556835.58849  20467383.857    83810512.41749
  21965935.937   115431773.57448  21965935.952    89946841.67548
  23659421.242   124331089.60348  23659422.114    96881369.19347
  23847933.526   125321746.00046  23847935.352    97653323.01447
  5  4 10 14 33 50.0000000  0  5G 2G 4G 5G 9G10
  20774672.806   109171651.16148  20774670.339    85068808.56549
  20468853.389   107564556.09249  20468853.020    83816528.39349
  21963756.276   115420319.34948  21963756.300    89937916.30048
  23661496.954   124341997.42048  23661497.825    96889868.75947
  23844273.225   125302511.17545  23844275.049    97638334.87447
  5  4 10 14 33 55.0000000  0  5G 2G 4G 5G 9G10
  20773274.633   109164303.74248  20773272.164    85063083.30649
  20470341.861   107572378.03349  20470341.492    83822623.40749
  21961596.294   115408968.59948  21961596.311    89929071.56948
  23663591.777   124353005.69847  23663592.649    96898446.61647
  23840630.727   125283369.78146  23840632.558    97623419.51347
  5  4 10 14 34  0.0000000  0  5G 2G 4G 5G 9G10
  20771837.494   109156751.49648  20771835.027    85057198.43949
  20471791.059   107579993.65449  20471790.690    83828557.66149
  21959397.438   115397413.49748  21959397.456    89920067.59348
  23665647.123   124363806.67447  23665647.993    96906862.97147
  23836947.451   125264014.06946  23836949.276    97608337.15147
  5  4 10 14 34  5.0000000  0  5G 2G 4G 5G 9G10
  20770478.666   109149610.83948  20770476.199    85051634.29649
  20473318.285   107588019.24749  20473317.909    83834811.36549
  21957276.973   115386270.41248  21957276.992    89911384.68048
  23667780.324   124375016.65947  23667781.187    96915598.01347
  23833340.674   125245060.35646  23833342.485    97593568.03947
  5  4 10 14 34 10.0000000  0  5G 2G 4G 5G 9G10
  20769051.666   109142111.90349  20769049.198    85045790.96649
  20474777.012   107595684.91049  20474776.643    83840784.60649
  21955088.423   115374769.53647  21955088.449    89902422.96448
  23669844.850   124385865.78548  23669845.733    96924051.85947
  23829663.925   125225738.81946  23829665.737    97578512.27547
  5  4 10 14 34 15.0000000  0  5G 2G 4G 5G 9G10
  20767673.802   109134871.17848  20767671.335    85040148.84649
  20476284.575   107603607.17449  20476284.205    83846957.79249
  21952949.102   115363527.32447  21952949.135    89893662.79848
  23671958.026   124396970.50848  23671958.916    96932704.86447
  23826034.465   125206665.94046  23826036.269    97563650.30747
  5  4 10 14 34 20.0000000  0  5G 2G 4G 5G 9G10
  20766227.869   109127272.78048  20766225.401    85034228.02049
  20477723.767   107611170.21049  20477723.396    83852851.06849
  21950741.806   115351927.96848  21950741.847    89884624.35448
  23674002.657   124407714.99048  23674003.547    96941077.16247
  23822335.145   125187225.94146  23822336.943    97548502.27747
  5  4 10 14 34 25.0000000  0  5G 2G 4G 5G 9G10
  20764831.160   109119933.02349  20764828.692    85028508.73049
  20479211.877   107618990.25049  20479211.500    83858944.60549
  21948583.831   115340587.76948  21948583.886    89875787.83348
  23676096.000   124418715.48647  23676096.890    96949648.95747
  23818683.235   125168035.05947  23818685.027    97533548.35347
  5  4 10 14 34 30.0000000  0  5G 2G 4G 5G 9G10
  20763454.468   109112698.46148  20763452.001    85022871.41149
  20480719.691   107626913.86849  20480719.314    83865118.85149
  21946445.978   115329353.30648  21946446.046    89867033.70548
  23678208.831   124429818.52247  23678209.715    96958300.68447
  23815049.536   125148939.87447  23815051.329    97518668.99847
  5  4 10 14 34 35.0000000  0  5G 2G 4G 5G 9G10
  20762068.482   109105415.05449  20762066.015    85017196.02949
  20482217.896   107634786.95549  20482217.512    83871253.72149
  21944298.943   115318070.52748  21944299.011    89858241.92548
  23680311.887   124440870.12248  23680312.763    96966912.31347
  23811404.724   125129786.37947  23811406.503    97503744.23447
  5  4 10 14 34 40.0000000  0  5G 2G 4G 5G 9G10
  20760673.342   109098083.54348  20760670.874    85011483.16249
  20483706.621   107642610.28949  20483706.243    83877349.82749
  21942142.834   115306740.15948  21942142.901    89849413.07748
  23682405.271   124451870.86647  23682406.153    96975484.30247
  23807748.994   125110575.29947  23807750.782    97488774.54247
  5  4 10 14 34 45.0000000  0  5G 2G 4G 5G 9G10
  20759298.328   109090857.82948  20759295.861    85005852.74249
  20485215.162   107650537.69549  20485214.777    83883527.02349
  21940006.982   115295516.09048  21940007.043    89840667.03448
  23684518.261   124462974.73848  23684519.136    96984136.67747
  23804111.572   125091460.51547  23804113.354    97473879.91447
  5  4 10 14 34 50.0000000  0  5G 2G 4G 5G 9G10
  20757943.487   109083738.08948  20757941.027    85000304.89349
  20486743.547   107658569.38149  20486743.163    83889785.47549
  21937891.394   115284398.56648  21937891.455    89832004.02148
  23686650.929   124474181.92048  23686651.809    96992869.52447
  23800492.513   125072442.32847  23800494.289    97459060.57447
  5  4 10 14 34 55.0000000  0  5G 2G 4G 5G 9G10
  20756521.070   109076263.20848  20756518.611    84994480.30649
  20488204.028   107666244.26049  20488203.643    83895765.89749
  21935708.306   115272926.42648  21935708.359    89823064.70248
  23688715.489   124485031.22348  23688716.369    97001323.52047
  23796804.104   125053059.54147  23796805.880    97443957.09247
  5  4 10 14 35  0.0000000  0  5G 2G 4G 5G 9G10
  20755118.886   109068894.71448  20755116.427    84988738.63049
  20489684.431   107674023.83049  20489684.047    83901827.90449
  21933545.595   115261561.27148  21933545.642    89814208.73848
  23690799.776   124495984.16348  23690800.656    97009858.26547
  23793134.155   125033773.76947  23793135.933    97428929.20947
  5  4 10 14 35  5.0000000  0  5G 2G 4G 5G 9G10
  20753766.357   109061787.12548  20753763.897    84983200.24649
  20491214.174   107682062.65449  20491213.790    83908091.91449
  21931432.648   115250457.65948  21931432.687    89805556.57248
  23692933.194   124507195.32148  23692934.076    97018594.23147
  23789512.061   125014739.53446  23789513.832    97414097.34447
  5  4 10 14 35 10.0000000  0  5G 2G 4G 5G 9G10
  20752375.651   109054478.88748  20752373.193    84977505.51249
  20492705.384   107689899.01749  20492704.999    83914198.16849
  21929281.623   115239153.97748  21929281.663    89796748.51848
  23695027.901   124518203.05148  23695028.783    97027171.67747
  23785849.998   124995495.29446  23785851.770    97399101.84147
  5  4 10 14 35 15.0000000  0  5G 2G 4G 5G 9G10
  20751005.405   109047278.19448  20751002.947    84971894.58349
  20494216.741   107697841.24949  20494216.356    83920386.91949
  21927151.196   115227958.47748  21927151.230    89788024.75048
  23697142.526   124529315.54148  23697143.407    97035830.76847
  23782206.601   124976349.17846  23782208.380    97384182.80247
  5  4 10 14 35 20.0000000  0  5G 2G 4G 5G 9G10
  20749655.688   109040185.41648  20749653.230    84966367.74949
  20495748.306   107705889.64649  20495747.921    83926658.39149
  21925041.401   115216871.46248  21925041.435    89779385.52648
  23699277.175   124540533.19548  23699278.057    97044571.80248
  23778581.951   124957301.63646  23778583.723    97369340.59447
  5  4 10 14 35 25.0000000  0  5G 2G 4G 5G 9G10
  20748238.650   109032738.79848  20748236.185    84960565.18849
  20497212.202   107713582.53349  20497211.816    83932652.85949
  21922864.404   115205431.26347  21922864.431    89770471.09048
  23701343.964   124551394.21548  23701344.853    97053034.92747
  23774888.227   124937890.92446  23774890.001    97354215.35547
  5  4 10 14 35 30.0000000  0  5G 2G 4G 5G 9G10
  20746871.535   109025554.55948  20746869.063    84954967.08249
  20498725.703   107721536.00449  20498725.317    83938850.36149
  21920737.456   115194254.07848  21920737.483    89761761.59348
  23703460.148   124562514.80447  23703461.044    97061700.31147
  23771242.640   124918733.26546  23771244.421    97339287.31447
  5  4 10 14 35 35.0000000  0  5G 2G 4G 5G 9G10
  20745495.754   109018324.78248  20745493.282    84949333.49049
  20500230.205   107729442.18549  20500229.813    83945011.02049
  21918601.976   115183032.02248  21918601.996    89753017.12948
  23705567.131   124573587.07847  23705568.028    97070328.06147
  23767586.594   124899520.77546  23767588.368    97324316.57747
  5  4 10 14 35 40.0000000  0  5G 2G 4G 5G 9G10
  20744170.000   109011357.89648  20744167.528    84943904.74849
  20501784.381   107737609.43249  20501784.002    83951375.10249
  21916516.634   115172073.54148  21916516.653    89744478.06248
  23707723.621   124584919.38347  23707724.531    97079158.39147
  23763978.846   124880561.90046  23763980.621    97309543.42447
  5  4 10 14 35 45.0000000  0  5G 2G 4G 5G 9G10
  20742835.705   109004346.12848  20742833.234    84938441.03649
  20503329.680   107745730.03749  20503329.294    83957702.84749
  21914422.875   115161070.79648  21914422.886    89735904.50048
  23709871.014   124596203.91747  23709871.931    97087951.51147
  23760360.749   124861548.79646  23760362.523    97294728.04447
  5  4 10 14 35 50.0000000  0  5G 2G 4G 5G 9G10
  20741434.300   108996981.69848  20741431.828    84932702.51649
  20504807.528   107753496.14949  20504807.143    83963754.35949
  21912262.138   115149716.04648  21912262.148    89727056.63848
  23711950.717   124607132.88947  23711951.626    97096467.60747
  23756673.805   124842173.74446  23756675.579    97279630.59347
  5  4 10 14 35 55.0000000  0  5G 2G 4G 5G 9G10
  20740083.067   108989880.92048  20740080.596    84927169.44349
  20506335.210   107761524.17449  20506334.832    83970009.95849
  21910151.720   115138625.68948  21910151.715    89718414.79948
  23714080.080   124618322.67548  23714080.996    97105186.89647
  23753035.267   124823053.12746  23753037.033    97264731.41947
  5  4 10 14 36  0.0000000  0  5G 2G 4G 5G 9G10
  20738752.747   108982890.04148  20738750.276    84921722.00749
  20507883.445   107769660.20349  20507883.066    83976349.72149
  21908062.338   115127645.94648  21908062.333    89709859.15848
  23716229.782   124629619.46848  23716230.684    97113989.60447
  23749415.886   124804033.21347  23749417.652    97249910.72047
  5  4 10 14 36  5.0000000  0  5G 2G 4G 5G 9G10
  20737355.485   108975547.34648  20737353.007    84916000.42249
  20509364.405   107777442.63749  20509364.020    83982413.94749
  21905906.163   115116315.10648  21905906.150    89701029.92048
  23718311.994   124640561.53248  23718312.895    97122515.87647
  23745727.799   124784652.21947  23745729.564    97234808.64947
  5  4 10 14 36 10.0000000  0  5G 2G 4G 5G 9G10
  20736037.825   108968622.99948  20736035.346    84910604.82449
  20510924.592   107785641.50849  20510924.207    83988802.68349
  21903829.717   115105403.31248  21903829.704    89692527.22048
  23720473.245   124651918.98448  23720474.152    97131365.83447
  23742117.564   124765680.33647  23742119.322    97220025.37447
  5  4 10 14 36 15.0000000  0  5G 2G 4G 5G 9G10
  20734653.342   108961347.49048  20734650.864    84904935.60049
  20512417.641   107793487.53149  20512417.262    83994916.46349
  21901686.594   115094141.12348  21901686.567    89683751.49748
  23722567.139   124662922.40947  23722568.053    97139939.91447
  23738438.749   124746348.09647  23738440.501    97204961.30848
  5  4 10 14 36 20.0000000  0  5G 2G 4G 5G 9G10
  20733319.294   108954337.05048  20733316.815    84899472.92649
  20513960.770   107801596.69749  20513960.391    84001235.28649
  21899594.041   115083144.71548  21899594.014    89675182.87148
  23724710.905   124674187.91247  23724711.820    97148718.21847
  23734808.620   124727271.76447  23734810.378    97190096.65647
  5  4 10 14 36 25.0000000  0  5G 2G 4G 5G 9G10
  20731947.817   108947129.89348  20731945.339    84893856.96049
  20515466.104   107809507.27949  20515465.725    84007399.37749
  21897464.212   115071952.35748  21897464.185    89666461.54748
  23726816.659   124685253.75847  23726817.582    97157340.96047
  23731139.321   124707989.56147  23731141.079    97175071.58647
  5  4 10 14 36 30.0000000  0  5G 2G 4G 5G 9G10
  20730626.841   108940188.14648  20730624.369    84888447.80949
  20517021.597   107817681.42149  20517021.219    84013768.83649
  21895385.037   115061026.21948  21895385.003    89657947.67648
  23728972.377   124696582.06946  23728973.312    97166168.19247
  23727518.802   124688963.63846  23727520.567    97160246.19548
  5  4 10 14 36 35.0000000  0  5G 2G 4G 5G 9G10
  20729297.792   108933203.95048  20729295.322    84883005.58249
  20518568.641   107825811.19249  20518568.262    84020103.71849
  21893297.930   115050058.39748  21893297.903    89649401.32048
  23731119.415   124707864.89147  23731120.345    97174960.02647
  23723888.480   124669886.13446  23723890.246    97145380.60548
  5  4 10 14 36 40.0000000  0  5G 2G 4G 5G 9G10
  20727960.754   108926177.76648  20727958.283    84877530.62949
  20520107.347   107833897.14649  20520106.968    84026404.46049
  21891202.976   115039049.34048  21891202.950    89640822.83648
  23733257.922   124719102.69747  23733258.865    97183716.72147
  23720248.402   124650757.48946  23720250.168    97130475.18847
  5  4 10 14 36 45.0000000  0  5G 2G 4G 5G 9G10
  20726615.733   108919109.63148  20726613.263    84872022.99749
  20521637.709   107841939.21949  20521637.330    84032671.00849
  21889100.190   115027999.15448  21889100.164    89632212.30848
  23735387.844   124730295.54547  23735388.789    97192438.43247
  23716598.616   124631577.76746  23716600.371    97115529.97248
  5  4 10 14 36 50.0000000  0  5G 2G 4G 5G 9G10
  20725262.860   108912000.26748  20725260.390    84866483.24049
  20523159.844   107849938.12749  20523159.465    84038903.92649
  21886989.710   115016908.56848  21886989.691    89623570.30748
  23737509.349   124741444.09447  23737510.299    97201125.60247
  23712939.259   124612347.68346  23712941.022    97100545.48548
  5  4 10 14 36 55.0000000  0  5G 2G 4G 5G 9G10
  20723960.761   108905157.69048  20723958.290    84861151.36049
  20524732.390   107858201.85149  20524732.019    84045343.17649
  21884930.154   115006085.53148  21884930.135    89615136.77148
  23739681.044   124752856.40047  23739682.002    97210018.29747
  23709328.920   124593375.25347  23709330.682    97085761.77947
  5  4 10 14 37  0.0000000  0  5G 2G 4G 5G 9G10
  20722621.523   108898119.95048  20722619.060    84855667.40649
  20526267.444   107866268.61149  20526267.073    84051628.96549
  21882833.647   114995068.25148  21882833.630    89606551.86848
  23741815.025   124764070.51547  23741815.990    97218756.56147
  23705679.727   124574198.64847  23705681.491    97070818.98348
  5  4 10 14 37  5.0000000  0  5G 2G 4G 5G 9G10
  20721274.537   108891041.45948  20721272.074    84850151.69249
  20527794.364   107874292.60049  20527793.986    84057881.42149
  21880729.524   114984011.04048  21880729.506    89597935.86348
  23743940.676   124775240.79046  23743941.649    97227460.65447
  23702021.060   124554972.22247  23702022.817    97055837.35748
  5  4 10 14 37 10.0000000  0  5G 2G 4G 5G 9G10
  20719978.467   108884230.56348  20719976.003    84844844.49949
  20529371.828   107882582.22849  20529371.450    84064340.87149
  21878676.478   114973222.24048  21878676.467    89589529.01348
  23746116.632   124786675.51747  23746117.612    97236370.82547
  23698411.579   124536004.33447  23698413.344    97041057.19948
  5  4 10 14 37 15.0000000  0  5G 2G 4G 5G 9G10
  20718616.117   108877071.39948  20718613.661    84839265.93449
  20530882.645   107890521.62749  20530882.267    84070527.41449
  21876557.334   114962086.06648  21876557.324    89580851.47748
  23748225.752   124797758.92246  23748226.753    97245007.21747
  23694734.104   124516679.13347  23694735.868    97025998.61248
  5  4 10 14 37 20.0000000  0  5G 2G 4G 5G 9G10
  20717275.487   108870026.37148  20717273.031    84833776.30849
  20532414.807   107898573.19048  20532414.428    84076801.35849
  21874460.081   114951064.92548  21874460.071    89572263.57748
  23750355.988   124808953.26346  23750357.003    97253730.04847
  23691076.653   124497459.07147  23691078.432    97011021.92947
  5  4 10 14 37 25.0000000  0  5G 2G 4G 5G 9G10
  20715985.893   108863249.47749  20715983.436    84828495.60349
  20533997.622   107906890.90749  20533997.237    84083282.69549
  21872414.033   114940312.83748  21872414.023    89563885.31948
  23752536.663   124820412.63346  23752537.691    97262659.38547
  23687468.473   124478498.10947  23687470.251    96996247.18747
  5  4 10 14 37 30.0000000  0  5G 2G 4G 5G 9G10
  20714630.148   108856124.99149  20714627.685    84822944.06249
  20535513.907   107914859.04049  20535513.529    84089491.62649
  21870302.009   114929214.04648  21870301.998    89555236.90048
  23754650.583   124831521.26146  23754651.618    97271315.43547
  23683792.470   124459180.55646  23683794.249    96981194.54247
  5  4 10 14 37 35.0000000  0  5G 2G 4G 5G 9G10
  20713325.539   108849269.25448  20713323.083    84817601.93349
  20537080.950   107923093.87749  20537080.565    84095908.38049
  21868241.286   114918384.84248  21868241.269    89546798.55948
  23756815.000   124842895.41346  23756816.048    97280178.41747
  23680165.872   124440122.74746  23680167.657    96966344.31747
  5  4 10 14 37 40.0000000  0  5G 2G 4G 5G 9G10
  20712013.506   108842374.47348  20712011.043    84812229.38149
  20538640.194   107931287.72649  20538639.809    84102293.19049
  21866173.299   114907517.52848  21866173.280    89538330.52248
  23758971.412   124854227.37246  23758972.474    97289008.49347
  23676530.147   124421016.91346  23676531.924    96951456.66247
  5  4 10 14 37 45.0000000  0  5G 2G 4G 5G 9G10
  20710694.112   108835441.04548  20710691.656    84806826.71349
  20540191.689   107939440.88749  20540191.297    84108646.30749
  21864098.148   114896612.50748  21864098.129    89529833.09548
  23761119.851   124865517.49446  23761120.932    97297805.97847
  23672885.385   124401863.59146  23672887.168    96936531.99447
  5  4 10 14 37 50.0000000  0  5G 2G 4G 5G 9G10
  20709396.700   108828623.06948  20709394.245    84801514.00049
  20541764.762   107947707.44349  20541764.378    84115087.77749
  21862045.135   114885823.85148  21862045.110    89521426.35648
  23763289.636   124876919.88846  23763290.732    97306690.97747
  23669260.873   124382816.68146  23669262.661    96921690.24247
  5  4 10 14 37 55.0000000  0  5G 2G 4G 5G 9G10
  20708062.707   108821612.88548  20708060.259    84796051.51849
  20543300.884   107955779.78849  20543300.493    84121377.91249
  21859955.710   114874843.91048  21859955.692    89512870.57048
  23765422.266   124888126.83847  23765423.370    97315423.64647
  23665598.088   124363568.68047  23665599.876    96906691.81347
  5  4 10 14 38  0.0000000  0  5G 2G 4G 5G 9G10
  20706750.734   108814718.45048  20706748.285    84790679.23449
  20544858.647   107963965.85649  20544858.263    84127756.65849
  21857888.504   114863980.67148  21857888.481    89504405.71848
  23767576.288   124899446.30447  23767577.406    97324244.00147
  23661955.620   124344427.50947  23661957.401    96891776.64547
  5  4 10 14 38  5.0000000  0  5G 2G 4G 5G 9G10
  20705490.167   108808094.09948  20705487.726    84785517.39649
  20546467.400   107972419.94049  20546467.016    84134344.26349
  21855872.877   114853388.47848  21855872.854    89496152.06248
  23769781.092   124911032.59247  23769782.217    97333272.27048
  23658362.886   124325547.53347  23658364.674    96877064.96648
  5  4 10 14 38 10.0000000  0  5G 2G 4G 5G 9G10
  20704163.787   108801123.95648  20704161.346    84780086.12349
  20548009.952   107980526.07649  20548009.569    84140660.72849
  21853791.625   114842451.42548  21853791.602    89487629.68348
  23771919.456   124922269.77347  23771920.596    97342028.51447
  23654702.625   124306312.82247  23654704.406    96862076.90647
  5  4 10 14 38 15.0000000  0  5G 2G 4G 5G 9G10
  20702859.573   108794270.23248  20702857.125    84774745.55449
  20549574.279   107988746.63949  20549573.896    84147066.35649
  21851732.731   114831631.86348  21851732.715    89479198.85448
  23774079.373   124933620.15247  23774080.520    97350872.95048
  23651062.856   124287185.77147  23651064.644    96847172.72048
  5  4 10 14 38 20.0000000  0  5G 2G 4G 5G 9G10
  20701577.593   108787533.41448  20701575.146    84769496.09449
  20551160.449   107997081.98749  20551160.059    84153561.42849
  21849696.263   114820930.18348  21849696.241    89470859.89548
  23776260.896   124945084.09947  23776262.056    97359805.88248
  23647443.636   124268166.67347  23647445.418    96832352.65747
  5  4 10 14 38 25.0000000  0  5G 2G 4G 5G 9G10
  20700288.595   108780759.68148  20700286.147    84764217.86149
  20552739.192   108005378.33949  20552738.803    84160026.11949
  21847652.972   114810192.58548  21847652.956    89462492.92248
  23778434.774   124956507.81247  23778435.950    97368707.45548
  23643815.727   124249101.85247  23643817.503    96817496.94947
  5  4 10 14 38 30.0000000  0  5G 2G 4G 5G 9G10
  20699021.903   108774103.17348  20699019.456    84759030.97149
  20554339.864   108013789.89649  20554339.482    84166580.56949
  21845632.179   114799573.28048  21845632.150    89454218.15248
  23780630.316   124968045.49547  23780631.499    97377697.86248
  23640208.432   124230145.45047  23640210.207    96802725.73748
  5  4 10 14 38 35.0000000  0  5G 2G 4G 5G 9G10
  20697689.666   108767102.22048  20697687.219    84753575.68349
  20555874.577   108021854.86249  20555874.187    84172864.96449
  21843546.045   114788610.53748  21843546.014    89445675.74548
  23782759.668   124979235.34647  23782760.858    97386417.23148
  23636533.925   124210835.75647  23636535.700    96787679.21647
  5  4 10 14 38 40.0000000  0  5G 2G 4G 5G 9G10
  20696409.127   108760372.94348  20696406.681    84748332.09649
  20557460.568   108030189.30349  20557460.179    84179359.33649
  21841511.801   114777920.51648  21841511.764    89437345.86248
  23784940.095   124990693.50247  23784941.293    97395345.65548
  23632909.416   124191788.92347  23632911.198    96772837.54847
  5  4 10 14 38 45.0000000  0  5G 2G 4G 5G 9G10
  20695151.059   108753761.75148  20695148.613    84743180.51649
  20559068.637   108038639.69949  20559068.248    84185944.04649
  21839500.231   114767349.64548  21839500.180    89429108.82448
  23787142.349   125002266.43047  23787143.555    97404363.51947
  23629305.714   124172851.40747  23629307.497    96758081.05647
  5  4 10 14 38 50.0000000  0  5G 2G 4G 5G 9G10
  20693827.588   108746806.86448  20693825.142    84737761.12449
  20560610.880   108046744.27249  20560610.491    84192259.30349
  21837423.466   114756436.13648  21837423.414    89420604.78148
  23789278.571   125013492.25647  23789279.784    97413110.89447
  23625634.948   124153561.40047  23625636.732    96743049.89048
  5  4 10 14 38 55.0000000  0  5G 2G 4G 5G 9G10
  20692526.619   108739970.22448  20692524.172    84732433.87249
  20562175.220   108054964.90449  20562174.832    84198664.98749
  21835369.403   114745641.96548  21835369.344    89412193.73948
  23791436.637   125024832.97247  23791437.856    97421947.80847
  23621985.025   124134380.89247  23621986.810    96728104.03547
  5  4 10 14 39  0.0000000  0  5G 2G 4G 5G 9G10
  20691248.222   108733252.20148  20691245.782    84727199.04649
  20563761.727   108063302.05749  20563761.345    84205161.46349
  21833338.134   114734967.54048  21833338.068    89403876.00348
  23793616.671   125036288.90846  23793617.905    97430874.46047
  23618355.991   124115310.28847  23618357.770    96713243.85247
  5  4 10 14 39  5.0000000  0  5G 2G 4G 5G 9G10
  20689992.448   108726653.06648  20689990.016    84722056.86249
  20565370.440   108071755.89849  20565370.058    84211748.87349
  21831329.685   114724413.10048  21831329.617    89395651.76748
  23795818.643   125047860.31447  23795819.891    97439891.13147
  23614747.937   124096349.83246  23614749.722    96698469.46547
  5  4 10 14 39 10.0000000  0  5G 2G 4G 5G 9G10
  20688700.677   108719864.76548  20688698.239    84716767.28149
  20566942.749   108080018.43649  20566942.367    84218187.21749
  21829285.456   114713670.60748  21829285.383    89387280.99948
  23797983.958   125059239.12246  23797985.220    97448757.72947
  23611102.225   124077191.51846  23611104.010    96683540.91647
  5  4 10 14 39 15.0000000  0  5G 2G 4G 5G 9G10
  20687402.318   108713041.84348  20687399.887    84711450.71649
  20568508.058   108088244.16249  20568507.670    84224596.87149
  21827234.866   114702894.58848  21827234.785    89378884.08248
  23800142.030   125070579.83647  23800143.306    97457594.63747
  23607448.264   124057989.91846  23607450.049    96668578.64947
  5  4 10 14 39 20.0000000  0  5G 2G 4G 5G 9G10
  20686126.718   108706338.48549  20686124.287    84706227.31749
  20570095.708   108096587.28849  20570095.327    84231097.99849
  21825207.234   114692239.27948  21825207.140    89370581.24548
  23802322.198   125082036.63547  23802323.475    97466522.00447
  23603815.413   124038899.15646  23603817.198    96653702.73347
  5  4 10 14 39 25.0000000  0  5G 2G 4G 5G 9G10
  20684873.955   108699755.20449  20684871.530    84701097.48849
  20571705.779   108105048.26949  20571705.399    84237690.97349
  21823202.664   114681705.19248  21823202.569    89362372.86248
  23804524.564   125093610.05247  23804525.855    97475540.22647
  23600203.739   124019919.77946  23600205.525    96638913.62947
  5  4 10 14 39 30.0000000  0  5G 2G 4G 5G 9G10
  20683614.692   108693137.76548  20683612.261    84695941.05149
  20573308.929   108113472.84549  20573308.542    84244255.57749
  21821191.802   114671138.10348  21821191.700    89354138.78348
  23806719.756   125105145.80347  23806721.069    97484529.10347
  23596583.942   124000897.58346  23596585.728    96624091.13647
  5  4 10 14 39 35.0000000  0  5G 2G 4G 5G 9G10
  20682349.025   108686486.57449  20682346.600    84690758.29049
  20574905.225   108121861.43849  20574904.838    84250792.14049
  21819174.742   114660538.38448  21819174.640    89345879.26148
  23808907.887   125116644.35146  23808909.220    97493488.96647
  23592956.077   123981833.02746  23592957.857    96609235.64047
  5  4 10 14 39 40.0000000  0  5G 2G 4G 5G 9G10
  20681077.001   108679802.10448  20681074.576    84685549.62749
  20576494.763   108130214.48849  20576494.377    84257301.00749
  21817151.576   114649906.57348  21817151.467    89337594.73748
  23811088.998   125128106.10646  23811090.345    97502420.18347
  23589320.229   123962726.57746  23589322.009    96594347.51147
  5  4 10 14 39 45.0000000  0  5G 2G 4G 5G 9G10
  20679857.274   108673392.39949  20679854.856    84680555.04749
  20578136.156   108138840.06349  20578135.769    84264022.23249
  21815180.926   114639550.73748  21815180.817    89329525.25348
  23813321.709   125139839.07947  23813323.062    97511562.75547
  23585735.039   123943886.27646  23585736.812    96579666.76247
  5  4 10 14 39 50.0000000  0  5G 2G 4G 5G 9G10
  20678572.707   108666641.95049  20678570.282    84675294.96049
  20579712.286   108147122.68449  20579711.907    84270476.22049
  21813145.656   114628855.35448  21813145.554    89321191.19348
  23815488.912   125151227.74947  23815490.280    97520437.02447
  23582083.365   123924696.66446  23582085.139    96564713.83247
  5  4 10 14 39 55.0000000  0  5G 2G 4G 5G 9G10
  20677311.222   108660012.83549  20677308.803    84670129.41649
  20581311.076   108155524.34949  20581310.690    84277022.97049
  21811133.716   114618282.50548  21811133.614    89312952.60448
  23817678.527   125162734.18647  23817679.900    97529403.06047
  23578453.142   123905619.80446  23578454.901    96549848.77348
  5  4 10 14 40  0.0000000  0  5G 2G 4G 5G 9G10
  20676043.585   108653351.35549  20676041.167    84664938.65649
  20582903.278   108163891.39749  20582902.892    84283542.74249
  21809115.833   114607678.46148  21809115.739    89304689.71248
  23819861.301   125174204.64847  23819862.683    97538341.06547
  23574815.136   123886501.95446  23574816.896    96534951.75047
  5  4 10 14 40  5.0000000  0  5G 2G 4G 5G 9G10
  20674799.110   108646811.60048  20674796.691    84659842.73849
  20584518.214   108172377.91049  20584517.828    84290155.60449
  21807121.348   114597197.37048  21807121.247    89296522.63148
  23822066.527   125185793.25347  23822067.909    97547371.16047
  23571198.672   123867497.30846  23571200.439    96520142.93047
  5  4 10 14 40 10.0000000  0  5G 2G 4G 5G 9G10
  20673519.275   108640086.01849  20673516.856    84654602.02849
  20586097.333   108180676.23949  20586096.949    84296621.83849
  21805091.725   114586531.69248  21805091.624    89288211.72648
  23824235.729   125197192.42247  23824237.112    97556253.62147
  23567545.215   123848298.26047  23567546.982    96505182.63547
  5  4 10 14 40 15.0000000  0  5G 2G 4G 5G 9G10
  20672292.044   108633636.87548  20672289.626    84649576.72249
  20587728.618   108189248.66949  20587728.234    84303301.64849
  21803114.959   114576143.68748  21803114.865    89280117.16748
  23826456.832   125208864.39847  23826458.217    97565348.67247
  23563942.721   123829367.12447  23563944.481    96490431.12247
  5  4 10 14 40 20.0000000  0  5G 2G 4G 5G 9G10
  20671029.515   108627002.27548  20671027.103    84644406.90649
  20589324.174   108197633.40149  20589323.796    84309835.20849
  21801103.127   114565571.46948  21801103.033    89271879.08248
  23828641.969   125220347.27747  23828643.360    97574296.34347
  23560303.344   123810242.03847  23560305.110    96475528.44347
  5  4 10 14 40 25.0000000  0  5G 2G 4G 5G 9G10
  20669819.670   108620644.49549  20669817.259    84639452.79549
  20590971.972   108206292.60549  20590971.595    84316582.63649
  21799144.214   114555277.34348  21799144.128    89263857.69148
  23830879.066   125232103.33147  23830880.456    97583456.91047
  23556715.007   123791385.29146  23556716.759    96460834.90247
  5  4 10 14 40 30.0000000  0  5G 2G 4G 5G 9G10
  20668545.326   108613947.77349  20668542.916    84634234.57249
  20592554.828   108214610.54149  20592554.451    84323064.13749
  21797121.051   114544645.58148  21797120.964    89255573.20748
  23833050.995   125243516.77147  23833052.392    97592350.47047
  23553060.563   123772181.08946  23553062.315    96445870.59547
  5  4 10 14 40 35.0000000  0  5G 2G 4G 5G 9G10
  20667323.757   108607528.38649  20667321.347    84629232.45449
  20594189.998   108223203.41749  20594189.615    84329759.89049
  21795150.908   114534292.40848  21795150.828    89247505.79748
  23835274.981   125255203.86847  23835276.387    97601457.29448
  23549457.265   123753245.72646  23549459.019    96431115.79347
  5  4 10 14 40 40.0000000  0  5G 2G 4G 5G 9G10
  20666067.066   108600924.42649  20666064.655    84624086.50749
  20595789.617   108231609.44049  20595789.235    84336310.03649
  21793145.899   114523756.01448  21793145.812    89239295.62348
  23837463.154   125266702.69847  23837464.567    97610417.40047
  23545817.255   123734117.34247  23545819.002    96416210.56548
  5  4 10 14 40 45.0000000  0  5G 2G 4G 5G 9G10
  20664804.586   108594290.04949  20664802.168    84618916.86849
  20597382.995   108239982.66849  20597382.613    84342834.62349
  21791135.358   114513190.49048  21791135.271    89231062.72948
  23839644.835   125278167.41546  23839646.256    97619350.92648
  23542169.830   123714950.08746  23542171.578    96401275.06948
  5  4 10 14 40 50.0000000  0  5G 2G 4G 5G 9G10
  20663565.661   108587779.48449  20663563.250    84613843.70349
  20598999.486   108248477.38649  20598999.111    84349453.88149
  21789148.620   114502750.08148  21789148.526    89222927.34248
  23841849.362   125289752.22246  23841850.783    97628378.03548
  23538544.398   123695898.22147  23538546.148    96386429.44548
  5  4 10 14 40 55.0000000  0  5G 2G 4G 5G 9G10
  20662350.375   108581393.08349  20662347.957    84608867.28249
  20600639.153   108257093.86449  20600638.779    84356168.01449
  21787185.761   114492435.18648  21787185.667    89214889.76148
  23844076.797   125301457.46946  23844078.231    97637499.00047
  23534940.965   123676962.08747  23534942.697    96371674.03747
  5  4 10 14 41  0.0000000  0  5G 2G 4G 5G 9G10
  20661129.424   108574976.97749  20661127.014    84603867.72549
  20602272.691   108265678.12949  20602272.317    84362857.04749
  21785217.498   114482091.92448  21785217.395    89206830.08348
  23846297.876   125313129.25846  23846299.325    97646593.88347
  23531330.281   123657987.81447  23531332.006    96356888.89347
  5  4 10 14 41  5.0000000  0  5G 2G 4G 5G 9G10
  20659902.866   108568531.33648  20659900.449    84598845.14649
  20603900.159   108274230.53449  20603899.793    84369521.26049
  21783243.887   114471720.49648  21783243.791    89198748.44048
  23848512.626   125324767.75347  23848514.083    97655662.81947
  23527712.405   123638975.65347  23527714.124    96342074.20947
  5  4 10 14 41 10.0000000  0  5G 2G 4G 5G 9G10
  20658700.012   108562210.26849  20658697.603    84593919.63049
  20605550.895   108282905.20749  20605550.535    84376280.74049
  21781294.233   114461474.99548  21781294.131    89190764.93848
  23850750.357   125336527.04546  23850751.827    97664825.88547
  23524116.639   123620079.71147  23524118.358    96327350.08847
  5  4 10 14 41 15.0000000  0  5G 2G 4G 5G 9G10
  20657433.007   108555552.14249  20657430.597    84588731.48449
  20607137.015   108291240.29749  20607136.649    84382775.61349
  21779280.694   114450893.77748  21779280.599    89182519.83048
  23852923.224   125347945.44546  23852924.708    97673723.31347
  23520455.108   123600838.36247  23520456.807    96312356.86647
  5  4 10 14 41 20.0000000  0  5G 2G 4G 5G 9G10
  20656219.090   108549172.99749  20656216.687    84583760.72549
  20608775.769   108299852.00749  20608775.410    84389486.03449
  21777320.510   114440592.97048  21777320.409    89174493.24349
  23855148.448   125359639.08046  23855149.940    97682835.23447
  23516845.115   123581867.59647  23516846.814    96297574.42447
  5  4 10 14 41 25.0000000  0  5G 2G 4G 5G 9G10
  20654999.711   108542765.11648  20654997.308    84578767.57449
  20610408.610   108308432.60949  20610408.252    84396172.21649
  21775355.131   114430264.83648  21775355.037    89166445.34448
  23857367.460   125371300.12846  23857368.958    97691921.77347
  23513228.041   123562859.80446  23513229.733    96282763.17547
  5  4 10 14 41 30.0000000  0  5G 2G 4G 5G 9G10
  20653774.908   108536328.70048  20653772.505    84573752.17749
  20612035.535   108316982.12849  20612035.171    84402834.17749
  21773384.588   114419909.56248  21773384.502    89158376.29948
  23859580.335   125382928.83346  23859581.834    97700983.10047
  23509603.971   123543815.18847  23509605.656    96267923.21647
  5  4 10 14 41 35.0000000  0  5G 2G 4G 5G 9G10
  20652574.001   108530017.92248  20652571.599    84568834.69849
  20613685.907   108325654.89049  20613685.550    84409592.17249
  21771438.225   114409681.32448  21771438.132    89150406.24148
  23861816.395   125394679.31147  23861817.907    97710139.28747
  23506002.207   123524887.88747  23506003.892    96253174.69147
  5  4 10 14 41 40.0000000  0  5G 2G 4G 5G 9G10
  20651338.421   108523524.90549  20651336.019    84563775.20449
  20615301.126   108334142.92449  20615300.769    84416206.22349
  21769457.432   114399272.27948  21769457.346    89142295.31448
  23864017.031   125406243.73446  23864018.545    97719150.53247
  23502364.193   123505770.05546  23502365.878    96238277.69447
  5  4 10 14 41 45.0000000  0  5G 2G 4G 5G 9G10
  20650156.127   108517311.91049  20650153.725    84558933.91149
  20616969.159   108342908.46649  20616968.809    84423036.50749
  21767530.219   114389144.67848  21767530.134    89134403.67048
  23866270.228   125418084.23946  23866271.749    97728376.87048
  23498777.900   123486923.95646  23498779.593    96223592.42547
  5  4 10 14 41 50.0000000  0  5G 2G 4G 5G 9G10
  20648939.213   108510916.98549  20648936.811    84553950.85049
  20618602.116   108351489.68349  20618601.761    84429723.17149
  21765568.653   114378836.58048  21765568.568    89126371.38748
  23868488.060   125429738.96347  23868489.582    97737458.46247
  23495155.404   123467887.70746  23495157.098    96208759.00647
  5  4 10 14 41 55.0000000  0  5G 2G 4G 5G 9G10
  20647746.315   108504648.22949  20647743.913    84549066.10149
  20620258.600   108360194.56549  20620258.251    84436506.19149
  21763631.375   114368656.14348  21763631.296    89118438.58148
  23870729.156   125441515.99946  23870730.683    97746635.36647
  23491555.359   123448969.34246  23491557.067    96194017.42047
  5  4 10 14 42  0.0000000  0  5G 2G 4G 5G 9G10
  20646518.852   108498197.90049  20646516.450    84544039.87549
  20621880.060   108368715.36349  20621879.706    84443145.77749
  21761659.825   114358295.64348  21761659.745    89110365.47448
  23872934.953   125453107.51146  23872936.488    97755667.70547
  23487919.191   123429861.18046  23487920.905    96179127.94547
  5  4 10 14 42  5.0000000  0  5G 2G 4G 5G 9G10
  20645286.184   108491720.18648  20645283.775    84538992.31049
  20623495.842   108377206.32549  20623495.495    84449762.10349
  21759683.357   114347909.23348  21759683.278    89102272.17049
  23875134.790   125464667.70346  23875136.331    97764675.63247
  23484276.238   123410717.45747  23484277.952    96164210.78347
  5  4 10 14 42 10.0000000  0  5G 2G 4G 5G 9G10
  20644106.969   108485523.43148  20644104.573    84534163.67749
  20625164.598   108385975.69649  20625164.251    84456595.38049
  21757760.646   114337805.28748  21757760.574    89094398.95949
  23877387.370   125476504.93446  23877388.920    97773899.41847
  23480685.237   123391846.52647  23480686.958    96149506.13847
  5  4 10 14 42 15.0000000  0  5G 2G 4G 5G 9G10
  20642922.610   108479299.55248  20642920.215    84529313.89549
  20626827.712   108394715.42049  20626827.372    84463405.55149
  21755833.054   114327675.72248  21755832.976    89086505.79648
  23879634.016   125488311.07647  23879635.579    97783098.98847
  23477087.477   123372940.29446  23477089.192    96134774.04447
  5  4 10 14 42 20.0000000  0  5G 2G 4G 5G 9G10
  20641703.803   108472894.71249  20641701.409    84524323.11949
  20628455.920   108403271.64649  20628455.581    84470072.73049
  21753871.314   114317366.67648  21753871.236    89078472.77048
  23881845.471   125499932.25446  23881847.041    97792154.43147
  23473453.746   123353844.91247  23473455.462    96119894.52847
  5  4 10 14 42 25.0000000  0  5G 2G 4G 5G 9G10
  20640509.215   108466617.10749  20640506.828    84519431.47849
  20630107.846   108411952.57849  20630107.507    84476837.09149
  21751934.079   114307186.40848  21751934.010    89070540.08948
  23884080.374   125511676.72146  23884081.946    97801305.96047
  23469842.667   123334868.59447  23469844.376    96105107.79747
  5  4 10 14 42 30.0000000  0  5G 2G 4G 5G 9G10
  20639309.553   108460312.87149  20639307.173    84514519.09449
  20631754.222   108420604.31049  20631753.891    84483578.69549
  21749992.066   114296981.03148  21749991.990    89062587.84348
  23886309.437   125523390.52446  23886311.016    97810433.59847
  23466224.983   123315857.53547  23466226.686    96090293.99248
  5  4 10 14 42 35.0000000  0  5G 2G 4G 5G 9G10
  20638163.458   108454290.07348  20638161.079    84509825.99749
  20633453.676   108429534.96749  20633453.344    84490537.64349
  21748103.906   114287058.62148  21748103.832    89054856.08648
  23888591.333   125535381.81146  23888592.925    97819777.41847
  23462659.313   123297119.78447  23462661.010    96075693.14447
  5  4 10 14 42 40.0000000  0  5G 2G 4G 5G 9G10
  20636953.745   108447933.01648  20636951.372    84504872.45249
  20635089.018   108438128.74749  20635088.687    84497234.09649
  21746152.425   114276803.51648  21746152.350    89046865.09749
  23890808.837   125547034.78046  23890810.437    97828857.63247
  23459028.493   123278039.63547  23459030.176    96060825.48947
  5  4 10 14 42 45.0000000  0  5G 2G 4G 5G 9G10
  20635739.054   108441549.77548  20635736.682    84499898.49849
  20636718.888   108446693.77449  20636718.557    84503908.14449
  21744196.246   114266523.75648  21744196.164    89038854.90548
  23893020.555   125558657.49845  23893022.161    97837914.30447
  23455391.124   123258925.19547  23455392.787    96045931.14547
  5  4 10 14 42 50.0000000  0  5G 2G 4G 5G 9G10
  20634578.028   108435448.57349  20634575.663    84495144.31849
  20638401.952   108455538.33649  20638401.629    84510800.00949
  21742294.044   114256527.61948  21742293.963    89031065.70949
  23895285.224   125570558.29246  23895286.845    97847187.61947
  23451805.917   123240084.74147  23451807.580    96031250.25847
  5  4 10 14 42 55.0000000  0  5G 2G 4G 5G 9G10
  20633412.091   108429321.50149  20633409.726    84490369.97149
  20640079.588   108464354.33849  20640079.271    84517669.61249
  21740387.213   114246507.18848  21740387.141    89023257.58949
  23897544.172   125582429.07946  23897545.793    97856437.57047
  23448214.233   123221210.34247  23448215.881    96016542.94547
  5  4 10 14 43  0.0000000  0  5G 2G 4G 5G 9G10
  20632211.900   108423014.48449  20632209.542    84485455.41749
  20641722.501   108472987.87349  20641722.177    84524397.03749
  21738446.457   114236308.47648  21738446.385    89015310.54949
  23899768.110   125594115.88946  23899769.745    97865544.15947
  23444586.809   123202148.00847  23444588.458    96001689.15847
  5  4 10 14 43  5.0000000  0  5G 2G 4G 5G 9G10
  20631036.130   108416835.77349  20631033.772    84480640.83749
  20643389.308   108481747.00749  20643388.992    84531222.33549
  21736530.424   114226239.65248  21736530.359    89007464.71248
  23902015.681   125605926.89346  23902017.317    97874747.52647
  23440982.241   123183205.93747  23440983.876    95986929.12348
  5  4 10 14 43 10.0000000  0  5G 2G 4G 5G 9G10
  20629826.194   108410477.51848  20629823.830    84475686.35849
  20645021.460   108490323.99249  20645021.145    84537905.69549
  21734580.524   114215992.85948  21734580.466    88999480.19449
  23904228.297   125617554.23646  23904229.940    97883807.78647
  23437341.976   123164076.25047  23437343.598    95972022.88747
  5  4 10 14 43 15.0000000  0  5G 2G 4G 5G 9G10
  20628640.739   108404247.91048  20628638.382    84470832.11549
  20646677.593   108499026.99549  20646677.284    84544687.24849
  21732655.419   114205876.36348  21732655.361    88991597.21348
  23906464.626   125629306.10346  23906466.270    97892965.05847
  23433724.668   123145067.16747  23433726.297    95957210.61447
  5  4 10 14 43 20.0000000  0  5G 2G 4G 5G 9G10
  20627479.773   108398147.02049  20627477.416    84466078.18649
  20648357.713   108507856.08949  20648357.413    84551567.06249
  21730755.108   114195890.19748  21730755.051    88983815.79148
  23908724.662   125641182.54546  23908726.306    97902219.40447
  23430130.330   123126178.85747  23430131.946    95942492.47348
  5  4 10 14 43 25.0000000  0  5G 2G 4G 5G 9G10
  20626314.038   108392021.01449  20626311.689    84461304.66349
  20650032.546   108516657.39449  20650032.245    84558425.22149
  21728850.347   114185880.57648  21728850.289    88976016.08048
  23910979.099   125653029.72346  23910980.745    97911450.98447
  23426529.704   123107257.40747  23426531.328    95927748.48047
  5  4 10 14 43 30.0000000  0  5G 2G 4G 5G 9G10
  20625172.828   108386023.91148  20625170.479    84456631.59849
  20651731.397   108525584.88549  20651731.098    84565381.70649
  21726970.424   114176001.51448  21726970.373    88968318.10748
  23913257.280   125665001.61046  23913258.919    97920779.72847
  23422952.082   123088456.90747  23422953.713    95913098.74347
  5  4 10 14 43 35.0000000  0  5G 2G 4G 5G 9G10
  20623968.293   108379694.03848  20623965.944    84451699.23049
  20653366.416   108534176.93849  20653366.116    84572076.80349
  21725027.503   114165791.36448  21725027.446    88960362.14549
  23915471.353   125676636.51946  23915473.007    97929845.86047
  23419309.626   123069315.70347  23419311.257    95898183.52847
  5  4 10 14 43 40.0000000  0  5G 2G 4G 5G 9G10
  20622846.962   108373801.43748  20622844.614    84447107.60249
  20655084.135   108543203.57849  20655083.835    84579110.54249
  21723168.102   114156020.17648  21723168.045    88952748.23949
  23917767.829   125688704.52046  23917769.490    97939249.47847
  23415748.859   123050603.81047  23415750.497    95883602.84448
  5  4 10 14 43 45.0000000  0  5G 2G 4G 5G 9G10
  20621662.344   108367576.22848  20621660.004    84442256.79049
  20656738.062   108551895.02649  20656737.769    84585883.09649
  21721245.746   114145918.09948  21721245.683    88944876.48948
  23920000.219   125700435.77746  23920001.886    97948390.70647
  23412123.302   123031551.44247  23412124.933    95868756.86048
  5  4 10 14 43 50.0000000  0  5G 2G 4G 5G 9G10
  20620502.394   108361480.67849  20620500.053    84437507.01649
  20658416.141   108560713.38949  20658415.849    84592754.55149
  21719348.378   114135947.36248  21719348.323    88937107.08448
  23922256.494   125712292.45746  23922258.169    97957629.64947
  23408520.909   123012620.79847  23408522.540    95854005.72348
  5  4 10 14 43 55.0000000  0  5G 2G 4G 5G 9G10
  20619337.813   108355360.76448  20619335.479    84432738.25049
  20660089.085   108569504.74049  20660088.800    84599604.94649
  21717446.709   114125954.02348  21717446.653    88929320.06548
  23924507.326   125724120.59946  23924509.009    97966846.36847
  23404912.392   122993657.97647  23404914.030    95839229.51148
  5  4 10 14 44  0.0000000  0  5G 2G 4G 5G 9G10
  20618197.929   108349370.66248  20618195.587    84428070.64749
  20661786.186   108578423.03149  20661785.908    84606554.25549
  21715570.061   114116092.17148  21715570.006    88921635.50949
  23926782.031   125736074.25546  23926783.715    97976160.91047
  23401327.089   122974817.05047  23401328.728    95824548.26448
  5  4 10 14 44  5.0000000  0  5G 2G 4G 5G 9G10
  20616994.905   108343048.73248  20616992.564    84423144.46849
  20663419.648   108587006.93249  20663419.371    84613243.01149
  21713630.607   114105900.23948  21713630.545    88913693.74049
  23928992.793   125747691.85446  23928994.483    97985213.57447
  23397677.145   122955636.43747  23397678.784    95809602.32548
  5  4 10 14 44 10.0000000  0  5G 2G 4G 5G 9G10
  20615845.972   108337010.98548  20615843.632    84418439.71949
  20665106.670   108595872.26449  20665106.394    84620151.05849
  21711745.565   114095994.28148  21711745.504    88905974.81249
  23931256.836   125759589.38946  23931258.540    97994484.35247
  23394079.801   122936732.23247  23394081.434    95794871.77548
  5  4 10 14 44 15.0000000  0  5G 2G 4G 5G 9G10
  20614692.507   108330949.51648  20614690.166    84413716.50049
  20666788.655   108604711.12249  20666788.380    84627038.47849
  21709856.341   114086066.30648  21709856.279    88898238.72249
  23933515.521   125771458.85846  23933517.232    98003733.28647
  23390476.427   122917796.37447  23390478.046    95780116.56847
  5  4 10 14 44 20.0000000  0  5G 2G 4G 5G 9G10
  20613534.527   108324864.32149  20613532.185    84408974.79549
  20668465.600   108613523.49449  20668465.332    84633905.25349
  21707962.923   114076116.36348  21707962.863    88890485.53048
  23935768.898   125783300.30746  23935770.608    98012960.36147
  23386867.046   122898829.01147  23386868.658    95765336.82047
  5  4 10 14 44 25.0000000  0  5G 2G 4G 5G 9G10
  20612430.715   108319063.78248  20612428.374    84404454.90549
  20670196.188   108622617.79749  20670195.920    84640991.72549
  21706124.023   114066452.87748  21706123.956    88882955.54549
  23938075.592   125795422.09946  23938077.303    98022405.92247
  23383310.368   122880138.51447  23383311.974    95750772.79348
  5  4 10 14 44 30.0000000  0  5G 2G 4G 5G 9G10
  20611293.170   108313085.87848  20611290.829    84399796.78749
  20671892.520   108631532.05149  20671892.246    84647937.89549
  21704251.719   114056613.85148  21704251.659    88875288.76948
  23940347.716   125807362.21946  23940349.420    98031709.92347
  23379718.458   122861262.86748  23379720.049    95736064.49547
  5  4 10 14 44 35.0000000  0  5G 2G 4G 5G 9G10
  20610151.192   108307084.77648  20610148.853    84395120.61449
  20673583.898   108640420.27049  20673583.631    84654863.77049
  21702375.328   114046753.41448  21702375.274    88867605.32049
  23942614.605   125819274.77046  23942616.310    98040992.42947
  23376120.643   122842356.25448  23376122.228    95721332.08147
  5  4 10 14 44 40.0000000  0  5G 2G 4G 5G 9G10
  20609004.798   108301060.46848  20609002.465    84390426.34949
  20675270.333   108649282.51749  20675270.068    84661769.41749
  21700494.872   114036871.57948  21700494.825    88859905.19649
  23944876.261   125831159.79047  23944877.966    98050253.47147
  23372516.939   122823418.63047  23372518.517    95706575.48747
  5  4 10 14 44 45.0000000  0  5G 2G 4G 5G 9G10
  20607854.024   108295013.04748  20607851.685    84385714.06649
  20676951.829   108658118.80849  20676951.571    84668654.82849
  21698610.377   114026968.49548  21698610.339    88852188.50649
  23947132.699   125843017.36246  23947134.399    98059493.12147
  23368907.356   122804450.20647  23368908.940    95691794.90547
  5  4 10 14 44 50.0000000  0  5G 2G 4G 5G 9G10
  20606728.167   108289096.65849  20606725.828    84381103.90049
  20678657.730   108667083.37749  20678657.473    84675640.21049
  21696751.172   114017198.27548  21696751.141    88844575.34049
  23949413.243   125855001.57446  23949414.936    98068831.44747
  23365321.248   122785605.11047  23365322.832    95677110.42247
  5  4 10 14 44 55.0000000  0  5G 2G 4G 5G 9G10
  20605597.971   108283157.43849  20605595.639    84376475.93449
  20680358.774   108676022.39449  20680358.518    84682605.67649
  21694887.968   114007407.10048  21694887.930    88836945.86548
  23951688.604   125866958.58546  23951690.298    98078148.58147
  23361729.327   122766729.50247  23361730.910    95662402.16647
  5  4 10 14 45  0.0000000  0  5G 2G 4G 5G 9G10
  20604463.425   108277195.35948  20604461.087    84371830.16349
  20682054.910   108684935.64549  20682054.646    84689551.06949
  21693020.772   113997594.85848  21693020.741    88829299.94548
  23953958.757   125878888.25646  23953960.445    98087444.42147
  23358131.588   122747823.28947  23358133.172    95647670.05848
  5  4 10 14 45  5.0000000  0  5G 2G 4G 5G 9G10
  20603353.909   108271364.81548  20603351.571    84367286.88349
  20683775.543   108693977.57349  20683775.281    84696596.71749
  21691178.945   113987915.99248  21691178.914    88821757.97249
  23956253.098   125890945.03947  23956254.780    98096839.30747
  23354557.412   122729040.92847  23354559.009    95633034.45848
  5  4 10 14 45 10.0000000  0  5G 2G 4G 5G 9G10
  20602240.115   108265511.82048  20602237.784    84362726.11249
  20685491.350   108702994.16649  20685491.088    84703622.62949
  21689333.217   113978216.56348  21689333.181    88814199.97048
  23958542.327   125902974.92047  23958544.023    98106213.21947
  23350977.503   122710228.44047  23350979.107    95618375.39148
  5  4 10 14 45 15.0000000  0  5G 2G 4G 5G 9G10
  20601092.742   108259482.30048  20601090.411    84358027.78049
  20687173.041   108711831.47949  20687172.786    84710508.83949
  21687454.231   113968342.48848  21687454.203    88806505.90048
  23960797.105   125914823.82747  23960798.807    98115446.12047
  23347362.533   122691231.74047  23347364.144    95603572.78548
  5  4 10 14 45 20.0000000  0  5G 2G 4G 5G 9G10
  20599970.419   108253584.45448  20599968.081    84353432.05749
  20688879.235   108720797.59049  20688878.988    84717495.41849
  21685600.682   113958601.98948  21685600.655    88798915.90149
  23963076.086   125926799.92246  23963077.783    98124778.14447
  23343771.176   122672359.09247  23343772.788    95588866.84248
  5  4 10 14 45 25.0000000  0  5G 2G 4G 5G 9G10
  20598843.883   108247664.50048  20598841.552    84348819.11049
  20690580.677   108729738.69849  20690580.437    84724462.50749
  21683743.284   113948841.26548  21683743.265    88791310.13748
  23965350.031   125938749.42846  23965351.743    98134089.41247
  23340174.159   122653456.67247  23340175.778    95574137.69048
  5  4 10 14 45 30.0000000  0  5G 2G 4G 5G 9G10
  20597742.443   108241876.39048  20597740.112    84344308.89449
  20692306.649   108738808.74049  20692306.409    84731530.07349
  21681911.331   113939214.28948  21681911.313    88783808.60149
  23967648.195   125950826.26747  23967649.907    98143499.91847
  23336600.782   122634678.51447  23336602.415    95559505.36548
  5  4 10 14 45 35.0000000  0  5G 2G 4G 5G 9G10
  20596578.195   108235758.26148  20596575.865    84339541.53049
  20693969.277   108747545.88249  20693969.039    84738338.23249
  21680016.946   113929259.23148  21680016.930    88776051.41748
  23969882.712   125962568.60947  23969884.425    98152649.76948
  23332963.178   122615562.77447  23332964.810    95544609.98148
  5  4 10 14 45 40.0000000  0  5G 2G 4G 5G 9G10
  20595468.417   108229926.33548  20595466.087    84334997.17549
  20695685.831   108756566.43149  20695685.599    84745367.22949
  21678177.394   113919592.31848  21678177.385    88768518.75949
  23972170.832   125974592.66647  23972172.545    98162019.14647
  23329378.588   122596725.68947  23329380.226    95529931.74048
  5  4 10 14 45 45.0000000  0  5G 2G 4G 5G 9G10
  20594383.765   108224226.45348  20594381.436    84330555.70849
  20697426.955   108765716.07049  20697426.724    84752496.81449
  21676363.342   113910059.40948  21676363.333    88761090.52048
  23974483.209   125986744.19847  23974484.924    98171487.85648
  23325817.687   122578013.06147  23325819.326    95515350.48048
  5  4 10 14 45 50.0000000  0  5G 2G 4G 5G 9G10
  20593265.652   108218350.75748  20593263.329    84325977.24749
  20699134.071   108774686.99549  20699133.841    84759487.14049
  21674516.205   113900352.61148  21674516.198    88753526.77848
  23976761.254   125998715.37647  23976762.963    98180816.04448
  23322221.902   122559117.08147  23322223.554    95500626.33248
  5  4 10 14 45 55.0000000  0  5G 2G 4G 5G 9G10
  20592172.728   108212607.37148  20592170.406    84321501.88149
  20700865.816   108783787.34549  20700865.587    84766578.31949
  21672694.625   113890780.14348  21672694.618    88746067.71349
  23979063.636   126010814.31546  23979065.345    98190243.75947
  23318649.861   122540345.90947  23318651.512    95485999.45148
  5  4 10 14 46  0.0000000  0  5G 2G 4G 5G 9G10
  20591017.091   108206534.45848  20591014.768    84316769.73749
  20702534.281   108792555.18749  20702534.058    84773410.40049
  21670810.713   113880880.11848  21670810.714    88738353.41049
  23981302.425   126022579.16847  23981304.135    98199411.16547
  23315013.687   122521237.69047  23315015.326    95471109.93848
  5  4 10 14 46  5.0000000  0  5G 2G 4G 5G 9G10
  20589915.996   108200748.16648  20589913.674    84312260.94149
  20704256.737   108801606.72049  20704256.521    84780463.53649
  21668981.709   113871268.66748  21668981.717    88730863.97248
  23983594.867   126034626.00147  23983596.577    98208798.30147
  23311430.623   122502408.56147  23311432.262    95456437.89048
  5  4 10 14 46 10.0000000  0  5G 2G 4G 5G 9G10
  20588810.836   108194940.51048  20588808.514    84307735.49449
  20705974.573   108810633.97949  20705974.359    84787497.76149
  21667149.026   113861637.88548  21667149.027    88723359.47848
  23985882.386   126046646.86947  23985884.109    98218165.17848
  23307842.065   122483550.58947  23307843.711    95441743.37248
  5  4 10 14 46 15.0000000  0  5G 2G 4G 5G 9G10
  20587701.624   108189111.56248  20587699.302    84303193.45849
  20707687.808   108819637.05749  20707687.600    84794513.13649
  21665312.691   113851987.84948  21665312.699    88715839.95848
  23988164.954   126058641.84547  23988166.664    98227511.92248
  23304248.036   122464663.87246  23304249.683    95427026.45947
  5  4 10 14 46 20.0000000  0  5G 2G 4G 5G 9G10
  20586646.977   108183569.38548  20586644.655    84298874.88449
  20709455.027   108828923.85949  20709454.828    84801749.60849
  21663531.299   113842626.60048  21663531.307    88708545.48548
  23990501.236   126070918.96947  23990502.955    98237078.48348
  23300707.152   122446056.49446  23300708.797    95412527.22048
  5  4 10 14 46 25.0000000  0  5G 2G 4G 5G 9G10
  20585529.750   108177698.31948  20585527.428    84294300.02849
  20711159.118   108837878.88749  20711158.920    84808727.54749
  21661687.713   113832938.49148  21661687.721    88700996.31049
  23992774.041   126082862.57547  23992775.766    98246385.17248
  23297102.287   122427112.80347  23297103.947    95397765.89747
  5  4 10 14 46 30.0000000  0  5G 2G 4G 5G 9G10
  20584437.828   108171960.23348  20584435.507    84289828.79249
  20712887.947   108846963.91249  20712887.756    84815806.77949
  21659869.823   113823385.41548  21659869.838    88693552.35049
  23995071.259   126094934.47347  23995072.984    98255791.83448
  23293521.297   122408294.63347  23293522.949    95383102.40547
  5  4 10 14 46 35.0000000  0  5G 2G 4G 5G 9G10
  20583341.932   108166201.22748  20583339.604    84285341.25449
  20714612.212   108856025.01449  20714612.020    84822867.38549
  21658048.346   113813813.48848  21658048.353    88686093.70648
  23997363.593   126106980.77147  23997365.318    98265178.55948
  23289934.914   122389448.16147  23289936.573    95368416.85747
  5  4 10 14 46 40.0000000  0  5G 2G 4G 5G 9G10
  20582271.363   108160575.38248  20582269.036    84280957.48749
  20716361.265   108865216.31949  20716361.080    84830029.43249
  21656252.594   113804376.78048  21656252.608    88678740.43048
  23999680.396   126119155.55748  23999682.121    98274665.38548
  23286372.483   122370727.45847  23286374.143    95353829.29948
  5  4 10 14 46 45.0000000  0  5G 2G 4G 5G 9G10
  20581167.577   108154774.97948  20581165.256    84276437.69449
  20718076.516   108874230.02849  20718076.332    84837053.10149
  21654424.024   113794767.57648  21654424.037    88671252.74048
  24001963.083   126131151.06547  24001964.801    98284012.51748
  23282775.415   122351824.80147  23282777.075    95339099.97248
  5  4 10 14 46 50.0000000  0  5G 2G 4G 5G 9G10
  20580089.170   108149107.91148  20580086.850    84272021.79949
  20719816.568   108883373.99949  20719816.386    84844178.26749
  21652621.239   113785293.81748  21652621.253    88663870.57848
  24004270.241   126143275.19847  24004271.959    98293459.88148
  23279202.317   122333048.04247  23279203.977    95324468.73248
  5  4 10 14 46 55.0000000  0  5G 2G 4G 5G 9G10
  20579036.177   108143574.39349  20579033.864    84267709.96849
  20721581.465   108892648.59549  20721581.282    84851405.22349
  21650844.255   113775955.73248  21650844.262    88656594.15648
  24006601.918   126155528.18547  24006603.630    98303007.65348
  23275653.229   122314397.52147  23275654.897    95309935.87248
  5  4 10 14 47  0.0000000  0  5G 2G 4G 5G 9G10
  20577920.676   108137712.39949  20577918.357    84263142.18349
  20723283.279   108901591.68649  20723283.110    84858373.86249
  21649005.170   113766291.24848  21649005.178    88649063.38648
  24008870.195   126167447.93547  24008871.901    98312295.74648
  23272040.231   122295411.15347  23272041.905    95295141.30748
  5  4 10 14 47  5.0000000  0  5G 2G 4G 5G 9G10
  20576830.648   108131984.26349  20576828.336    84258678.70049
  20725010.007   108910665.61049  20725009.840    84865444.43649
  21647191.948   113756762.76048  21647191.955    88641638.60448
  24011163.035   126179496.82947  24011164.740    98321684.47948
  23268451.332   122276551.36047  23268453.006    95280445.36648
  5  4 10 14 47 10.0000000  0  5G 2G 4G 5G 9G10
  20575795.355   108126543.76048  20575793.043    84254439.34749
  20726790.860   108920024.05849  20726790.701    84872736.73349
  21645433.878   113747524.01348  21645433.888    88634439.57849
  24013509.713   126191828.57947  24013511.419    98331293.61248
  23264915.774   122257971.87747  23264917.442    95265967.85548
  5  4 10 14 47 15.0000000  0  5G 2G 4G 5G 9G10
  20574726.914   108120929.06549  20574724.602    84250064.26049
  20728537.979   108929205.22849  20728537.819    84879890.88949
  21643643.060   113738113.20048  21643643.084    88627106.47449
  24015822.305   126203981.36447  24015824.012    98340763.32248
  23261345.691   122239210.90047  23261347.353    95251348.90448
  5  4 10 14 47 20.0000000  0  5G 2G 4G 5G 9G10
  20573596.054   108114986.35648  20573593.742    84245433.57849
  20730222.108   108938055.38549  20730221.948    84886787.11749
  21641790.233   113728376.55748  21641790.263    88619519.48448
  24018071.577   126215801.33547  24018073.285    98349973.68948
  23257711.793   122220114.64147  23257713.449    95236468.70548
  5  4 10 14 47 25.0000000  0  5G 2G 4G 5G 9G10
  20572578.602   108109639.61149  20572576.283    84241267.28649
  20732019.079   108947498.50449  20732018.927    84894145.38349
  21640051.228   113719238.02848  21640051.267    88612398.55348
  24020433.365   126228212.49347  24020435.073    98359644.69048
  23254189.919   122201607.12747  23254191.569    95222047.28848
  5  4 10 14 47 30.0000000  0  5G 2G 4G 5G 9G10
  20571469.454   108103810.99748  20571467.142    84236725.50849
  20733723.761   108956456.66649  20733723.616    84901125.76849
  21638220.956   113709619.85148  21638220.996    88604903.86748
  24022702.544   126240136.95147  24022704.253    98368936.44648
  23250574.988   122182610.53847  23250576.645    95207244.74948
  5  4 10 14 47 35.0000000  0  5G 2G 4G 5G 9G10
  20570415.151   108098270.59848  20570412.832    84232408.31649
  20735482.708   108965699.96549  20735482.563    84908328.33249
  21636445.922   113700291.98448  21636445.962    88597635.40248
  24025025.615   126252344.76947  24025027.324    98378449.03748
  23247013.502   122163894.89547  23247015.160    95192661.15648
  5  4 10 14 47 40.0000000  0  5G 2G 4G 5G 9G10
  20569357.101   108092710.50449  20569354.789    84228075.77349
  20737237.316   108974920.45749  20737237.171    84915513.12749
  21634667.550   113690946.63748  21634667.598    88590353.32749
  24027344.033   126264528.07747  24027345.735    98387942.51148
  23243446.920   122145152.35147  23243448.586    95178056.57048
  5  4 10 14 47 45.0000000  0  5G 2G 4G 5G 9G10
  20568295.277   108087130.58449  20568292.965    84223727.78249
  20738987.566   108984118.05449  20738987.429    84922680.07749
  21632885.837   113681583.67248  21632885.892    88583057.50848
  24029657.772   126276686.73547  24029659.476    98397416.76648
  23239875.179   122126382.78947  23239876.845    95163430.95148
  5  4 10 14 47 50.0000000  0  5G 2G 4G 5G 9G10
  20567229.733   108081531.14649  20567227.428    84219364.58849
  20740733.487   108993292.93249  20740733.357    84929829.33049
  21631100.822   113672203.35948  21631100.878    88575748.17448
  24031966.842   126288820.94547  24031968.546    98406871.99148
  23236298.365   122107586.50447  23236300.031    95148784.49748
  5  4 10 14 47 55.0000000  0  5G 2G 4G 5G 9G10
  20566189.836   108076066.44749  20566187.524    84215106.38549
  20742504.453   109002599.42349  20742504.331    84937081.13949
  21629341.876   113662960.03048  21629341.930    88568545.57848
  24034300.626   126301085.00448  24034302.324    98416428.39248
  23232745.816   122088917.76346  23232747.489    95134237.42848
  5  4 10 14 48  0.0000000  0  5G 2G 4G 5G 9G10
  20565087.650   108070274.42448  20565085.346    84210593.11849
  20744212.551   109011575.50749  20744212.422    84944075.48949
  21627521.073   113653391.61748  21627521.127    88561089.66448
  24036571.188   126313016.82347  24036572.880    98425725.90648
  23229129.620   122069914.58947  23229131.287    95119429.78048
  5  4 10 14 48  5.0000000  0  5G 2G 4G 5G 9G10
  20564069.751   108064925.32548  20564067.440    84206424.99349
  20746004.319   109020991.27749  20746004.197    84951412.44349
  21625784.988   113644268.36448  21625785.035    88553980.62648
  24038925.093   126325386.64647  24038926.785    98435364.72548
  23225596.352   122051347.17246  23225598.026    95104961.66848
  5  4 10 14 48 10.0000000  0  5G 2G 4G 5G 9G10
  20563018.898   108059403.05749  20563016.587    84202121.92749
  20747762.543   109030230.77749  20747762.422    84958612.04949
  21624016.356   113634974.17248  21624016.403    88546738.40348
  24041245.113   126337578.37347  24041246.800    98444864.76548
  23222028.771   122032599.46747  23222030.437    95090353.08148
  5  4 10 14 48 15.0000000  0  5G 2G 4G 5G 9G10
  20561964.420   108053861.73549  20561962.109    84197804.01649
  20749516.540   109039448.09049  20749516.432    84965794.36749
  21622244.542   113625663.19648  21622244.590    88539483.09448
  24043560.567   126349746.10047  24043562.254    98454346.09948
  23218456.212   122013825.57746  23218457.878    95075724.08148
  5  4 10 14 48 20.0000000  0  5G 2G 4G 5G 9G10
  20560906.367   108048301.62949  20560904.056    84193471.46549
  20751266.374   109048643.50049  20751266.267    84972959.61749
  21620469.582   113616335.75048  21620469.630    88532214.96049
  24045871.518   126361890.13947  24045873.206    98463808.96848
  23214878.739   121995025.85747  23214880.398    95061074.95948
  5  4 10 14 48 25.0000000  0  5G 2G 4G 5G 9G10
  20559844.725   108042722.66349  20559842.420    84189124.21349
  20753012.004   109057816.84849  20753011.904    84980107.67749
  21618691.470   113606991.67648  21618691.511    88524933.86249
  24048177.920   126374010.32947  24048179.606    98473253.26048
  23211296.324   121976200.17447  23211297.990    95046405.59848
  5  4 10 14 48 30.0000000  0  5G 2G 4G 5G 9G10
  20558808.811   108037278.93248  20558806.499    84184882.35349
  20754782.773   109067122.27149  20754782.674    84987358.65149
  21616939.529   113597785.16448  21616939.570    88517759.95748
  24050509.115   126386260.78047  24050510.795    98482799.05948
  23207738.310   121957502.68247  23207739.976    95031836.12448
  5  4 10 14 48 35.0000000  0  5G 2G 4G 5G 9G10
  20557769.351   108031816.53048  20557767.040    84180625.94249
  20756549.369   109076405.79749  20756549.277    84994592.56649
  21615184.461   113588562.25348  21615184.503    88510573.27948
  24052835.819   126398487.50747  24052837.507    98492326.33648
  23204175.386   121938779.42447  23204177.052    95017246.58048
  5  4 10 14 48 40.0000000  0  5G 2G 4G 5G 9G10
  20556726.349   108026335.52148  20556724.045    84176355.02049
  20758311.839   109085667.60549  20758311.747    85001809.55349
  21613426.308   113579323.09648  21613426.351    88503373.94049
  24055158.019   126410690.65547  24055159.700    98501835.26548
  23200607.610   121920030.60247  23200609.277    95002637.10748
  5  4 10 14 48 45.0000000  0  5G 2G 4G 5G 9G10
  20555679.814   108020835.94248  20555677.504    84172069.64049
  20760070.164   109094907.63549  20760070.072    85009009.57249
  21611665.062   113570067.68548  21611665.111    88496161.92848
  24057475.721   126422870.19647  24057477.401    98511325.80248
  23197034.950   121901256.18047  23197036.626    94988007.69748
  5  4 10 14 48 50.0000000  0  5G 2G 4G 5G 9G10
  20554659.102   108015472.06348  20554656.791    84167889.99049
  20761853.669   109104280.02049  20761853.584    85016312.72449
  21609930.080   113560950.32348  21609930.137    88489057.49949
  24059818.275   126435180.40148  24059819.942    98520918.17748
  23193486.792   121882610.45347  23193488.463    94973478.56148
  5  4 10 14 48 55.0000000  0  5G 2G 4G 5G 9G10
  20553605.598   108009935.86048  20553603.287    84163576.06949
  20763603.789   109113476.92749  20763603.705    85023479.14349
  21608162.759   113551663.02148  21608162.823    88481820.64548
  24062127.085   126447313.25048  24062128.753    98530372.34248
  23189904.499   121863785.43446  23189906.169    94958809.72948
  5  4 10 14 49  0.0000000  0  5G 2G 4G 5G 9G10
  20552577.939   108004535.47648  20552575.635    84159367.97549
  20765379.135   109122806.40649  20765379.052    85030748.86149
  21606421.744   113542513.92848  21606421.817    88474691.48548
  24064460.771   126459576.81948  24064462.438    98539928.36148
  23186346.726   121845089.24547  23186348.405    94944241.27948
  5  4 10 14 49  5.0000000  0  5G 2G 4G 5G 9G10
  20551576.119   107999270.87748  20551573.808    84155265.69349
  20767179.708   109132268.48049  20767179.631    85038121.90249
  21604707.007   113533502.98648  21604707.087    88467669.98249
  24066819.362   126471971.14248  24066821.037    98549586.23948
  23182813.483   121826521.92547  23182815.162    94929773.24348
  5  4 10 14 49 10.0000000  0  5G 2G 4G 5G 9G10
  20550541.531   107993834.08249  20550539.228    84151029.22749
  20768946.893   109141555.06749  20768946.823    85045358.19449
  21602959.972   113524322.25248  21602960.066    88460516.16148
  24069144.199   126484188.18148  24069145.874    98559105.99848
  23179246.158   121807775.50547  23179247.838    94915165.64848
  5  4 10 14 49 15.0000000  0  5G 2G 4G 5G 9G10
  20549503.514   107988379.26749  20549501.211    84146778.72449
  20770710.043   109150820.45149  20770709.974    85052577.97349
  21601209.975   113515125.89448  21601210.076    88453350.14948
  24071464.659   126496382.12448  24071466.334    98568607.73848
  23175674.088   121789004.15147  23175675.770    94900538.62348
  5  4 10 14 49 20.0000000  0  5G 2G 4G 5G 9G10
  20548462.057   107982906.40549  20548459.754    84142514.16049
  20772469.134   109160064.54049  20772469.066    85059781.15849
  21599456.981   113505913.91548  21599457.090    88446171.99548
  24073780.684   126508552.88948  24073782.368    98578091.44548
  23172097.256   121770207.83747  23172098.939    94885892.16248
  5  4 10 14 49 25.0000000  0  5G 2G 4G 5G 9G10
  20547446.517   107977569.70449  20547444.213    84138355.69149
  20774253.521   109169441.52649  20774253.460    85067087.89249
  21597730.374   113496840.50148  21597730.482    88439101.79748
  24076121.651   126520854.69048  24076123.335    98587677.25148
  23168545.044   121751540.80747  23168546.722    94871346.42748
  5  4 10 14 49 30.0000000  0  5G 2G 4G 5G 9G10
  20546456.879   107972369.08849  20546454.575    84134303.25749
  20776063.167   109178951.27949  20776063.113    85074498.08649
  21596030.117   113487905.61848  21596030.224    88432139.55448
  24078487.547   126533287.46448  24078489.232    98597365.11148
  23165017.421   121733002.98747  23165019.098    94856901.36648
  5  4 10 14 49 35.0000000  0  5G 2G 4G 5G 9G10
  20545405.269   107966842.87648  20545402.965    84129997.12149
  20777810.244   109188132.19649  20777810.189    85081652.03949
  21594268.365   113478647.55248  21594268.473    88424925.47848
  24080790.487   126545389.49448  24080792.172    98606795.26548
  23161426.521   121714132.71247  23161428.192    94842197.26948
  5  4 10 14 49 40.0000000  0  5G 2G 4G 5G 9G10
  20544408.935   107961607.07248  20544406.631    84125917.27049
  20779611.946   109197600.20449  20779611.891    85089029.70949
  21592562.351   113469682.35848  21592562.460    88417939.60748
  24083147.727   126557776.77948  24083149.412    98616447.67448
  23157889.588   121695546.00847  23157891.260    94827714.12348
  5  4 10 14 49 45.0000000  0  5G 2G 4G 5G 9G10
  20543409.241   107956353.61149  20543406.930    84121823.66149
  20781409.673   109207047.29149  20781409.619    85096391.07449
  21590853.449   113460701.95048  21590853.550    88410941.87748
  24085500.620   126570141.22548  24085502.312    98626082.28148
  23154347.978   121676934.81647  23154349.650    94813211.91648
  5  4 10 14 49 50.0000000  0  5G 2G 4G 5G 9G10
  20542406.195   107951082.60349  20542403.884    84117716.38649
  20783203.415   109216473.43949  20783203.369    85103736.11649
  21589141.656   113451706.45048  21589141.758    88403932.40448
  24087849.170   126582482.90448  24087850.853    98635699.16748
  23150801.741   121658299.24347  23150803.407    94798690.70648
  5  4 10 14 49 55.0000000  0  5G 2G 4G 5G 9G10
  20541399.846   107945794.20249  20541397.536    84113595.55749
  20784993.225   109225878.92649  20784993.179    85111065.05949
  21587427.030   113442696.06248  21587427.131    88396911.32548
  24090193.445   126594801.99847  24090195.135    98645298.42248
  23147250.914   121639639.49347  23147252.581    94784150.63548
  5  4 10 14 50  0.0000000  0  5G 2G 4G 5G 9G10
  20540360.878   107940334.42049  20540358.568    84109341.18849
  20786749.779   109235109.67649  20786749.740    85118257.85249
  21585680.269   113433516.73948  21585680.370    88389758.59948
  24092504.096   126606944.46047  24092505.780    98654760.06248
  23143666.170   121620801.53248  23143667.830    94769471.71048
  5  4 10 14 50  5.0000000  0  5G 2G 4G 5G 9G10
  20539377.225   107935165.32148  20539374.915    84105313.32549
  20788561.007   109244627.71549  20788560.969    85125674.49849
  21583989.294   113424630.60648  21583989.396    88382834.34348
  24094869.052   126619372.35547  24094870.735    98664444.12748
  23140135.468   121602247.50548  23140137.122    94755014.02248
  5  4 10 14 50 10.0000000  0  5G 2G 4G 5G 9G10
  20538331.668   107929670.81948  20538329.359    84101031.88649
  20790309.687   109253817.05749  20790309.649    85132835.02149
  21582236.884   113415421.63048  21582236.984    88375658.51249
  24097171.081   126631469.62847  24097172.750    98673870.58748
  23136541.546   121583361.32148  23136543.202    94740297.51948
  5  4 10 14 50 15.0000000  0  5G 2G 4G 5G 9G10
  20537341.452   107924467.20048  20537339.143    84096977.11749
  20792113.077   109263293.93849  20792113.047    85140219.60149
  21580540.294   113406506.02048  21580540.396    88368711.29749
  24099527.491   126643852.52047  24099529.153    98683519.57047
  23133001.694   121564759.30348  23133003.343    94725802.45048
  5  4 10 14 50 20.0000000  0  5G 2G 4G 5G 9G10
  20536377.279   107919400.43748  20536374.977    84093028.99049
  20793941.874   109272904.29949  20793941.844    85147708.18849
  21578870.238   113397729.81548  21578870.340    88361872.69648
  24101908.926   126656366.98747  24101910.587    98693271.08448
  23129486.628   121546287.41048  23129488.278    94711408.75348
  5  4 10 14 50 25.0000000  0  5G 2G 4G 5G 9G10
  20535321.944   107913854.61448  20535319.636    84088707.57449
  20795678.868   109282032.26249  20795678.844    85154820.88149
  21577109.497   113388477.09348  21577109.606    88354662.78648
  24104198.191   126668397.09148  24104199.852    98702645.17648
  23125879.101   121527329.76148  23125880.745    94696636.57048
  5  4 10 14 50 30.0000000  0  5G 2G 4G 5G 9G10
  20534351.287   107908753.74448  20534348.979    84084732.86649
  20797499.906   109291601.85049  20797499.882    85162277.69949
  21575433.934   113379671.85248  21575434.043    88347801.54148
  24106571.099   126680866.83947  24106572.759    98712361.86848
  23122354.962   121508810.34747  23122356.606    94682205.87348
  5  4 10 14 50 35.0000000  0  5G 2G 4G 5G 9G10
  20533377.374   107903635.79548  20533375.059    84080744.85649
  20799317.038   109301150.94249  20799317.014    85169718.55049
  21573755.590   113370852.12848  21573755.691    88340929.03549
  24108939.767   126693314.20847  24108941.419    98722061.10348
  23118826.315   121490267.21447  23118827.954    94667756.69548
  5  4 10 14 50 40.0000000  0  5G 2G 4G 5G 9G10
  20532370.935   107898346.95649  20532368.627    84076623.68649
  20801101.017   109310525.78749  20801100.993    85177023.61649
  21572045.222   113361864.11748  21572045.317    88333925.39949
  24111274.899   126705585.38047  24111276.551    98731623.04748
  23115263.887   121471546.53047  23115265.540    94653169.14348
  5  4 10 14 50 45.0000000  0  5G 2G 4G 5G 9G10
  20531390.604   107893195.28148  20531388.296    84072609.39549
  20802910.444   109320034.39149  20802910.428    85184432.91849
  21570361.451   113353015.81048  21570361.546    88327030.60848
  24113635.118   126717988.32047  24113636.771    98741287.65648
  23111726.296   121452956.36547  23111727.949    94638683.30148
  5  4 10 14 50 50.0000000  0  5G 2G 4G 5G 9G10
  20530436.360   107888180.66449  20530434.052    84068701.89249
  20804745.300   109329676.59349  20804745.284    85191946.31449
  21568704.261   113344307.15248  21568704.356    88320244.63148
  24116020.398   126730522.99247  24116022.050    98751054.91748
  23108213.524   121434496.62147  23108215.164    94624299.09548
  5  4 10 14 50 55.0000000  0  5G 2G 4G 5G 9G10
  20529420.292   107882841.21949  20529417.984    84064541.29449
  20806517.670   109338990.46149  20806517.662    85199203.87449
  21566985.727   113335276.25648  21566985.822    88313207.58348
  24118342.859   126742727.45047  24118344.519    98760564.84948
  23104637.686   121415705.40147  23104639.320    94609656.58048
  5  4 10 14 51  0.0000000  0  5G 2G 4G 5G 9G10
  20528430.339   107877638.98548  20528428.031    84060487.60549
  20808315.529   109348438.24049  20808315.527    85206565.76749
  21565293.805   113326385.17748  21565293.901    88306279.48048
  24120690.375   126755063.76047  24120692.034    98770177.56348
  23101086.690   121397044.79347  23101088.317    94595115.84948
  5  4 10 14 51  5.0000000  0  5G 2G 4G 5G 9G10
  20527466.490   107872573.92049  20527464.182    84056540.80449
  20810138.831   109358019.75549  20810138.822    85214031.88749
  21563628.478   113317633.88948  21563628.581    88299460.30448
  24123062.982   126767531.86047  24123064.633    98779892.96047
  23097560.555   121378514.79747  23097562.177    94580676.89248
  5  4 10 14 51 10.0000000  0  5G 2G 4G 5G 9G10
  20526499.467   107867492.21349  20526497.166    84052581.03349
  20811958.313   109367581.19749  20811958.311    85221482.35949
  21561960.500   113308868.60748  21561960.603    88292630.21549
  24125431.394   126779977.88948  24125433.045    98789591.14547
  23094029.977   121359961.57747  23094031.591    94566219.86148
  5  4 10 14 51 15.0000000  0  5G 2G 4G 5G 9G10
  20525529.339   107862394.15449  20525527.038    84048608.52149
  20813774.014   109377122.77249  20813774.018    85228917.34749
  21560289.911   113300089.60148  21560290.021    88285789.42848
  24127795.660   126792402.15747  24127797.304    98799272.39147
  23090495.062   121341385.47547  23090496.670    94551744.98048
  5  4 10 14 51 20.0000000  0  5G 2G 4G 5G 9G10
  20524526.772   107857125.63348  20524524.472    84044503.18349
  20815556.629   109386490.44849  20815556.634    85236216.83049
  21558587.386   113291142.80348  21558587.495    88278817.90248
  24130126.472   126804650.53247  24130128.115    98808816.54847
  23086926.469   121322632.39447  23086928.072    94537132.19948
  5  4 10 14 51 25.0000000  0  5G 2G 4G 5G 9G10
  20523579.716   107852148.81849  20523577.415    84040625.14349
  20817394.106   109396146.45249  20817394.111    85243740.98949
  21556940.895   113282490.40448  21556941.005    88272075.76748
  24132511.741   126817185.24147  24132513.384    98818583.85747
  23083412.147   121304164.53647  23083413.749    94522741.66648
  5  4 10 14 51 30.0000000  0  5G 2G 4G 5G 9G10
  20522570.954   107846847.70849  20522568.653    84036494.40149
  20819169.194   109405474.60449  20819169.206    85251009.67649
  21555233.192   113273516.39748  21555233.309    88265083.03748
  24134834.262   126829390.17147  24134835.897    98828094.19447
  23079834.884   121285365.89647  23079836.480    94508093.37848
  5  4 10 14 51 35.0000000  0  5G 2G 4G 5G 9G10
  20521617.709   107841838.39948  20521615.407    84032591.04949
  20820999.155   109415091.08349  20820999.167    85258503.02849
  21553581.533   113264836.86848  21553581.650    88258319.77148
  24137211.278   126841881.41247  24137212.920    98837827.60847
  23076311.900   121266852.51647  23076313.502    94493667.37348
  5  4 10 14 51 40.0000000  0  5G 2G 4G 5G 9G10
  20520632.108   107836659.03648  20520629.809    84028555.18749
  20822796.097   109424534.04549  20822796.116    85265861.17149
  21551898.026   113255989.97748  21551898.142    88251426.08849
  24139554.905   126854197.12847  24139556.545    98847424.23847
  23072755.341   121248162.61047  23072756.944    94479103.80048
  5  4 10 14 51 45.0000000  0  5G 2G 4G 5G 9G10
  20519702.066   107831771.62849  20519699.765    84024746.81549
  20824647.936   109434265.49249  20824647.955    85273444.11349
  21550270.595   113247437.77448  21550270.706    88244762.03848
  24141953.024   126866799.29547  24141954.657    98857244.10547
  23069253.101   121229758.21847  23069254.705    94464762.71448
  5  4 10 14 51 50.0000000  0  5G 2G 4G 5G 9G10
  20518739.691   107826714.28248  20518737.392    84020806.02649
  20826466.732   109443823.35949  20826466.751    85280891.80749
  21548611.350   113238718.35048  21548611.461    88237967.67548
  24144317.765   126879226.00048  24144319.397    98866927.22647
  23065717.284   121211177.46547  23065718.880    94450284.23048
  5  4 10 14 51 55.0000000  0  5G 2G 4G 5G 9G10
  20517774.261   107821640.91649  20517771.970    84016852.75249
  20828281.835   109453361.75949  20828281.854    85288324.31949
  21546949.581   113229985.66148  21546949.692    88231162.97948
  24146678.401   126891631.16648  24146680.033    98876593.57247
  23062177.208   121192574.27247  23062178.811    94435788.23948
  5  4 10 14 52  0.0000000  0  5G 2G 4G 5G 9G10
  20516805.790   107816551.56849  20516803.493    84012887.03149
  20830093.225   109462880.68149  20830093.251    85295741.65949
  21545285.285   113221239.72648  21545285.389    88224347.97048
  24149034.937   126904014.78147  24149036.561    98886243.13247
  23058632.872   121173948.69047  23058634.477    94421274.81348
  5  4 10 14 52  5.0000000  0  5G 2G 4G 5G 9G10
  20515863.617   107811600.41348  20515861.319    84009028.98949
  20831930.261   109472534.36849  20831930.286    85303264.01149
  21543647.825   113212634.75348  21543647.922    88217642.78448
  24151416.713   126916531.06848  24151418.330    98895996.07747
  23055113.638   121155454.96047  23055115.249    94406864.10148
  5  4 10 14 52 10.0000000  0  5G 2G 4G 5G 9G10
  20514918.450   107806633.52748  20514916.166    84005158.68349
  20833763.621   109482168.71049  20833763.640    85310771.28849
  21542007.888   113204016.82948  21542007.986    88210927.52048
  24153794.445   126929026.07248  24153796.055    98905732.43147
  23051590.197   121136939.12447  23051591.802    94392436.17548
  5  4 10 14 52 15.0000000  0  5G 2G 4G 5G 9G10
  20513970.298   107801650.95449  20513968.007    84001276.16149
  20835593.299   109491783.73149  20835593.324    85318263.50549
  21540365.494   113195385.95748  21540365.585    88204202.16248
  24156168.111   126941499.77248  24156169.714    98915452.19947
  23048062.538   121118401.21047  23048064.137    94377991.06948
  5  4 10 14 52 20.0000000  0  5G 2G 4G 5G 9G10
  20513019.202   107796652.88149  20513016.912    83997381.55449
  20837419.363   109501379.76249  20837419.395    85325740.93049
  21538720.670   113186742.38148  21538720.760    88197466.91148
  24158537.795   126953952.42148  24158539.398    98925155.53347
  23044530.743   121099841.44547  23044532.350    94363528.89848
  5  4 10 14 52 25.0000000  0  5G 2G 4G 5G 9G10
  20512035.860   107791485.38549  20512033.570    83993354.93249
  20839212.522   109510802.84949  20839212.555    85333083.59149
  21537044.147   113177932.19148  21537044.238    88190601.83248
  24160874.141   126966230.03147  24160875.736    98934722.51047
  23040965.470   121081105.93147  23040967.069    94348929.82648
  5  4 10 14 52 30.0000000  0  5G 2G 4G 5G 9G10
  20511108.207   107786610.53249  20511105.917    83989556.34749
  20841060.688   109520514.99349  20841060.721    85340651.48949
  21535423.848   113169417.46248  21535423.939    88183966.97848
  24163265.145   126978794.68547  24163266.745    98944513.10647
  23037454.699   121062656.77047  23037456.300    94334553.87448
  5  4 10 14 52 35.0000000  0  5G 2G 4G 5G 9G10
  20510177.626   107781720.33048  20510175.343    83985745.80549
  20842905.234   109530208.17749  20842905.280    85348204.61949
  21533801.151   113160890.16648  21533801.250    88177322.33848
  24165652.129   126991338.30947  24165653.729    98954287.34247
  23033939.822   121044185.93347  23033941.422    94320161.00648
  5  4 10 14 52 40.0000000  0  5G 2G 4G 5G 9G10
  20509244.174   107776814.97449  20509241.885    83981923.44849
  20844746.234   109539882.66649  20844746.280    85355743.17649
  21532176.123   113152350.61848  21532176.230    88170668.15548
  24168035.168   127003861.20047  24168036.774    98964045.41847
  23030420.864   121025693.65048  23030422.470    94305751.42548
  5  4 10 14 52 45.0000000  0  5G 2G 4G 5G 9G10
  20508278.564   107771740.65749  20508276.281    83977969.43249
  20846554.392   109549384.60449  20846554.438    85363147.28149
  21530519.494   113143644.93948  21530519.602    88163884.50749
  24170384.965   127016209.46747  24170386.569    98973667.43847
  23026868.567   121007026.17247  23026870.173    94291205.33148
  5  4 10 14 52 50.0000000  0  5G 2G 4G 5G 9G10
  20507339.420   107766805.42549  20507337.139    83974123.80149
  20848388.332   109559022.02349  20848388.371    85370656.95949
  21528889.852   113135081.14748  21528889.960    88157211.42848
  24172760.174   127028691.15247  24172761.784    98983393.39147
  23023341.518   120988491.50247  23023343.117    94276762.75048
  5  4 10 14 52 55.0000000  0  5G 2G 4G 5G 9G10
  20506426.742   107762009.30249  20506424.460    83970386.56649
  20850248.055   109568794.90449  20850248.094    85378272.18349
  21527287.240   113126659.33348  21527287.356    88150648.96948
  24175160.771   127041306.24847  24175162.381    98993223.30847
  23019839.759   120970089.69647  23019841.350    94262423.69448
  5  4 10 14 53  0.0000000  0  5G 2G 4G 5G 9G10
  20505481.967   107757044.44149  20505479.686    83966517.84149
  20852074.986   109578395.48749  20852075.031    85385753.15449
  21525653.053   113118071.65248  21525653.169    88143957.27848
  24177528.154   127053746.89747  24177529.769    99002917.30347
  23016304.726   120951512.97147  23016306.324    94247948.32148
  5  4 10 14 53  5.0000000  0  5G 2G 4G 5G 9G10
  20504593.021   107752373.00149  20504590.747    83962877.75649
  20853957.064   109588285.84549  20853957.110    85393459.92149
  21524075.254   113109780.23248  21524075.370    88137496.42248
  24179950.292   127066475.25947  24179951.906    99012835.49047
  23012824.329   120933223.42447  23012825.925    94233696.73448
  5  4 10 14 53 10.0000000  0  5G 2G 4G 5G 9G10
  20503613.402   107747225.06849  20503611.128    83958866.37949
  20855747.778   109597696.08049  20855747.825    85400792.56749
  21522407.339   113101015.21648  21522407.454    88130666.52448
  24182280.625   127078721.39747  24182282.218    99022377.97546
  23009252.078   120914451.21247  23009253.674    94219069.05648
  5  4 10 14 53 15.0000000  0  5G 2G 4G 5G 9G10
  20502689.639   107742370.63049  20502687.359    83955083.69849
  20857593.639   109607396.14149  20857593.691    85408351.05049
  21520795.809   113092546.60348  21520795.918    88124067.61648
  24184665.768   127091255.31147  24184667.366    99032144.63246
  23005734.534   120895966.36547  23005736.125    94204665.27848
  5  4 10 14 53 20.0000000  0  5G 2G 4G 5G 9G10
  20501763.123   107737501.75749  20501760.843    83951289.77149
  20859436.063   109617078.14549  20859436.108    85415895.47149
  21519182.089   113084066.41348  21519182.197    88117459.66848
  24187047.041   127103769.02047  24187048.638    99041895.57446
  23002213.054   120877460.92647  23002214.645    94190245.47148
  5  4 10 14 53 25.0000000  0  5G 2G 4G 5G 9G10
  20500833.852   107732618.37349  20500831.565    83947484.53249
  20861275.034   109626741.97149  20861275.086    85423425.71449
  21517566.148   113075574.64848  21517566.256    88110842.72248
  24189424.479   127116262.47547  24189426.067    99051630.71746
  22998687.669   120858934.80847  22998689.266    94175809.51048
  5  4 10 14 53 30.0000000  0  5G 2G 4G 5G 9G10
  20499931.164   107727874.71248  20499928.876    83943788.17249
  20863139.892   109636541.86849  20863139.944    85431061.99749
  21515977.371   113067225.53648  21515977.479    88104336.91648
  24191827.416   127128889.86947  24191828.995    99061470.21546
  22995187.683   120840542.28947  22995189.281    94161477.68448
  5  4 10 14 53 35.0000000  0  5G 2G 4G 5G 9G10
  20498996.468   107722962.85349  20498994.174    83939960.75349
  20864972.058   109646169.93549  20864972.117    85438564.37749
  21514357.154   113058711.20948  21514357.256    88097702.37149
  24194197.231   127141343.33147  24194198.796    99071174.21546
  22991654.550   120821975.54747  22991656.148    94147010.09748
  5  4 10 14 53 40.0000000  0  5G 2G 4G 5G 9G10
  20498088.404   107718190.94648  20498086.110    83936242.38649
  20866830.147   109655934.25849  20866830.205    85446172.93849
  21512764.119   113050339.78748  21512764.221    88091179.19248
  24196592.572   127153930.96647  24196594.123    99080982.77247
  22988146.878   120803542.63947  22988148.475    94132646.79548
  5  4 10 14 53 45.0000000  0  5G 2G 4G 5G 9G10
  20497177.684   107713405.07749  20497175.397    83932513.13549
  20868684.879   109665680.94249  20868684.938    85453767.75849
  21511169.008   113041957.38748  21511169.117    88084647.44448
  24198984.197   127166498.85347  24198985.753    99090775.87847
  22984635.404   120785089.75047  22984637.009    94118267.92848
  5  4 10 14 53 50.0000000  0  5G 2G 4G 5G 9G10
  20496264.288   107708605.18249  20496262.001    83928772.96249
  20870536.235   109675409.88349  20870536.293    85461348.74949
  21509571.772   113033563.88848  21509571.874    88078107.06548
  24201372.017   127179046.87047  24201373.565    99100553.54047
  22981120.090   120766616.71247  22981121.688    94103873.36848
  5  4 10 14 53 55.0000000  0  5G 2G 4G 5G 9G10
  20495348.293   107703791.59549  20495346.005    83925022.11449
  20872384.292   109685121.45449  20872384.350    85468916.20049
  21507972.506   113025159.68948  21507972.616    88071558.33748
  24203756.094   127191575.34147  24203757.628    99110316.00246
  22977601.030   120748123.92847  22977602.629    94089463.41047
  5  4 10 14 54  0.0000000  0  5G 2G 4G 5G 9G10
  20494429.698   107698964.31448  20494427.411    83921260.59249
  20874229.036   109694815.65349  20874229.094    85476470.11849
  21506371.206   113016744.83248  21506371.316    88065001.31448
  24206136.443   127204084.31747  24206137.956    99120063.29946
  22974078.217   120729611.48347  22974079.814    94075038.13547
  5  4 10 14 54  5.0000000  0  5G 2G 4G 5G 9G10
  20493537.788   107694277.32648  20493535.507    83917608.39649
  20876099.771   109704646.39949  20876099.828    85484130.43149
  21504797.163   113008473.21048  21504797.273    88058555.90448
  24208542.384   127216727.64947  24208543.889    99129915.25546
  22970580.960   120711233.30447  22970582.557    94060717.48448
  5  4 10 14 54 10.0000000  0  5G 2G 4G 5G 9G10
  20492614.024   107689422.91448  20492611.737    83913825.74149
  20877937.935   109714306.01649  20877937.999    85491657.40249
  21503191.847   113000037.18848  21503191.964    88051982.36748
  24210915.372   127229197.72646  24210916.883    99139632.17446
  22967050.703   120692681.70846  22967052.298    94046261.69548
  5  4 10 14 54 15.0000000  0  5G 2G 4G 5G 9G10
  20491746.308   107684863.03649  20491744.021    83910272.59049
  20879831.442   109724256.43049  20879831.506    85499410.96649
  21501643.149   112991898.72548  21501643.259    88045640.70948
  24213343.292   127241956.43946  24213344.801    99149574.00046
  22963575.353   120674418.65346  22963576.949    94032030.75148
  5  4 10 14 54 20.0000000  0  5G 2G 4G 5G 9G10
  20490846.753   107680135.84349  20490844.472    83906589.05749
  20881692.387   109734035.76349  20881692.451    85507031.22749
  21500063.198   112983595.96648  21500063.307    88039171.01048
  24215738.210   127254541.94246  24215739.705    99159380.91846
  22960067.020   120655982.30247  22960068.616    94017664.77848
  5  4 10 14 54 25.0000000  0  5G 2G 4G 5G 9G10
  20489944.678   107675395.40749  20489942.398    83902895.21349
  20883550.098   109743798.06749  20883550.163    85514638.21449
  21498481.292   112975282.99148  21498481.393    88032693.36848
  24218129.522   127267108.27846  24218131.016    99169172.84346
  22956555.050   120637526.77547  22956556.653    94003283.84547
  5  4 10 14 54 30.0000000  0  5G 2G 4G 5G 9G10
  20489040.094   107670641.78848  20489037.807    83899191.09849
  20885404.599   109753543.50849  20885404.665    85522232.05749
  21496897.462   112966959.93848  21496897.562    88026207.87648
  24220517.175   127279655.50946  24220518.654    99178949.91546
  22953039.434   120619052.15146  22953041.039    93988888.05548
  5  4 10 14 54 35.0000000  0  5G 2G 4G 5G 9G10
  20488133.009   107665875.02349  20488130.722    83895476.73649
  20887255.863   109763271.96449  20887255.934    85529812.66649
  21495311.718   112958626.79748  21495311.812    88019714.52448
  24222901.246   127292183.66847  24222902.732    99188712.06546
  22949520.181   120600558.44447  22949521.792    93974477.39048
  5  4 10 14 54 40.0000000  0  5G 2G 4G 5G 9G10
  20487252.781   107661249.39549  20487250.494    83891872.35049
  20889133.287   109773137.86149  20889133.359    85537500.37349
  21493753.409   112950437.86248  21493753.510    88013333.54049
  24225310.970   127304847.04246  24225312.448    99198579.66946
  22946026.674   120582199.97047  22946028.284    93960172.09148
  5  4 10 14 54 45.0000000  0  5G 2G 4G 5G 9G10
  20486340.823   107656456.99049  20486338.537    83888138.00649
  20890978.250   109782833.20649  20890978.321    85545055.18649
  21492163.959   112942085.21348  21492164.061    88006824.97848
  24227687.824   127317337.61746  24227689.280    99208312.61846
  22942500.327   120563668.86047  22942501.951    93945732.25047
  5  4 10 14 54 50.0000000  0  5G 2G 4G 5G 9G10
  20485455.728   107651805.78648  20485453.442    83884513.69049
  20892849.364   109792665.97949  20892849.435    85552717.08449
  21490601.965   112933876.88048  21490602.061    88000428.88148
  24230090.459   127329963.42546  24230091.915    99218150.87946
  22938999.721   120545273.08347  22939001.345    93931397.88748
  5  4 10 14 54 55.0000000  0  5G 2G 4G 5G 9G10
  20484597.525   107647295.89649  20484595.238    83880999.48949
  20894746.643   109802636.21449  20894746.707    85560486.09649
  21489067.456   112925812.92048  21489067.558    87994145.25548
  24232518.789   127342724.54446  24232520.237    99228094.64246
  22935524.880   120527012.70147  22935526.503    93917169.02248
  5  4 10 14 55  0.0000000  0  5G 2G 4G 5G 9G10
  20483707.596   107642619.29049  20483705.316    83877355.37649
  20896611.473   109812435.96649  20896611.538    85568122.26649
  21487501.825   112917585.40748  21487501.920    87987734.19948
  24234914.315   127355312.95846  24234915.776    99237903.75246
  22932017.230   120508579.81447  22932018.846    93902805.72048
  5  4 10 14 55  5.0000000  0  5G 2G 4G 5G 9G10
  20482844.551   107638083.98649  20482842.271    83873821.38149
  20898502.465   109822373.19349  20898502.529    85575865.55749
  21485963.647   112909502.32548  21485963.742    87981435.71148
  24237335.523   127368036.64846  24237336.982    99247818.34646
  22928535.324   120490282.40247  22928536.933    93888548.02747
  5  4 10 14 55 10.0000000  0  5G 2G 4G 5G 9G10
  20481920.522   107633228.15049  20481918.235    83870037.60949
  20900331.734   109831986.06749  20900331.804    85583356.10349
  21484365.083   112901101.84448  21484365.178    87974889.88948
  24239694.636   127380433.77946  24239696.109    99257478.41946
  22924991.337   120471658.68447  22924992.952    93874036.04748
  5  4 10 14 55 15.0000000  0  5G 2G 4G 5G 9G10
  20481052.736   107628667.90448  20481050.449    83866484.16949
  20902216.536   109841890.73949  20902216.614    85591074.02149
  21482823.378   112893000.09748  21482823.466    87968576.83548
  24242108.845   127393120.47046  24242110.318    99267364.13946
  22921502.493   120453324.78147  22921504.115    93859749.90448
  5  4 10 14 55 20.0000000  0  5G 2G 4G 5G 9G10
  20480211.889   107624249.22549  20480209.603    83863041.04549
  20904127.546   109851933.13249  20904127.624    85598899.25949
  21481309.210   112885043.09248  21481309.298    87962376.57248
  24244548.832   127405942.68845  24244550.304    99277355.47346
  22918039.490   120435126.67347  22918041.113    93845569.58547
  5  4 10 14 55 25.0000000  0  5G 2G 4G 5G 9G10
  20479339.374   107619664.12849  20479337.088    83859468.24249
  20906006.168   109861805.32449  20906006.239    85606591.87349
  21479763.988   112876922.86348  21479764.076    87956049.11548
  24246956.040   127418592.39946  24246957.519    99287212.33346
  22914543.743   120416756.39847  22914545.373    93831255.08347
  5  4 10 14 55 30.0000000  0  5G 2G 4G 5G 9G10
  20478464.547   107615066.87949  20478462.261    83855885.97149
  20907881.729   109871661.46449  20907881.800    85614271.98149
  21478217.044   112868793.61848  21478217.132    87949714.63848
  24249359.717   127431223.87145  24249361.195    99297055.05046
  22911044.584   120398368.19447  22911046.214    93816926.60947
  5  4 10 14 55 35.0000000  0  5G 2G 4G 5G 9G10
  20477587.383   107610457.35049  20477585.096    83852294.12949
  20909754.218   109881501.46149  20909754.290    85621939.51349
  21476668.389   112860655.34848  21476668.478    87943373.12548
  24251759.941   127443837.01145  24251761.441    99306883.43646
  22907542.000   120379962.05347  22907543.628    93802584.17148
  5  4 10 14 55 40.0000000  0  5G 2G 4G 5G 9G10
  20476707.891   107605835.62049  20476705.611    83848692.78649
  20911623.656   109891325.39049  20911623.720    85629594.51849
  21475118.012   112852508.03248  21475118.102    87937024.56448
  24254156.683   127456431.81545  24254158.215    99316697.51345
  22904036.000   120361537.96047  22904037.622    93788227.75548
  5  4 10 14 55 45.0000000  0  5G 2G 4G 5G 9G10
  20475884.701   107601509.73049  20475882.422    83845321.96349
  20913548.651   109901441.31149  20913548.723    85637477.05249
  21473624.532   112844659.77348  21473624.616    87930909.05149
  24256608.509   127469316.34345  24256610.048    99326737.41945
  22900585.225   120343404.01547  22900586.854    93774097.40448
  5  4 10 14 55 50.0000000  0  5G 2G 4G 5G 9G10
  20474971.295   107596709.68549  20474969.016    83841581.65749
  20915382.692   109911079.23149  20915382.756    85644987.11249
  21472041.440   112836340.56848  21472041.531    87924426.55348
  24258968.984   127481720.59945  24258970.549    99336403.02645
  22897043.157   120324790.25947  22897044.779    93759593.17147
  5  4 10 14 55 55.0000000  0  5G 2G 4G 5G 9G10
  20474114.192   107592205.61249  20474111.913    83838071.99349
  20917272.317   109921009.24449  20917272.381    85652724.77949
  21470515.283   112828320.59248  21470515.374    87918177.22648
  24261384.574   127494414.67245  24261386.139    99346294.52845
  22893556.296   120306466.80847  22893557.905    93745315.18947
  5  4 10 14 56  0.0000000  0  5G 2G 4G 5G 9G10
  20473254.822   107587689.58848  20473252.542    83834553.01449
  20919158.924   109930923.39849  20919158.988    85660450.08849
  21468987.484   112820291.92148  21468987.576    87911921.11748
  24263796.727   127507090.62445  24263798.298    99356171.88545
  22890066.116   120288125.75747  22890067.730    93731023.44547
  5  4 10 14 56  5.0000000  0  5G 2G 4G 5G 9G10
  20472393.198   107583161.72649  20472390.919    83831024.81149
  20921042.539   109940821.86249  20921042.610    85668163.17349
  21467458.053   112812254.67448  21467458.145    87905658.31948
  24266205.474   127519748.54845  24266207.053    99366035.17546
  22886572.605   120269767.29547  22886574.225    93716718.15748
  5  4 10 14 56 10.0000000  0  5G 2G 4G 5G 9G10
  20471558.600   107578775.88449  20471556.321    83827607.26949
  20922952.437   109950858.44749  20922952.516    85675983.88649
  21465956.273   112804362.73848  21465956.365    87899508.75348
  24268640.043   127532542.38745  24268641.634    99376004.41246
  22883105.052   120251545.27346  22883106.665    93702519.20248
  5  4 10 14 56 15.0000000  0  5G 2G 4G 5G 9G10
  20470692.458   107574224.27649  20470690.185    83824060.56049
  20924830.051   109960725.34249  20924830.122    85683672.37249
  21464423.551   112796308.26148  21464423.630    87893232.55348
  24271041.923   127545164.28745  24271043.540    99385839.62846
  22879604.876   120233151.81747  22879606.488    93688186.65648
  5  4 10 14 56 20.0000000  0  5G 2G 4G 5G 9G10
  20469853.370   107569814.83849  20469851.097    83820624.63549
  20926733.970   109970730.50249  20926734.042    85691468.60349
  21462918.534   112788399.28148  21462918.612    87887069.69248
  24273469.657   127557922.11945  24273471.296    99395780.78746
  22876130.711   120214894.98947  22876132.323    93673960.56548
  5  4 10 14 56 25.0000000  0  5G 2G 4G 5G 9G10
  20468982.733   107565239.61148  20468980.461    83817059.52649
  20928605.592   109980565.91549  20928605.671    85699132.55149
  21461382.579   112780327.78048  21461382.649    87880780.21348
  24275864.670   127570507.96345  24275866.336    99405587.92246
  22872623.942   120196466.79347  22872625.561    93659600.92948
  5  4 10 14 56 30.0000000  0  5G 2G 4G 5G 9G10
  20468168.499   107560960.78349  20468166.227    83813725.37149
  20930532.872   109990693.80549  20930532.950    85707024.40549
  21459903.663   112772555.99648  21459903.734    87874724.27248
  24278314.905   127583383.97445  24278316.587    99415621.16346
  22869172.512   120178329.49748  22869174.131    93645467.99348
  5  4 10 14 56 35.0000000  0  5G 2G 4G 5G 9G10
  20467322.760   107556516.36249  20467320.496    83810262.18149
  20932427.885   110000652.13449  20932427.964    85714784.13649
  21458393.855   112764621.90248  21458393.919    87868541.86248
  24280732.427   127596088.16845  24280734.137    99425520.53246
  22865688.538   120160021.09347  22865690.157    93631201.70348
  5  4 10 14 56 40.0000000  0  5G 2G 4G 5G 9G10
  20466445.511   107551906.42049  20466443.247    83806670.02449
  20934290.651   110010441.06749  20934290.736    85722411.87849
  21456853.185   112756525.62348  21456853.241    87862233.07448
  24283117.300   127608620.54545  24283119.039    99435285.96646
  22862172.019   120141541.63147  22862173.640    93616802.12048
  5  4 10 14 56 45.0000000  0  5G 2G 4G 5G 9G10
  20465624.690   107547593.00549  20465622.425    83803308.92849
  20936209.084   110020522.50249  20936209.170    85730267.54449
  21455369.575   112748729.20248  21455369.632    87856157.94548
  24285557.360   127621443.17445  24285559.104    99445277.62446
  22858710.844   120123353.15747  22858712.458    93602629.31648
  5  4 10 14 56 50.0000000  0  5G 2G 4G 5G 9G10
  20464772.387   107543114.06449  20464770.123    83799818.83249
  20938095.272   110030434.48649  20938095.357    85737991.16449
  21453855.099   112740770.60648  21453855.150    87849956.45448
  24287964.741   127634093.98644  24287966.492    99455135.37946
  22855217.185   120104993.70247  22855218.792    93588323.21448
  5  4 10 14 56 55.0000000  0  5G 2G 4G 5G 9G10
  20463947.211   107538777.73149  20463944.946    83796439.86949
  20940007.871   110040485.19749  20940007.956    85745822.87549
  21452368.416   112732958.00248  21452368.466    87843868.70348
  24290398.075   127646881.21245  24290399.845    99465099.43046
  22851749.574   120086771.40647  22851751.168    93574124.05947
  5  4 10 14 57  0.0000000  0  5G 2G 4G 5G 9G10
  20463090.580   107534276.10649  20463088.315    83792932.11049
  20941888.230   110050366.55149  20941888.315    85753522.63249
  21450850.905   112724983.43148  21450850.943    87837654.76148
  24292798.689   127659496.80646  24292800.460    99474929.82646
  22848249.471   120068378.33347  22848251.051    93559791.82148
  5  4 10 14 57  5.0000000  0  5G 2G 4G 5G 9G10
  20462290.394   107530071.10149  20462288.129    83789655.48249
  20943824.274   110060540.56449  20943824.359    85761450.43849
  21449390.490   112717308.86748  21449390.534    87831674.56848
  24295254.597   127672402.59345  24295256.388    99484986.25646
  22844804.795   120050276.43847  22844806.373    93545686.44348
  5  4 10 14 57 10.0000000  0  5G 2G 4G 5G 9G10
  20461458.759   107525700.83149  20461456.487    83786250.07749
  20945728.109   110070545.25349  20945728.194    85769246.29349
  21447899.272   112709472.46348  21447899.310    87825568.28648
  24297677.882   127685136.82645  24297679.695    99494908.97846
  22841327.654   120032003.94247  22841329.232    93531448.13148
  5  4 10 14 57 15.0000000  0  5G 2G 4G 5G 9G10
  20460654.265   107521473.21849  20460651.999    83782955.83449
  20947658.328   110080688.59149  20947658.420    85777150.18249
  21446435.839   112701782.07048  21446435.877    87819575.77148
  24300127.064   127698007.39645  24300128.897    99504937.98846
  22837876.618   120013868.68547  22837878.195    93517316.77348
  5  4 10 14 57 20.0000000  0  5G 2G 4G 5G 9G10
  20459789.039   107516926.39549  20459786.775    83779412.85249
  20949527.059   110090508.80749  20949527.158    85784802.29149
  21444912.313   112693775.85648  21444912.344    87813337.16048
  24302514.279   127710552.38444  24302516.125    99514713.31846
  22834363.819   119995408.80447  22834365.390    93502932.45648
  5  4 10 14 57 25.0000000  0  5G 2G 4G 5G 9G10
  20458980.297   107512676.45349  20458978.038    83776101.21049
  20951451.500   110100621.81149  20951451.598    85792682.55349
  21443445.913   112686069.90348  21443445.944    87807332.52948
  24304956.816   127723387.78545  24304958.677    99524714.88046
  22830906.478   119977240.41347  22830908.042    93488775.28548
  5  4 10 14 57 30.0000000  0  5G 2G 4G 5G 9G10
  20458140.124   107508261.31949  20458137.860    83772660.85349
  20953343.737   110110565.58549  20953343.835    85800430.94849
  21441948.749   112678202.25648  21441948.781    87801201.89748
  24307366.683   127736051.72245  24307368.551    99534582.88246
  22827416.694   119958901.53947  22827418.251    93474485.27148
  5  4 10 14 57 35.0000000  0  5G 2G 4G 5G 9G10
  20457356.441   107504143.03449  20457354.182    83769451.79449
  20955291.704   110120802.22149  20955291.803    85808407.54849
  21440508.730   112670634.87348  21440508.756    87795305.23348
  24309831.829   127749006.05845  24309833.712    99544677.14546
  22823982.395   119940854.17547  22823983.959    93460422.38648
  5  4 10 14 57 40.0000000  0  5G 2G 4G 5G 9G10
  20456512.033   107499705.64149  20456509.767    83765994.08649
  20957178.180   110130715.69049  20957178.273    85816132.32749
  21439008.645   112662751.83848  21439008.670    87789162.60048
  24312235.072   127761634.96544  24312236.981    99554517.78646
  22820486.346   119922482.38047  22820487.903    93446106.71848
  5  4 10 14 57 45.0000000  0  5G 2G 4G 5G 9G10
  20455665.520   107495257.18749  20455663.262    83762527.75849
  20959061.786   110140614.07349  20959061.877    85823845.34249
  21437507.114   112654861.20848  21437507.132    87783014.05348
  24314634.960   127774246.30645  24314636.889    99564344.76146
  22816987.188   119904094.23847  22816988.743    93431778.30448
  5  4 10 14 57 50.0000000  0  5G 2G 4G 5G 9G10
  20454875.521   107491105.71349  20454873.255    83759292.84449
  20961001.133   110150805.41349  20961001.232    85831786.64349
  21436062.745   112647271.00148  21436062.756    87777099.60848
  24317090.089   127787148.22445  24317092.012    99574398.23346
  22813543.544   119885997.76847  22813545.107    93417677.15748
  5  4 10 14 57 55.0000000  0  5G 2G 4G 5G 9G10
  20454083.429   107486943.24249  20454081.164    83756049.36249
  20962937.610   110160981.63549  20962937.709    85839716.16149
  21434616.953   112639673.31248  21434616.956    87771179.32848
  24319541.951   127800032.71745  24319543.887    99584438.06647
  22810096.804   119867885.05848  22810098.359    93403563.36448
  5  4 10 14 58  0.0000000  0  5G 2G 4G 5G 9G10
  20453230.665   107482461.90549  20453228.400    83752557.40649
  20964812.638   110170834.97449  20964812.744    85847394.08749
  21433111.154   112631760.25648  21433111.158    87765013.30548
  24321931.891   127812591.87746  24321933.829    99594224.41747
  22806588.381   119849448.26747  22806589.937    93389197.05548
  5  4 10 14 58  5.0000000  0  5G 2G 4G 5G 9G10
  20452463.737   107478431.67049  20452461.471    83749416.96149
  20966772.728   110181135.28249  20966772.834    85855420.29649
  21431691.861   112624301.75848  21431691.857    87759201.47748
  24324406.442   127825595.60246  24324408.387    99604357.16247
  22803164.828   119831457.31347  22803166.378    93375178.12248
  5  4 10 14 58 10.0000000  0  5G 2G 4G 5G 9G10
  20451636.083   107474082.35249  20451633.817    83746027.88649
  20968671.329   110191112.50149  20968671.435    85863194.74949
  21430212.492   112616527.68448  21430212.482    87753143.77448
  24326819.041   127838273.80545  24326820.995    99614236.26247
  22799679.548   119813142.04347  22799681.098    93360906.48548
  5  4 10 14 58 15.0000000  0  5G 2G 4G 5G 9G10
  20450806.372   107469722.19149  20450804.106    83742630.35849
  20970567.087   110201074.80849  20970567.192    85870957.58949
  21428731.747   112608746.28248  21428731.729    87747080.34148
  24329228.338   127850934.68445  24329230.300    99624101.87047
  22796191.204   119794810.73148  22796192.754    93346622.36348
  5  4 10 14 58 20.0000000  0  5G 2G 4G 5G 9G10
  20450003.913   107465505.20949  20450001.641    83739344.39649
  20972489.322   110211176.18849  20972489.421    85878828.79349
  21427278.915   112601111.60148  21427278.904    87741131.23348
  24331663.672   127863732.23246  24331665.649    99634073.93547
  22792729.122   119776617.42947  22792730.666    93332445.78248
  5  4 10 14 58 25.0000000  0  5G 2G 4G 5G 9G10
  20449258.014   107461585.48049  20449255.741    83736290.06249
  20974467.330   110221570.68949  20974467.428    85886928.40349
  21425883.318   112593777.68848  21425883.307    87735416.49848
  24334154.302   127876820.54946  24334156.287    99644272.61947
  22789322.630   119758716.16147  22789324.166    93318496.73648
  5  4 10 14 58 30.0000000  0  5G 2G 4G 5G 9G10
  20448451.464   107457347.03449  20448449.199    83732987.37549
  20976383.910   110231642.32349  20976384.008    85894776.41449
  21424427.738   112586128.56148  21424427.727    87729456.14148
  24336583.033   127889583.55246  24336585.018    99654217.80547
  22785854.502   119740491.05847  22785856.038    93304295.36348
  5  4 10 14 58 35.0000000  0  5G 2G 4G 5G 9G10
  20447642.886   107453097.93049  20447640.621    83729676.38449
  20978297.669   110241699.19449  20978297.780    85902612.93049
  21422970.806   112578472.33348  21422970.796    87723490.25048
  24339008.492   127902329.36346  24339010.486    99664149.59647
  22782383.354   119722250.14847  22782384.877    93290081.69548
  5  4 10 14 58 40.0000000  0  5G 2G 4G 5G 9G10
  20446861.570   107448992.08349  20446859.297    83726477.02349
  20980237.905   110251895.17349  20980238.010    85910557.84649
  21421541.811   112570962.91748  21421541.801    87717638.75348
  24341459.981   127915211.89946  24341461.976    99674187.91447
  22778938.504   119704147.36647  22778940.026    93275975.63648
  5  4 10 14 58 45.0000000  0  5G 2G 4G 5G 9G10
  20446048.940   107444721.65349  20446046.661    83723149.41549
  20982146.027   110261922.45449  20982146.139    85918371.31449
  21420082.180   112563292.50148  21420082.170    87711661.80848
  24343878.890   127927923.23047  24343880.887    99684092.82447
  22775461.361   119685874.92148  22775462.883    93261737.37948
  5  4 10 14 58 50.0000000  0  5G 2G 4G 5G 9G10
  20445263.543   107440594.36649  20445261.272    83719933.34649
  20984080.623   110272088.82649  20984080.727    85926293.16349
  21418650.485   112555768.86248  21418650.467    87705799.22748
  24346323.799   127940771.18846  24346325.797    99694104.19847
  22772010.509   119667740.54148  22772012.024    93247606.69048
  5  4 10 14 58 55.0000000  0  5G 2G 4G 5G 9G10
  20444476.103   107436456.34049  20444473.824    83716708.91349
  20986012.381   110282240.27949  20986012.484    85934203.38549
  21417217.419   112548238.01848  21417217.402    87699931.03448
  24348765.385   127953601.74546  24348767.377    99704102.02947
  22768556.626   119649590.29748  22768558.135    93233463.65248
  5  4 10 14 59  0.0000000  0  5G 2G 4G 5G 9G10
  20443686.659   107432307.78349  20443684.388    83713476.27049
  20987941.349   110292377.01349  20987941.460    85942102.12549
  21415783.038   112540700.26248  21415783.014    87694057.45448
  24351203.732   127966415.19046  24351205.733    99714086.49947
  22765099.785   119631424.50248  22765101.294    93219308.50048
  5  4 10 14 59  5.0000000  0  5G 2G 4G 5G 9G10
  20442895.222   107428148.75449  20442892.951    83710235.46949
  20989867.518   110302499.10149  20989867.629    85949989.46549
  21414347.342   112533155.66448  21414347.311    87688178.55549
  24353638.798   127979211.51646  24353640.806    99724057.65647
  22761639.993   119613243.17648  22761641.510    93205141.23148
  5  4 10 14 59 10.0000000  0  5G 2G 4G 5G 9G10
  20442131.117   107424133.35749  20442128.847    83707106.58949
  20991820.240   110312760.72149  20991820.358    85957985.53149
  21412939.679   112525758.31148  21412939.648    87682414.37848
  24356099.948   127992144.88546  24356101.965    99734135.59447
  22758206.566   119595200.51847  22758208.076    93191082.04948
  5  4 10 14 59 15.0000000  0  5G 2G 4G 5G 9G10
  20441335.652   107419953.15649  20441333.381    83703849.29249
  20993740.815   110322853.41549  20993740.927    85965849.97349
  21411501.337   112518199.80648  21411501.306    87676524.64048
  24358528.485   128004906.77846  24358530.510    99744079.89347
  22754740.858   119576988.03448  22754742.375    93176890.48848
  5  4 10 14 59 20.0000000  0  5G 2G 4G 5G 9G10
  20440567.496   107415916.46949  20440565.225    83700703.82249
  20995687.908   110333085.42749  20995688.020    85973822.96049
  21410091.008   112510788.47748  21410090.978    87670749.58248
  24360983.051   128017805.54746  24360985.083    99754130.86747
  22751301.501   119558914.12548  22751303.005    93162806.93748
  5  4 10 14 59 25.0000000  0  5G 2G 4G 5G 9G10
  20439826.669   107412023.36849  20439824.399    83697670.22849
  20997661.521   110343456.86449  20997661.633    85981904.60649
  21408708.700   112503524.40048  21408708.677    87665089.25848
  24363463.683   128030841.22746  24363465.723    99764288.51647
  22747888.514   119540978.78748  22747890.018    93148831.35648
  5  4 10 14 59 30.0000000  0  5G 2G 4G 5G 9G10
  20439025.259   107407811.96049  20439022.989    83694388.62049
  20999573.777   110353505.77449  20999573.889    85989734.91349
  21407266.516   112495945.70348  21407266.494    87659183.78948
  24365882.466   128043551.89646  24365884.507    99774192.90947
  22744414.027   119522720.20547  22744415.538    93134603.88148
  5  4 10 14 59 35.0000000  0  5G 2G 4G 5G 9G10
  20438251.193   107403744.24749  20438248.922    83691218.97749
  21001512.564   110363694.13549  21001512.675    85997673.88749
  21405852.382   112488514.37749  21405852.367    87653393.14648
  24368327.299   128056399.57947  24368329.335    99784204.09947
  22740965.926   119504600.37347  22740967.430    93120484.54948
  5  4 10 14 59 40.0000000  0  5G 2G 4G 5G 9G10
  20437475.191   107399666.26949  20437472.921    83688041.32349
  21003448.591   110373868.02449  21003448.702    86005601.59649
  21404437.000   112481076.46648  21404436.986    87647597.36548
  24370768.912   128069230.30847  24370770.942    99794202.07147
  22737514.938   119486465.33947  22737516.435    93106353.36348
  5  4 10 14 59 45.0000000  0  5G 2G 4G 5G 9G10
  20436726.533   107395732.07249  20436724.262    83684975.72049
  21005411.188   110384181.51049  21005411.306    86013638.06549
  21403049.692   112473786.04648  21403049.676    87641916.50248
  24373236.617   128082198.09246  24373238.655    99804306.82148
  22734090.379   119468469.19247  22734091.869    93092330.39848
  5  4 10 14 59 50.0000000  0  5G 2G 4G 5G 9G10
  20435975.930   107391787.62649  20435973.659    83681902.12549
  21007371.016   110394480.51149  21007371.134    86021663.26549
  21401661.119   112466489.04648  21401661.090    87636230.53548
  24375701.098   128095148.93646  24375703.131    99814398.37448
  22730662.934   119450457.91147  22730664.417    93078295.65148
  5  4 10 14 59 55.0000000  0  5G 2G 4G 5G 9G10
  20435194.098   107387679.04249  20435191.821    83678700.62749
  21009298.816   110404611.13549  21009298.927    86029557.25649
  21400242.017   112459031.61648  21400241.973    87630419.55348
  24378133.024   128107928.82646  24378135.065    99824356.73847
  22727203.328   119432277.65248  22727204.817    93064129.23048
  5  4 10 15  0  0.0000000  0  5G 2G 4G 5G 9G10
  20434439.624   107383714.28649  20434437.347    83675611.21649
  21011253.174   110414881.32749  21011253.292    86037559.99049
  21398851.008   112451721.75249  21398850.965    87624723.54248
  24380591.068   128120845.77646  24380593.116    99834421.85947
  22723770.168   119414236.33848  22723771.651    93050071.08148
  5  4 10 15  0  5.0000000  0  5G 2G 4G 5G 9G10
  20433653.913   107379585.31649  20433651.636    83672393.83049
  21013175.490   110424983.13349  21013175.609    86045431.52549
  21397429.447   112444251.45948  21397429.395    87618902.54748
  24383016.574   128133591.80246  24383018.624    99844353.81647
  22720304.856   119396025.99848  22720306.338    93035881.20348
  5  4 10 15  0 10.0000000  0  5G 2G 4G 5G 9G10
  20432924.863   107375754.16149  20432922.585    83669408.51949
  21015153.669   110435378.53449  21015153.780    86053531.84049
  21396065.280   112437082.71848  21396065.230    87613316.51748
  24385497.450   128146628.86046  24385499.501    99854512.56047
  22716895.290   119378108.64048  22716896.773    93021919.63548
  5  4 10 15  0 15.0000000  0  5G 2G 4G 5G 9G10
  20432164.598   107371758.94649  20432162.314    83666295.36649
  21017099.817   110445605.58049  21017099.929    86061500.96049
  21394670.628   112429753.67448  21394670.577    87607605.55448
  24387945.811   128159495.02346  24387947.870    99864538.12847
  22713453.595   119360022.41347  22713455.078    93007826.47248
  5  4 10 15  0 20.0000000  0  5G 2G 4G 5G 9G10
  20431402.424   107367753.66149  20431400.147    83663174.35649
  21019043.225   110455818.25849  21019043.336    86069458.88949
  21393274.757   112422418.35548  21393274.693    87601889.73548
  24390390.997   128172344.40546  24390393.064    99874550.59947
  22710009.070   119341921.34048  22710010.554    92993721.75448
  5  4 10 15  0 25.0000000  0  5G 2G 4G 5G 9G10
  20430638.365   107363738.50549  20430636.088    83660045.66349
  21020983.962   110466016.86749  21020984.073    86077405.85249
  21391877.735   112415076.95448  21391877.671    87596169.16448
  24392832.978   128185177.07346  24392835.046    99884550.07847
  22706561.760   119323805.66748  22706563.244    92979605.65548
  5  4 10 15  0 30.0000000  0  5G 2G 4G 5G 9G10
  20429901.786   107359867.75649  20429899.509    83657029.49649
  21022951.373   110476355.64849  21022951.491    86085462.03549
  21390508.915   112407883.75848  21390508.850    87590564.07348
  24395301.144   128198147.31246  24395303.206    99894656.75047
  22703141.036   119305829.60948  22703142.520    92965598.33148
  5  4 10 15  0 35.0000000  0  5G 2G 4G 5G 9G10
  20429133.948   107355832.74149  20429131.671    83653885.32649
  21024886.693   110486525.85849  21024886.811    86093386.88049
  21389109.554   112400530.10048  21389109.490    87584833.95849
  24397736.787   128210946.48047  24397738.851    99904630.08847
  22699688.126   119287684.57148  22699689.610    92951459.36748
  5  4 10 15  0 40.0000000  0  5G 2G 4G 5G 9G10
  20428393.490   107351941.60349  20428391.211    83650853.26849
  21026848.592   110496835.67449  21026848.709    86101420.49349
  21387738.290   112393324.08648  21387738.233    87579218.88849
  24400198.447   128223882.59147  24400200.505    99914710.18247
  22696261.711   119269678.66948  22696263.194    92937428.79848
  5  4 10 15  0 45.0000000  0  5G 2G 4G 5G 9G10
  20427651.140   107348040.52949  20427648.854    83647813.47249
  21028807.765   110507131.19949  21028807.876    86109442.98349
  21386365.867   112386111.95648  21386365.810    87573599.04649
  24402656.949   128236801.95346  24402659.009    99924777.18847
  22692832.505   119251658.10448  22692833.988    92923386.80548
  5  4 10 15  0 50.0000000  0  5G 2G 4G 5G 9G10
  20426936.228   107344283.64049  20426933.942    83644886.02849
  21030793.566   110517566.62349  21030793.683    86117574.47249
  21385021.603   112379047.83048  21385021.553    87568094.53948
  24405141.548   128249858.54547  24405143.616    99934951.14447
  22689429.833   119233777.00347  22689431.302    92909453.49948
  5  4 10 15  0 55.0000000  0  5G 2G 4G 5G 9G10
  20426190.156   107340363.00649  20426187.870    83641830.98649
  21032747.368   110527833.91849  21032747.478    86125574.96549
  21383646.915   112371823.79948  21383646.872    87562465.41848
  24407593.670   128262744.53346  24407595.744    99944992.17147
  22685995.107   119215727.45947  22685996.568    92895388.93348
  5  4 10 15  1  0.0000000  0  5G 2G 4G 5G 9G10
  20425442.183   107336432.38349  20425439.898    83638768.16549
  21034698.457   110538086.93249  21034698.575    86133564.31849
  21382271.051   112364593.61648  21382271.007    87556831.51448
  24410042.616   128275613.64546  24410044.692    99955020.01647
  22682557.603   119197663.25548  22682559.077    92881312.91848
  5  4 10 15  1  5.0000000  0  5G 2G 4G 5G 9G10
  20424721.688   107332646.15649  20424719.403    83635817.85749
  21036676.201   110548480.04449  21036676.317    86141662.84349
  21380923.408   112357511.67348  21380923.366    87551313.11548
  24412517.693   128288620.19847  24412519.763    99965154.98647
  22679146.685   119179738.85448  22679148.152    92867345.87448
  5  4 10 15  1 10.0000000  0  5G 2G 4G 5G 9G10
  20423970.028   107328696.15649  20423967.743    83632739.93649
  21038621.951   110558705.06449  21038622.068    86149630.40049
  21379545.340   112350269.84448  21379545.297    87545670.12348
  24414960.285   128301456.07646  24414962.357    99975156.96847
  22675703.726   119161646.04148  22675705.192    92853247.59348
  5  4 10 15  1 15.0000000  0  5G 2G 4G 5G 9G10
  20423216.496   107324736.28949  20423214.211    83629654.32049
  21040565.016   110568915.90749  21040565.133    86157586.89349
  21378166.133   112343022.03048  21378166.090    87540022.47048
  24417399.698   128314275.18446  24417401.772    99985145.86847
  22672258.027   119143538.80248  22672259.493    92839138.06448
  5  4 10 15  1 20.0000000  0  5G 2G 4G 5G 9G10
  20422490.442   107320920.81848  20422488.150    83626681.22149
  21042534.742   110579266.79249  21042534.867    86165652.49849
  21376815.140   112335922.51548  21376815.091    87534490.38549
  24419865.283   128327231.73247  24419867.370    99995241.83247
  22668838.940   119125571.37947  22668840.413    92825137.47248
  5  4 10 15  1 25.0000000  0  5G 2G 4G 5G 9G10
  20421762.549   107317095.77549  20421760.256    83623700.67849
  21044501.784   110589603.72849  21044501.908    86173707.26549
  21375463.055   112328817.29448  21375462.999    87528953.85648
  24422327.705   128340171.78246  24422329.786   100005324.98447
  22665417.151   119107589.79047  22665418.625    92811125.85048
  5  4 10 15  1 30.0000000  0  5G 2G 4G 5G 9G10
  20421032.860   107313261.20349  20421030.567    83620712.69449
  21046466.193   110599926.79949  21046466.310    86181751.22649
  21374109.911   112321706.47548  21374109.862    87523412.95648
  24424786.983   128353095.25147  24424789.066   100015395.19947
  22661992.673   119089594.10047  22661994.147    92797103.24948
  5  4 10 15  1 35.0000000  0  5G 2G 4G 5G 9G10
  20420359.951   107309725.04449  20420357.660    83617957.24949
  21048486.578   110610543.93449  21048486.703    86190024.30449
  21372814.288   112314897.98848  21372814.231    87518107.65948
  24427301.701   128366310.15246  24427303.779   100025692.52947
  22658624.133   119071892.26747  22658625.600    92783309.61148
  5  4 10 15  1 40.0000000  0  5G 2G 4G 5G 9G10
  20419626.610   107305871.31049  20419624.311    83614954.34149
  21050445.691   110620839.14349  21050445.815    86198046.54149
  21371458.992   112307775.86148  21371458.941    87512557.94148
  24429754.671   128379200.50446  24429756.751   100035736.94447
  22655194.279   119053868.32847  22655195.746    92769264.99648
  5  4 10 15  1 45.0000000  0  5G 2G 4G 5G 9G10
  20418891.452   107302008.02949  20418889.160    83611943.98749
  21052402.168   110631120.40649  21052402.300    86206057.89549
  21370102.640   112300648.18448  21370102.582    87507003.91049
  24432204.474   128392074.30846  24432206.554   100045768.47947
  22651761.760   119035830.34847  22651763.221    92755209.44048
  5  4 10 15  1 50.0000000  0  5G 2G 4G 5G 9G10
  20418213.109   107298443.28149  20418210.810    83609166.25949
  21054414.595   110641695.81249  21054414.733    86214298.47249
  21368803.840   112293822.94548  21368803.789    87501685.53848
  24434709.756   128405239.58946  24434711.831   100056027.13647
  22648385.195   119018086.41448  22648386.662    92741383.00048
  5  4 10 15  1 55.0000000  0  5G 2G 4G 5G 9G10
  20417474.345   107294561.11049  20417472.052    83606141.20049
  21056365.795   110651949.40649  21056365.935    86222288.28449
  21367445.391   112286684.21548  21367445.340    87496122.88348
  24437153.299   128418080.39846  24437155.375   100066032.94747
  22644947.366   119000020.53148  22644948.827    92727305.69948
  5  4 10 15  2  0.0000000  0  5G 2G 4G 5G 9G10
  20416763.121   107290823.57149  20416760.821    83603228.82849
  21058343.679   110662343.25549  21058343.818    86230387.38749
  21366115.210   112279694.09948  21366115.152    87490676.05049
  24439623.020   128431058.80946  24439625.090   100076145.98647
  22641536.209   118982094.84247  22641537.670    92713337.64448
  5  4 10 15  2  5.0000000  0  5G 2G 4G 5G 9G10
  20416079.373   107287230.45249  20416077.080    83600428.99049
  21060348.197   110672877.06849  21060348.335    86238595.55049
  21364813.290   112272852.43248  21364813.233    87485344.87749
  24442118.916   128444174.61146  24442120.994   100086366.04447
  22638151.700   118964309.15647  22638153.161    92699478.67848
  5  4 10 15  2 10.0000000  0  5G 2G 4G 5G 9G10
  20415364.535   107283473.95548  20415362.235    83597501.85249
  21062320.796   110683243.11549  21062320.935    86246672.98449
  21363481.027   112265851.34148  21363480.970    87479889.48449
  24444582.324   128457119.94046  24444584.389   100096453.32847
  22634735.241   118946355.60548  22634736.695    92685488.91648
  5  4 10 15  2 15.0000000  0  5G 2G 4G 5G 9G10
  20414618.631   107279554.20349  20414616.331    83594447.49949
  21064261.484   110693441.50149  21064261.622    86254619.77449
  21362118.462   112258690.98348  21362118.412    87474309.97549
  24447013.339   128469894.91546  24447015.404   100106407.83747
  22631286.882   118928234.38748  22631288.343    92671368.48848
  5  4 10 15  2 20.0000000  0  5G 2G 4G 5G 9G10
  20413929.498   107275932.78549  20413927.190    83591625.61549
  21066258.105   110703933.81549  21066258.243    86262795.60449
  21360813.421   112251832.94648  21360813.372    87468966.05348
  24449499.785   128482961.08946  24449501.851   100116589.23647
  22627894.462   118910407.10248  22627895.931    92657477.09848
  5  4 10 15  2 25.0000000  0  5G 2G 4G 5G 9G10
  20413209.261   107272147.94249  20413206.953    83588676.39449
  21068222.792   110714258.28049  21068222.936    86270840.63049
  21359478.041   112244815.50848  21359477.992    87463497.92849
  24451953.750   128495856.73045  24451955.810   100126637.78647
  22624470.103   118892412.00647  22624471.559    92643454.96148
  5  4 10 15  2 30.0000000  0  5G 2G 4G 5G 9G10
  20412516.594   107268507.95349  20412514.285    83585840.03449
  21070214.176   110724723.07449  21070214.321    86278995.01849
  21358170.996   112237946.93848  21358170.954    87458145.79448
  24454433.941   128508890.09846  24454436.004   100136793.64147
  22621072.483   118874557.42047  22621073.938    92629542.30448
  5  4 10 15  2 35.0000000  0  5G 2G 4G 5G 9G10
  20411851.497   107265012.84649  20411849.187    83583116.57249
  21072232.317   110735328.41749  21072232.469    86287258.90349
  21356892.304   112231227.30348  21356892.263    87452909.70348
  24456940.355   128522061.23646  24456942.426   100147056.83247
  22617701.590   118856843.35647  22617703.046    92615739.15648
  5  4 10 15  2 40.0000000  0  5G 2G 4G 5G 9G10
  20411126.030   107261200.49049  20411123.721    83580145.90649
  21074189.223   110745611.99749  21074189.375    86295272.07449
  21355554.000   112224194.47148  21355553.953    87447429.58149
  24459385.013   128534907.96846  24459387.090   100157067.26247
  22614269.517   118838807.72048  22614270.972    92601685.41848
  5  4 10 15  2 45.0000000  0  5G 2G 4G 5G 9G10
  20410457.404   107257686.84049  20410455.095    83577407.99649
  21076202.126   110756189.90249  21076202.285    86303514.60349
  21354273.319   112217464.44648  21354273.272    87442185.40649
  24461885.148   128548046.29846  24461887.220   100167304.93547
  22610893.476   118821066.53748  22610894.931    92587861.12848
  5  4 10 15  2 50.0000000  0  5G 2G 4G 5G 9G10
  20409728.423   107253855.98749  20409726.107    83574422.91449
  21078153.809   110766446.09549  21078153.967    86311506.44949
  21352933.039   112210421.26048  21352933.000    87436697.21449
  24464323.586   128560860.25446  24464325.672   100177289.80347
  22607456.259   118803003.87247  22607457.715    92573786.33348
  5  4 10 15  2 55.0000000  0  5G 2G 4G 5G 9G10
  20409026.972   107250169.86849  20409024.663    83571550.61649
  21080132.191   110776842.53149  21080132.349    86319607.55849
  21351621.082   112203526.88148  21351621.044    87431324.97449
  24466788.181   128573811.72346  24466790.267   100187381.84647
  22604045.758   118785081.60047  22604047.214    92559820.93348
  5  4 10 15  3  0.0000000  0  5G 2G 4G 5G 9G10
  20408353.041   107246628.33349  20408350.724    83568790.97949
  21082137.218   110787379.05149  21082137.376    86327817.84249
  21350337.420   112196781.21948  21350337.387    87426068.61648
  24469278.932   128586900.64645  24469281.026   100197580.99447
  22600661.973   118767299.71747  22600663.427    92545964.92348
  5  4 10 15  3  5.0000000  0  5G 2G 4G 5G 9G10
  20407648.028   107242923.43549  20407645.711    83565904.04049
  21084110.334   110797747.78349  21084110.499    86335897.35749
  21349023.457   112189876.26648  21349023.432    87420688.12449
  24471737.236   128599818.96645  24471739.338   100207647.18047
  22597246.286   118749350.19547  22597247.733    92531978.28948
  5  4 10 15  3 10.0000000  0  5G 2G 4G 5G 9G10
  20406970.552   107239363.27649  20406968.237    83563129.89449
  21086110.132   110808256.76149  21086110.296    86344086.16149
  21347737.818   112183120.15549  21347737.793    87415423.61849
  24474221.704   128612874.83946  24474223.806   100217820.57047
  22593857.331   118731541.20948  22593858.771    92518101.18148
  5  4 10 15  3 15.0000000  0  5G 2G 4G 5G 9G10
  20406320.610   107235947.80549  20406318.293    83560468.48449
  21088136.608   110818905.96849  21088136.774    86352384.24849
  21346480.498   112176512.86748  21346480.473    87410275.07148
  24476732.312   128626068.10846  24476734.415   100228101.03247
  22590495.128   118713872.71047  22590496.574    92504333.51348
  5  4 10 15  3 20.0000000  0  5G 2G 4G 5G 9G10
  20405639.612   107232369.13649  20405637.296    83557679.91349
  21090131.154   110829387.34349  21090131.319    86360551.54749
  21345192.899   112169746.48548  21345192.867    87405002.57048
  24479210.487   128639090.94546  24479212.591   100238248.68447
  22587101.044   118696036.77347  22587102.484    92490435.40848
  5  4 10 15  3 25.0000000  0  5G 2G 4G 5G 9G10
  20404956.849   107228781.22549  20404954.531    83554884.13949
  21092123.092   110839855.05249  21092123.265    86368708.20049
  21343904.329   112162975.00848  21343904.297    87399726.09249
  24481685.515   128652097.33746  24481687.626   100248383.53947
  22583704.433   118678187.43248  22583705.880    92476526.81848
  5  4 10 15  3 30.0000000  0  5G 2G 4G 5G 9G10
  20404272.323   107225184.01649  20404270.006    83552081.12249
  21094112.396   110850308.91349  21094112.569    86376854.06649
  21342614.783   112156198.39548  21342614.751    87394445.61648
  24484157.416   128665087.13846  24484159.528   100258505.44247
  22580305.249   118660324.66447  22580306.689    92462607.79348
  5  4 10 15  3 35.0000000  0  5G 2G 4G 5G 9G10
  20403586.071   107221577.67549  20403583.754    83549270.97449
  21096099.126   110860749.18749  21096099.292    86384989.33549
  21341324.291   112149416.78448  21341324.260    87389161.24249
  24486626.200   128678060.56046  24486628.312   100268614.57447
  22576903.545   118642448.61847  22576904.984    92448678.41448
  5  4 10 15  3 40.0000000  0  5G 2G 4G 5G 9G10
  20402927.356   107218116.13849  20402925.040    83546573.68049
  21098112.534   110871329.71649  21098112.707    86393233.90149
  21340062.143   112142784.15048  21340062.112    87383992.95549
  24489121.121   128691171.45946  24489123.233   100278830.85947
  22573528.593   118624713.21747  22573530.032    92434858.64148
  5  4 10 15  3 45.0000000  0  5G 2G 4G 5G 9G10
  20402237.607   107214491.48349  20402235.297    83543749.26849
  21100094.044   110881742.59049  21100094.223    86401347.81649
  21338769.738   112135992.54748  21338769.714    87378700.80149
  24491583.643   128704112.03846  24491585.762   100288914.41047
  22570121.845   118606810.63848  22570123.284    92420908.58148
  5  4 10 15  3 50.0000000  0  5G 2G 4G 5G 9G10
  20401604.723   107211165.65449  20401602.406    83541157.71649
  21102131.538   110892449.69449  21102131.718    86409691.01649
  21337535.004   112129503.94348  21337534.973    87373644.74249
  24494101.605   128717344.05146  24494103.725   100299225.07747
  22566771.177   118589202.72548  22566772.616    92407188.12148
  5  4 10 15  3 55.0000000  0  5G 2G 4G 5G 9G10
  20400940.793   107207676.67749  20400938.476    83538439.03449
  21104137.138   110902989.16449  21104137.319    86417903.58749
  21336270.018   112122856.39848  21336269.993    87368464.83149
  24496587.142   128730405.63546  24496589.255   100309402.94047
  22563388.674   118571427.61447  22563390.099    92393337.40648
  5  4 10 15  4  0.0000000  0  5G 2G 4G 5G 9G10
  20400245.822   107204024.58149  20400243.505    83535593.24349
  21106110.813   110913360.92349  21106111.000    86425985.48049
  21334974.794   112116049.88948  21334974.770    87363161.04649
  24499040.250   128743296.71046  24499042.371   100319447.91547
  22559974.354   118553485.30547  22559975.786    92379356.39648
  5  4 10 15  4  5.0000000  0  5G 2G 4G 5G 9G10
  20399607.726   107200671.39649  20399605.409    83532980.37749
  21108140.506   110924027.00649  21108140.687    86434296.70949
  21333737.231   112109546.51448  21333737.207    87358093.49549
  24501548.840   128756479.40646  24501550.962   100329720.14347
  22556616.143   118535837.91547  22556617.562    92365605.21748
  5  4 10 15  4 10.0000000  0  5G 2G 4G 5G 9G10
  20398938.609   107197155.13249  20398936.299    83530240.42249
  21110138.314   110934525.52349  21110138.502    86442477.36449
  21332469.434   112102884.26048  21332469.409    87352902.13949
  24504025.012   128769491.65646  24504027.135   100339859.53147
  22553226.160   118518023.40347  22553227.586    92351723.77048
  5  4 10 15  4 15.0000000  0  5G 2G 4G 5G 9G10
  20398238.450   107193475.76949  20398236.133    83527373.38949
  21112104.207   110944856.33249  21112104.395    86450527.33849
  21331171.433   112096063.15449  21331171.416    87347586.97849
  24506468.739   128782333.40246  24506470.869   100349866.05747
  22549804.359   118500041.80847  22549805.784    92337712.15748
  5  4 10 15  4 20.0000000  0  5G 2G 4G 5G 9G10
  20397595.172   107190095.32049  20397592.854    83524739.27149
  21114126.103   110955481.43549  21114126.299    86458806.63449
  21329931.096   112089545.17349  21329931.086    87342508.03449
  24508967.921   128795466.59946  24508970.059   100360099.69747
  22546438.673   118482355.10348  22546440.099    92323930.33148
  5  4 10 15  4 25.0000000  0  5G 2G 4G 5G 9G10
  20396979.454   107186859.69949  20396977.136    83522218.00849
  21116174.693   110966246.81549  21116174.889    86467195.23649
  21328719.127   112083176.26348  21328719.117    87337545.25749
  24511493.238   128808737.29046  24511495.369   100370440.51647
  22543099.822   118464809.26147  22543101.248    92310258.23548
  5  4 10 15  4 30.0000000  0  5G 2G 4G 5G 9G10
  20396274.068   107183152.87249  20396271.751    83519329.57349
  21118132.733   110976536.41849  21118132.936    86475213.11149
  21327418.316   112076340.45248  21327418.318    87332218.64049
  24513927.533   128821529.34547  24513929.678   100380408.29147
  22539670.525   118446788.24748  22539671.951    92296215.89848
  5  4 10 15  4 35.0000000  0  5G 2G 4G 5G 9G10
  20395625.529   107179744.81149  20395623.212    83516673.94549
  21120146.770   110987120.22449  21120146.974    86483460.22749
  21326175.173   112069807.69248  21326175.183    87327128.17749
  24516417.224   128834612.79446  24516419.377   100390603.19247
  22536297.351   118429062.09948  22536298.763    92282403.32148
  5  4 10 15  4 40.0000000  0  5G 2G 4G 5G 9G10
  20394975.280   107176327.69549  20394972.956    83514011.25649
  21122158.202   110997690.30749  21122158.406    86491696.64349
  21324931.118   112063270.13848  21324931.129    87322033.98449
  24518903.800   128847679.74346  24518905.953   100400785.20947
  22532921.692   118411322.98548  22532923.098    92268580.65948
  5  4 10 15  4 45.0000000  0  5G 2G 4G 5G 9G10
  20394323.267   107172901.34649  20394320.950    83511341.36949
  21124166.980   111008246.53949  21124167.190    86499922.27849
  21323686.123   112056727.64648  21323686.141    87316935.93848
  24521387.204   128860730.02546  24521389.364   100410954.24047
  22529543.543   118393570.72048  22529544.955    92254747.73148
  5  4 10 15  4 50.0000000  0  5G 2G 4G 5G 9G10
  20393728.154   107169774.00749  20393725.830    83508904.48349
  21126231.802   111019097.25049  21126232.013    86508377.38449
  21322498.841   112050488.43648  21322498.866    87312074.21449
  24523926.066   128874071.80346  24523928.240   100421350.41847
  22526221.557   118376113.60048  22526222.963    92241144.79248
  5  4 10 15  4 55.0000000  0  5G 2G 4G 5G 9G10
  20393072.692   107166329.49549  20393070.374    83506220.44049
  21128235.385   111029626.08849  21128235.602    86516581.65249
  21321252.022   112043936.36248  21321252.048    87306968.70249
  24526403.172   128887088.99047  24526405.353   100431493.65847
  22522838.479   118358335.40548  22522839.886    92227291.65548
  5  4 10 15  5  0.0000000  0  5G 2G 4G 5G 9G10
  20392444.775   107163029.80049  20392442.450    83503649.25649
  21130265.648   111040295.15949  21130265.866    86524895.21149
  21320033.592   112037533.46748  21320033.625    87301979.43349
  24528906.382   128900243.51147  24528908.570   100441743.94447
  22519482.213   118340698.20348  22519483.620    92213548.40348
  5  4 10 15  5  5.0000000  0  5G 2G 4G 5G 9G10
  20391785.817   107159566.95349  20391783.498    83500950.93049
  21132263.989   111050796.48349  21132264.214    86533078.05049
  21318784.940   112030971.75548  21318784.974    87296866.41349
  24531377.141   128913227.40647  24531379.322   100451861.26147
  22516094.182   118322894.00947  22516095.583    92199675.01948
  5  4 10 15  5 10.0000000  0  5G 2G 4G 5G 9G10
  20391154.453   107156249.11449  20391152.128    83498365.60349
  21134289.032   111061438.12449  21134289.257    86541370.23049
  21317564.718   112024559.41348  21317564.760    87291869.78049
  24533874.088   128926348.82746  24533876.284   100462085.71247
  22512733.019   118305230.97947  22512734.421    92185911.62448
  5  4 10 15  5 15.0000000  0  5G 2G 4G 5G 9G10
  20390521.331   107152922.03548  20390519.005    83495773.07349
  21136311.425   111072065.87049  21136311.656    86549651.58849
  21316343.548   112018142.15648  21316343.591    87286869.32849
  24536367.815   128939453.45246  24536370.011   100472297.10747
  22509369.380   118287554.90548  22509370.783    92172138.05748
  5  4 10 15  5 20.0000000  0  5G 2G 4G 5G 9G10
  20389915.763   107149739.78349  20389913.437    83493293.40249
  21138360.489   111082833.77349  21138360.720    86558042.16349
  21315150.767   112011874.04648  21315150.816    87281985.08248
  24538887.669   128952695.37146  24538889.864   100482615.48447
  22506032.555   118270019.89748  22506033.951    92158474.44348
  5  4 10 15  5 25.0000000  0  5G 2G 4G 5G 9G10
  20389249.803   107146240.11249  20389247.478    83490566.37949
  21140348.276   111093279.63249  21140348.501    86566181.79149
  21313898.433   112005292.92848  21313898.490    87276856.92248
  24541345.698   128965612.30846  24541347.907   100492680.60547
  22502634.632   118252163.72347  22502636.029    92144560.55048
  5  4 10 15  5 30.0000000  0  5G 2G 4G 5G 9G10
  20388640.686   107143039.17949  20388638.360    83488072.14649
  21142392.030   111104019.63349  21142392.255    86574550.62249
  21312703.767   111999014.91348  21312703.817    87271964.96748
  24543859.135   128978820.51046  24543861.351   100502972.70747
  22499292.853   118234602.49248  22499294.244    92130876.46848
  5  4 10 15  5 35.0000000  0  5G 2G 4G 5G 9G10
  20388000.483   107139674.88849  20387998.157    83485450.61849
  21144403.811   111114591.58049  21144404.043    86582788.49449
  21311478.854   111992577.95048  21311478.903    87266949.14949
  24546340.070   128991857.84846  24546342.293   100513131.65647
  22495919.266   118216874.20347  22495920.650    92117062.22748
  5  4 10 15  5 40.0000000  0  5G 2G 4G 5G 9G10
  20387387.808   107136455.23149  20387385.476    83482941.79349
  21146442.215   111125303.46949  21146442.453    86591135.41549
  21310282.297   111986290.00348  21310282.347    87262049.45149
  24548847.103   129005032.21046  24548849.334   100523397.35247
  22492572.480   118199286.78748  22492573.858    92103357.76748
  5  4 10 15  5 45.0000000  0  5G 2G 4G 5G 9G10
  20386744.031   107133072.16149  20386741.706    83480305.63349
  21148448.641   111135847.24449  21148448.887    86599351.33049
  21309055.476   111979843.01848  21309055.533    87257025.82249
  24551321.547   129018035.49746  24551323.777   100533529.78247
  22489193.894   118181532.22748  22489195.272    92089523.05348
  5  4 10 15  5 50.0000000  0  5G 2G 4G 5G 9G10
  20386127.761   107129833.63949  20386125.436    83477782.10949
  21150481.676   111146530.91549  21150481.929    86607676.26649
  21307857.011   111973545.03848  21307857.060    87252118.30949
  24553822.069   129031175.73746  24553824.307   100543768.90747
  22485842.116   118163918.55048  22485843.501    92075798.11448
  5  4 10 15  5 55.0000000  0  5G 2G 4G 5G 9G10
  20385539.015   107126739.78649  20385536.689    83475371.32049
  21152541.358   111157354.55649  21152541.619    86616110.25749
  21306686.913   111967396.16448  21306686.962    87247326.98449
  24556348.645   129044453.07646  24556350.883   100554114.90747
  22482517.167   118146445.88547  22482518.552    92062183.06748
  5  4 10 15  6  0.0000000  0  5G 2G 4G 5G 9G10
  20384889.898   107123328.62749  20384887.567    83472713.27349
  21154539.758   111167856.18749  21154540.019    86624293.34149
  21305457.280   111960934.36648  21305457.329    87242291.81049
  24558813.420   129057405.46546  24558815.673   100564207.65446
  22479131.144   118128652.27747  22479132.530    92048317.93248
  5  4 10 15  6  5.0000000  0  5G 2G 4G 5G 9G10
  20384268.298   107120062.12849  20384265.966    83470167.95349
  21156564.778   111178497.77149  21156565.032    86632585.49249
  21304256.024   111954621.69248  21304256.067    87237372.84449
  24561304.261   129070494.85945  24561306.513   100574407.16747
  22475771.972   118110999.67848  22475773.359    92034562.65948
  5  4 10 15  6 10.0000000  0  5G 2G 4G 5G 9G10
  20383703.501   107117094.06549  20383701.169    83467855.17449
  21158645.695   111189433.06449  21158645.943    86641106.50649
  21303112.394   111948611.90948  21303112.445    87232689.90149
  24563850.454   129083875.13045  24563852.707   100584833.34246
  22472468.885   118093641.90348  22472470.279    92021037.13048
  5  4 10 15  6 15.0000000  0  5G 2G 4G 5G 9G10
  20383078.278   107113808.49549  20383075.946    83465294.98949
  21160665.306   111200046.16149  21160665.560    86649376.43849
  21301909.210   111942289.07448  21301909.262    87227763.00549
  24566334.755   129096930.19046  24566337.002   100595006.11446
  22469104.698   118075963.04248  22469106.085    92007261.40948
  5  4 10 15  6 20.0000000  0  5G 2G 4G 5G 9G10
  20382480.567   107110667.47449  20382478.236    83462847.43549
  21162711.520   111210799.05249  21162711.773    86657755.30849
  21300734.362   111936115.23648  21300734.406    87222952.22949
  24568845.141   129110122.13746  24568847.395   100605285.50346
  22465767.349   118058425.15548  22465768.731    91993595.53448
  5  4 10 15  6 25.0000000  0  5G 2G 4G 5G 9G10
  20381881.059   107107517.03949  20381878.728    83460392.54849
  21164755.025   111221537.77749  21164755.278    86666123.15149
  21299558.591   111929936.48848  21299558.636    87218137.61849
  24571352.259   129123297.00946  24571354.507   100615551.61546
  22462427.526   118040874.29548  22462428.914    91979919.54248
  5  4 10 15  6 30.0000000  0  5G 2G 4G 5G 9G10
  20381221.145   107104049.16849  20381218.807    83457690.31549
  21166737.243   111231954.33849  21166737.496    86674239.94049
  21298323.250   111923444.78748  21298323.293    87213079.15749
  24573797.464   129136146.70946  24573799.706   100625564.39247
  22459026.614   118023002.41548  22459027.995    91965993.41148
  5  4 10 15  6 35.0000000  0  5G 2G 4G 5G 9G10
  20380647.335   107101033.74249  20380645.003    83455340.62249
  21168804.641   111242818.59149  21168804.894    86682705.59149
  21297174.882   111917410.04148  21297174.925    87208376.75249
  24576327.363   129149441.19946  24576329.613   100635923.68746
  22455711.134   118005579.48048  22455712.501    91952417.11248
  5  4 10 15  6 40.0000000  0  5G 2G 4G 5G 9G10
  20380042.438   107097854.98749  20380040.099    83452863.67349
  21170840.059   111253514.75549  21170840.319    86691040.25049
  21295996.284   111911216.50048  21295996.334    87203550.61949
  24578824.684   129162564.71046  24578826.935   100646149.80346
  22452363.904   117987989.69948  22452365.278    91938710.79148
  5  4 10 15  6 45.0000000  0  5G 2G 4G 5G 9G10
  20379465.067   107094820.91649  20379462.735    83450499.46449
  21172902.116   111264350.90349  21172902.376    86699483.99949
  21294846.078   111905172.12448  21294846.128    87198840.71549
  24581348.061   129175825.11346  24581350.305   100656482.58347
  22449043.533   117970541.06248  22449044.899    91925114.45948
  5  4 10 15  6 50.0000000  0  5G 2G 4G 5G 9G10
  20378856.640   107091623.57749  20378854.301    83448008.02749
  21174932.177   111275018.95049  21174932.451    86707796.75449
  21293665.677   111898969.07449  21293665.727    87194007.17149
  24583838.907   129188914.50246  24583841.152   100666682.08847
  22445691.427   117952925.68848  22445692.786    91911388.21148
  5  4 10 15  6 55.0000000  0  5G 2G 4G 5G 9G10
  20378246.437   107088416.93849  20378244.105    83445509.34549
  21176959.585   111285673.01849  21176959.859    86716098.61849
  21292484.373   111892761.24948  21292484.423    87189169.89649
  24586326.496   129201986.83846  24586328.742   100676868.32347
  22442336.896   117935297.57448  22442338.250    91897652.03848
  5  4 10 15  7  0.0000000  0  5G 2G 4G 5G 9G10
  20377663.790   107085355.11049  20377661.451    83443123.50849
  21179013.620   111296467.07349  21179013.893    86724509.57849
  21291331.488   111886702.76948  21291331.540    87184449.00249
  24588840.181   129215196.25246  24588842.435   100687161.34946
  22439009.279   117917810.79748  22439010.633    91884025.97248
  5  4 10 15  7  5.0000000  0  5G 2G 4G 5G 9G10
  20377079.389   107082284.06149  20377077.051    83440730.48449
  21181065.002   111307247.16149  21181065.262    86732909.65249
  21290177.700   111880639.60048  21290177.751    87179724.46249
  24591350.651   129228388.67246  24591352.912   100697441.11547
  22435679.233   117900311.38248  22435680.587    91870390.08448
  5  4 10 15  7 10.0000000  0  5G 2G 4G 5G 9G10
  20376493.263   107079203.91349  20376490.924    83438330.36249
  21183113.742   111318013.33049  21183114.015    86741298.85849
  21289023.061   111874571.90148  21289023.113    87174996.38249
  24593857.869   129241564.19146  24593860.124   100707707.75947
  22432346.830   117882799.45448  22432348.191    91856744.41548
  5  4 10 15  7 15.0000000  0  5G 2G 4G 5G 9G10
  20375876.092   107075960.66249  20375873.753    83435803.15149
  21185130.512   111328611.49649  21185130.778    86749557.16649
  21287838.241   111868345.66348  21287838.294    87170144.77549
  24596332.620   129254568.84446  24596334.888   100717841.19446
  22428982.726   117865121.02948  22428984.073    91842969.04248
  5  4 10 15  7 20.0000000  0  5G 2G 4G 5G 9G10
  20375315.814   107073016.37749  20375313.475    83433508.90549
  21187203.278   111339503.89449  21187203.552    86758044.73649
  21286711.190   111862422.97148  21286711.243    87165529.69049
  24598862.702   129267864.67645  24598864.957   100728201.62146
  22425674.859   117847738.16648  22425676.199    91829423.97748
  5  4 10 15  7 25.0000000  0  5G 2G 4G 5G 9G10
  20374695.210   107069755.11749  20374692.871    83430967.66749
  21189214.805   111350074.53649  21189215.079    86766281.60449
  21285524.703   111856187.90748  21285524.763    87160671.19049
  24601331.046   129280835.78245  24601333.307   100738308.94846
  22422306.046   117830034.93248  22422307.387    91815629.25348
  5  4 10 15  7 30.0000000  0  5G 2G 4G 5G 9G10
  20374131.544   107066792.99849  20374129.205    83428659.51649
  21191282.356   111360939.56049  21191282.637    86774747.84649
  21284396.017   111850256.61948  21284396.076    87156049.40649
  24603854.798   129294098.15746  24603857.067   100748643.25846
  22418993.519   117812627.51948  22418994.846    91802065.04648
  5  4 10 15  7 35.0000000  0  5G 2G 4G 5G 9G10
  20373536.884   107063668.03949  20373534.552    83426224.48349
  21193317.993   111371636.87549  21193318.267    86783083.41249
  21283237.221   111844167.07648  21283237.281    87151304.30249
  24606346.064   129307189.81745  24606348.340   100758844.54446
  22415649.373   117795053.94648  22415650.707    91788371.35448
  5  4 10 15  7 40.0000000  0  5G 2G 4G 5G 9G10
  20372969.847   107060688.24249  20372967.509    83423902.56649
  21195380.321   111382474.48149  21195380.602    86791528.29649
  21282106.907   111838227.29948  21282106.973    87146675.91349
  24608863.506   129320418.78345  24608865.796   100769152.76046
  22412332.213   117777622.18148  22412333.539    91774788.17048
  5  4 10 15  7 45.0000000  0  5G 2G 4G 5G 9G10
  20372430.466   107057853.77249  20372428.127    83421693.88949
  21197469.400   111393452.66349  21197469.681    86800082.72449
  21281005.157   111832437.53248  21281005.224    87142164.40349
  24611407.033   129333785.23445  24611409.323   100779568.20246
  22409042.079   117760332.47248  22409043.406    91761315.68748
  5  4 10 15  7 50.0000000  0  5G 2G 4G 5G 9G10
  20371830.824   107054702.60149  20371828.486    83419238.42649
  21199497.303   111404109.33849  21199497.591    86808386.61549
  21279844.038   111826335.71748  21279844.105    87137409.72249
  24613888.859   129346827.09845  24613891.162   100789730.64046
  22405691.066   117742722.78048  22405692.392    91747593.84648
  5  4 10 15  7 55.0000000  0  5G 2G 4G 5G 9G10
  20371229.528   107051542.80049  20371227.196    83416776.24649
  21201522.621   111414752.42549  21201522.910    86816679.92749
  21278682.117   111820229.87348  21278682.184    87132651.94449
  24616367.506   129359852.38445  24616369.810   100799880.19346
  22402337.787   117725101.17948  22402339.106    91733862.73248
  5  4 10 15  8  0.0000000  0  5G 2G 4G 5G 9G10
  20370714.524   107048836.40549  20370712.185    83414667.36249
  21203633.292   111425844.07349  21203633.581    86825322.77249
  21277607.383   111814582.10848  21277607.457    87128251.08649
  24618930.942   129373323.33145  24618933.246   100810377.03746
  22399070.164   117707929.76748  22399071.470    91720482.43448
  5  4 10 15  8  5.0000000  0  5G 2G 4G 5G 9G10
  20370139.314   107045813.65549  20370136.975    83412311.97249
  21205682.835   111436614.46549  21205683.131    86833715.27549
  21276473.346   111808622.67148  21276473.421    87123607.36648
  24621432.663   129386469.86845  24621434.966   100820621.06746
  22395741.710   117690438.69048  22395743.017    91706853.03648
  5  4 10 15  8 10.0000000  0  5G 2G 4G 5G 9G10
  20369562.491   107042782.43449  20369560.153    83409949.98449
  21207729.845   111447371.60649  21207730.141    86842097.46849
  21275338.581   111802659.44348  21275338.658    87118960.69949
  24623931.261   129399600.05745  24623933.570   100830852.37046
  22392411.040   117672935.93248  22392412.340    91693214.53448
  5  4 10 15  8 15.0000000  0  5G 2G 4G 5G 9G10
  20369042.677   107040050.79049  20369040.338    83407821.42849
  21209832.957   111458423.47449  21209833.260    86850709.29449
  21274261.719   111797000.49348  21274261.802    87114551.12249
  24626485.332   129413021.91546  24626487.628   100841310.99746
  22389136.779   117655729.60148  22389138.078    91679807.00848
  5  4 10 15  8 20.0000000  0  5G 2G 4G 5G 9G10
  20368433.365   107036848.80649  20368431.028    83405326.37349
  21211845.634   111469000.12949  21211845.937    86858950.84149
  21273096.236   111790875.87049  21273096.312    87109778.70149
  24628948.410   129425965.41546  24628950.706   100851396.82946
  22385772.398   117638049.69348  22385773.698    91666030.46748
  5  4 10 15  8 25.0000000  0  5G 2G 4G 5G 9G10
  20367881.101   107033946.63849  20367878.763    83403064.94149
  21213914.430   111479871.69349  21213914.741    86867422.18449
  21271988.717   111785055.75748  21271988.808    87105243.52949
  24631467.023   129439200.81545  24631469.312   100861710.13046
  22382464.485   117620666.49148  22382465.785    91652485.11448
  5  4 10 15  8 30.0000000  0  5G 2G 4G 5G 9G10
  20367356.582   107031190.27349  20367354.244    83400917.12349
  21216010.039   111490884.19549  21216010.350    86876003.35249
  21270909.828   111779386.12849  21270909.920    87100825.63249
  24634011.904   129452573.97645  24634014.207   100872130.70646
  22379183.700   117603425.94748  22379184.993    91639050.94748
  5  4 10 15  8 35.0000000  0  5G 2G 4G 5G 9G10
  20366771.900   107028117.74449  20366769.563    83398522.95049
  21218044.551   111501575.66049  21218044.869    86884334.36749
  21269771.668   111773405.05648  21269771.759    87096165.05449
  24636495.090   129465623.08346  24636497.387   100882298.82045
  22375842.164   117585866.08548  22375843.457    91625367.94748
  5  4 10 15  8 40.0000000  0  5G 2G 4G 5G 9G10
  20366244.264   107025345.00149  20366241.926    83396362.36749
  21220135.194   111512562.02849  21220135.504    86892895.16949
  21268691.464   111767728.54448  21268691.549    87091741.80448
  24639033.749   129478963.98045  24639036.045   100892694.35746
  22372557.085   117568602.91148  22372558.378    91611916.12948
  5  4 10 15  8 45.0000000  0  5G 2G 4G 5G 9G10
  20365656.499   107022256.24249  20365654.161    83393955.53649
  21222164.768   111523227.48449  21222165.085    86901205.90249
  21267552.029   111761740.74148  21267552.114    87087075.98049
  24641510.810   129491980.90045  24641513.114   100902837.38246
  22369211.282   117551020.62948  22369212.575    91598215.65548
  5  4 10 15  8 50.0000000  0  5G 2G 4G 5G 9G10
  20365125.827   107019467.54548  20365123.490    83391782.52649
  21224250.505   111534188.07249  21224250.822    86909746.61649
  21266470.588   111756057.79448  21266470.673    87082647.72349
  24644043.434   129505289.86845  24644045.745   100913207.99046
  22365921.997   117533735.34848  22365923.282    91584746.61548
  5  4 10 15  8 55.0000000  0  5G 2G 4G 5G 9G10
  20364593.670   107016671.04049  20364591.333    83389603.43149
  21226333.807   111545135.90049  21226334.131    86918277.38549
  21265388.584   111750371.76148  21265388.676    87078217.03049
  24646573.045   129518582.93545  24646575.355   100923566.19646
  22362630.639   117516439.17948  22362631.925    91571269.08748
  5  4 10 15  9  0.0000000  0  5G 2G 4G 5G 9G10
  20364030.694   107013712.58149  20364028.356    83387298.13749
  21228385.365   111555916.93849  21228385.681    86926678.20349
  21264276.660   111744528.56449  21264276.746    87073663.89649
  24649070.319   129531706.01245  24649072.650   100933791.91846
  22359307.892   117498978.05448  22359309.177    91557663.02348
  5  4 10 15  9  5.0000000  0  5G 2G 4G 5G 9G10
  20363466.280   107010746.53149  20363463.943    83384986.92749
  21230434.559   111566685.46649  21230434.883    86935069.24849
  21263164.199   111738682.53948  21263164.292    87069108.54849
  24651564.558   129544813.51545  24651566.868   100944005.60746
  22355983.119   117481506.31848  22355984.405    91544048.69748
  5  4 10 15  9 10.0000000  0  5G 2G 4G 5G 9G10
  20362929.706   107007926.81849  20362927.370    83382789.75049
  21232510.652   111577595.37549  21232510.976    86943570.46949
  21262080.493   111732987.62848  21262080.587    87064670.95949
  24654085.163   129558059.29046  24654087.480   100954326.96646
  22352685.621   117464177.88248  22352686.900    91530546.02848
  5  4 10 15  9 15.0000000  0  5G 2G 4G 5G 9G10
  20362421.021   107005253.65849  20362418.691    83380706.76349
  21234613.684   111588646.88349  21234614.001    86952182.03649
  21261025.593   111727444.08949  21261025.687    87060351.31949
  24656632.127   129571443.54946  24656634.457   100964756.22546
  22349415.453   117446993.03448  22349416.726    91517155.24448
  5  4 10 15  9 20.0000000  0  5G 2G 4G 5G 9G10
  20361852.319   107002265.10849  20361849.982    83378378.02749
  21236655.784   111599378.12849  21236656.107    86960544.02849
  21259911.594   111721589.98749  21259911.696    87055789.68149
  24659117.539   129584504.35646  24659119.877   100974933.44746
  22346084.678   117429489.81848  22346085.958    91503516.39948
  5  4 10 15  9 25.0000000  0  5G 2G 4G 5G 9G10
  20361340.790   106999577.03749  20361338.453    83376283.43349
  21238754.079   111610404.80449  21238754.395    86969136.25949
  21258855.686   111716041.15048  21258855.787    87051465.91149
  24661658.546   129597857.53146  24661660.877   100985338.54146
  22342810.539   117412284.13348  22342811.812    91490109.38248
  5  4 10 15  9 30.0000000  0  5G 2G 4G 5G 9G10
  20360827.863   106996881.55949  20360825.527    83374183.05449
  21240850.048   111621419.16948  21240850.372    86977718.87249
  21257799.294   111710489.77348  21257799.401    87047140.15748
  24664196.658   129611195.20946  24664199.002   100995731.48946
  22339534.431   117395068.09848  22339535.703    91476694.29648
  5  4 10 15  9 35.0000000  0  5G 2G 4G 5G 9G10
  20360254.955   106993870.90649  20360252.618    83371837.08849
  21242885.095   111632113.37949  21242885.425    86986052.01049
  21256683.845   111704628.05048  21256683.952    87042572.58049
  24666673.176   129624209.55445  24666675.519   101005872.57146
  22336197.794   117377533.95448  22336199.067    91463031.32648
  5  4 10 15  9 40.0000000  0  5G 2G 4G 5G 9G10
  20359710.011   106991007.17449  20359707.674    83369605.60549
  21244947.139   111642949.49349  21244947.469    86994495.73549
  21255597.267   111698918.07548  21255597.374    87038123.25748
  24669176.148   129637362.76246  24669178.492   101016121.82646
  22332888.544   117360143.82248  22332889.817    91449480.59648
  5  4 10 15  9 45.0000000  0  5G 2G 4G 5G 9G10
  20359222.306   106988444.29849  20359219.976    83367608.56149
  21247065.492   111654081.57649  21247065.822    87003170.10049
  21254568.872   111693513.79048  21254568.986    87033912.11549
  24671734.849   129650808.60646  24671737.199   101026599.05346
  22329636.011   117343051.64348  22329637.284    91436162.01548
  5  4 10 15  9 50.0000000  0  5G 2G 4G 5G 9G10
  20358703.942   106985720.27949  20358701.605    83365485.95149
  21249152.263   111665047.57149  21249152.599    87011715.01149
  21253510.722   111687953.20648  21253510.829    87029579.20049
  24674261.298   129664085.15946  24674263.656   101036944.40746
  22326352.258   117325795.43748  22326353.523    91422715.62748
  5  4 10 15  9 55.0000000  0  5G 2G 4G 5G 9G10
  20358154.951   106982835.31149  20358152.614    83363237.92449
  21251207.447   111675847.60349  21251207.776    87020130.61749
  21252422.889   111682236.57749  21252423.004    87025124.67649
  24676755.561   129677192.59946  24676757.905   101047158.00446
  22323037.340   117308375.45548  22323038.598    91409141.62748
  5  4 10 15 10  0.0000000  0  5G 2G 4G 5G 9G10
  20357633.946   106980097.41249  20357631.609    83361104.49749
  21253289.673   111686789.74349  21253290.010    87028656.95249
  21251363.964   111676671.91848  21251364.078    87020788.58349
  24679276.272   129690438.99346  24679278.623   101057479.86246
  22319749.864   117291099.68648  22319751.123    91395679.99548
  5  4 10 15 10  5.0000000  0  5G 2G 4G 5G 9G10
  20357140.913   106977506.50749  20357138.577    83359085.61249
  21255398.926   111697873.90849  21255399.269    87037293.95249
  21250333.952   111671259.13548  21250334.067    87016570.82949
  24681823.397   129703824.19446  24681825.749   101067909.88346
  22316489.834   117273968.14448  22316491.092    91382330.74748
  5  4 10 15 10 10.0000000  0  5G 2G 4G 5G 9G10
  20356617.298   106974754.89249  20356614.962    83356941.49549
  21257476.639   111708792.36749  21257476.982    87045801.84349
  21249274.273   111665690.48448  21249274.394    87012231.61649
  24684338.410   129717040.48546  24684340.775   101078208.24746
  22313198.680   117256673.07348  22313199.931    91368854.08548
  5  4 10 15 10 15.0000000  0  5G 2G 4G 5G 9G10
  20356063.133   106971842.70049  20356060.796    83354672.24949
  21259522.845   111719545.25449  21259523.189    87054180.71649
  21248184.973   111659966.20848  21248185.096    87007771.15349
  24686821.286   129730087.99546  24686823.658   101088375.11246
  22309876.454   117239214.65748  22309877.704    91355250.12248
  5  4 10 15 10 20.0000000  0  5G 2G 4G 5G 9G10
  20355566.283   106969231.73749  20355563.946    83352637.73149
  21261625.405   111730594.30849  21261625.741    87062790.37749
  21247153.941   111654548.03748  21247154.065    87003549.19049
  24689359.893   129743428.52845  24689362.259   101098770.35246
  22306611.004   117222054.66648  22306612.248    91341878.71848
  5  4 10 15 10 25.0000000  0  5G 2G 4G 5G 9G10
  20355038.886   106966460.21849  20355036.543    83350478.10249
  21263696.465   111741477.80649  21263696.808    87071271.01949
  21246093.266   111648974.24248  21246093.389    86999205.99249
  24691866.404   129756600.26846  24691868.769   101109034.03146
  22303314.485   117204731.40448  22303315.728    91328380.08348
  5  4 10 15 10 30.0000000  0  5G 2G 4G 5G 9G10
  20354568.861   106963990.21849  20354566.518    83348553.43049
  21265823.955   111752657.74649  21265824.298    87079982.64149
  21245090.936   111643706.86948  21245091.059    86995101.52849
  24694428.735   129770065.22546  24694431.109   101119526.16346
  22300074.817   117187706.86548  22300076.061    91315114.21848
  5  4 10 15 10 35.0000000  0  5G 2G 4G 5G 9G10
  20354038.982   106961205.68749  20354036.639    83346383.66149
  21267890.624   111763518.16549  21267890.967    87088445.30549
  21244029.672   111638129.92048  21244029.794    86990755.85649
  24696929.610   129783207.46946  24696931.975   101129766.88746
  22296774.771   117170365.06648  22296776.008    91301601.14848
  5  4 10 15 10 40.0000000  0  5G 2G 4G 5G 9G10
  20353537.187   106958568.73449  20353534.844    83344328.89549
  21269984.427   111774521.17549  21269984.776    87097019.07549
  21242997.462   111632705.52848  21242997.585    86986529.03749
  24699457.022   129796489.04946  24699459.387   101140116.15446
  22293502.296   117153168.15848  22293503.534    91288200.97448
  5  4 10 15 10 45.0000000  0  5G 2G 4G 5G 9G10
  20353004.904   106955771.53749  20353002.561    83342149.25649
  21272046.781   111785358.88449  21272047.129    87105464.03549
  21241935.677   111627125.84048  21241935.793    86982181.23849
  24701952.394   129809602.12946  24701954.752   101150334.09946
  22290198.824   117135808.29848  22290200.062    91274673.80948
  5  4 10 15 10 50.0000000  0  5G 2G 4G 5G 9G10
  20352530.055   106953276.18849  20352527.712    83340204.82949
  21274165.606   111796493.38649  21274165.961    87114140.26649
  21240932.282   111621852.96348  21240932.404    86978072.49949
  24704503.585   129823008.73146  24704505.944   101160780.80346
  22286952.285   117118747.65148  22286953.530    91261379.80448
  5  4 10 15 10 55.0000000  0  5G 2G 4G 5G 9G10
  20352024.724   106950620.68949  20352022.382    83338135.61549
  21276252.995   111807462.69249  21276253.358    87122687.77549
  21239899.354   111616424.89148  21239899.470    86973842.83649
  24707022.719   129836246.89845  24707025.063   101171096.26946
  22283674.758   117101524.16348  22283676.003    91247958.91148
  5  4 10 15 11  0.0000000  0  5G 2G 4G 5G 9G10
  20351547.561   106948113.17749  20351545.218    83336181.71049
  21278367.600   111818574.95349  21278367.963    87131346.66649
  21238895.544   111611149.83348  21238895.661    86969732.40649
  24709568.480   129849624.77546  24709570.837   101181520.53645
  22280424.898   117084446.09348  22280426.135    91234651.34048
  5  4 10 15 11  5.0000000  0  5G 2G 4G 5G 9G10
  20351010.657   106945291.72849  20351008.307    83333983.17949
  21280421.494   111829368.23749  21280421.857    87139757.01749
  21237832.940   111605565.84448  21237833.057    86965381.25249
  24712052.899   129862680.45645  24712055.249   101191693.79145
  22277114.798   117067051.49548  22277116.042    91221097.12248
  5  4 10 15 11 10.0000000  0  5G 2G 4G 5G 9G10
  20350531.244   106942772.39849  20350528.900    83332020.05949
  21282531.925   111840458.59849  21282532.288    87148398.85049
  21236828.793   111600289.01948  21236828.918    86961269.43948
  24714593.196   129876029.92845  24714595.537   101202096.00045
  22273861.713   117049956.41948  22273862.957    91207776.28248
  5  4 10 15 11 15.0000000  0  5G 2G 4G 5G 9G10
  20350021.445   106940093.38749  20350019.101    83329932.51849
  21284610.993   111851384.20449  21284611.355    87156912.31449
  21235795.211   111594857.47548  21235795.336    86957037.06349
  24717101.609   129889211.38445  24717103.971   101212367.18245
  22270577.740   117032699.05448  22270578.976    91194328.99448
  5  4 10 15 11 20.0000000  0  5G 2G 4G 5G 9G10
  20349569.198   106937716.81149  20349566.855    83328080.64249
  21286746.658   111862607.19849  21286747.020    87165657.50649
  21234820.139   111589733.43648  21234820.263    86953044.30448
  24719665.885   129902686.93445  24719668.240   101222867.65345
  22267350.836   117015741.55748  22267352.065    91181115.36248
  5  4 10 15 11 25.0000000  0  5G 2G 4G 5G 9G10
  20349057.310   106935026.79249  20349054.968    83325984.52149
  21288821.713   111873511.65649  21288822.076    87174154.47949
  21233786.380   111584300.96748  21233786.505    86948811.20649
  24722168.990   129915840.65045  24722171.358   101233117.25045
  22264063.781   116998468.06548  22264065.017    91167655.51448
  5  4 10 15 11 30.0000000  0  5G 2G 4G 5G 9G10
  20348573.661   106932485.19849  20348571.319    83324004.05949
  21290924.037   111884559.41149  21290924.407    87182763.11249
  21232781.811   111579021.95148  21232781.943    86944697.68949
  24724698.737   129929134.46645  24724701.098   101243476.05245
  22260804.499   116981340.48148  22260805.734    91154309.35648
  5  4 10 15 11 35.0000000  0  5G 2G 4G 5G 9G10
  20348088.951   106929938.06049  20348086.608    83322019.28049
  21293024.319   111895596.46949  21293024.695    87191363.40949
  21231777.144   111573742.42148  21231777.268    86940583.77948
  24727225.813   129942414.31245  24727228.173   101253823.97245
  22257543.688   116964204.86748  22257544.924    91140956.94648
  5  4 10 15 11 40.0000000  0  5G 2G 4G 5G 9G10
  20347603.235   106927385.60549  20347600.885    83320030.35849
  21295122.642   111906623.19749  21295123.025    87199955.65649
  21230772.434   111568462.63448  21230772.559    86936469.66348
  24729750.232   129955680.47045  24729752.564   101264161.30645
  22254281.397   116947061.41448  22254282.634    91127598.41448
  5  4 10 15 11 45.0000000  0  5G 2G 4G 5G 9G10
  20347145.850   106924981.99949  20347143.500    83318157.41349
  21297248.314   111917793.67949  21297248.690    87208659.93149
  21229797.019   111563336.76348  21229797.145    86932475.47549
  24732301.439   129969087.02945  24732303.777   101274607.93845
  22251046.953   116930064.32448  22251048.189    91114353.93548
  5  4 10 15 11 50.0000000  0  5G 2G 4G 5G 9G10
  20346658.216   106922419.46549  20346655.866    83316160.63249
  21299342.768   111928800.10749  21299343.150    87217236.36249
  21228792.321   111558057.04048  21228792.440    86928361.40649
  24734820.798   129982326.25745  24734823.136   101284924.19845
  22247781.796   116912905.84348  22247783.032    91100983.69448
  5  4 10 15 11 55.0000000  0  5G 2G 4G 5G 9G10
  20346169.625   106919851.90349  20346167.276    83314159.93549
  21301435.290   111939796.38649  21301435.672    87225804.89349
  21227787.635   111552777.34948  21227787.754    86924247.35249
  24737337.619   129995552.02144  24737339.969   101295229.92745
  22244515.195   116895739.89248  22244516.429    91087607.65948
  5  4 10 15 12  0.0000000  0  5G 2G 4G 5G 9G10
  20345709.399   106917433.40249  20345707.058    83312275.38849
  21303555.209   111950936.63649  21303555.591    87234485.60649
  21226812.280   111547651.88448  21226812.397    86920253.49348
  24739881.152   130008918.44444  24739883.495   101305645.33445
  22241276.534   116878720.58548  22241277.769    91074345.85648
  5  4 10 15 12  5.0000000  0  5G 2G 4G 5G 9G10
  20345218.969   106914856.17149  20345216.627    83310267.15549
  21305643.968   111961913.10649  21305644.356    87243038.68749
  21225807.707   111542372.78748  21225807.825    86916139.90749
  24742392.866   130022117.71244  24742395.209   101315930.50945
  22238007.200   116861540.14948  22238008.434    91060958.50448
  5  4 10 15 12 10.0000000  0  5G 2G 4G 5G 9G10
  20344786.256   106912582.25249  20344783.915    83308495.27249
  21307789.456   111973187.72449  21307789.845    87251824.10549
  21224861.820   111537402.11848  21224861.938    86912266.65848
  24744960.793   130035611.79345  24744963.170   101326445.25445
  22234795.137   116844660.64548  22234796.364    91047805.64848
  5  4 10 15 12 15.0000000  0  5G 2G 4G 5G 9G10
  20344294.059   106909995.73949  20344291.717    83306479.80549
  21309874.495   111984144.64649  21309874.884    87260361.96249
  21223857.428   111532124.00348  21223857.539    86908153.84448
  24747467.461   130048784.82844  24747469.817   101336710.05545
  22231523.124   116827466.19448  22231524.351    91034407.39348
  5  4 10 15 12 20.0000000  0  5G 2G 4G 5G 9G10
  20343830.339   106907558.84249  20343827.998    83304580.92349
  21311987.016   111995245.98649  21311987.405    87269012.35049
  21222882.476   111527000.59648  21222882.588    86904161.57948
  24750001.072   130062098.98044  24750003.433   101347084.69745
  22228279.133   116810418.93748  22228280.366    91021123.82148
  5  4 10 15 12 25.0000000  0  5G 2G 4G 5G 9G10
  20343395.078   106905271.52849  20343392.744    83302798.59749
  21314127.004   112006491.76249  21314127.392    87277775.30249
  21221936.976   111522031.92548  21221937.093    86900289.87449
  24752561.509   130075554.29244  24752563.853   101357569.37844
  22225063.181   116793518.99348  22225064.414    91007955.03348
  5  4 10 15 12 30.0000000  0  5G 2G 4G 5G 9G10
  20342900.404   106902672.00049  20342898.064    83300772.99749
  21316206.625   112017420.21249  21316207.014    87286290.97249
  21220933.026   111516756.16348  21220933.143    86896178.89849
  24755060.464   130088688.76444         0.000           0.00040
  22221787.367   116776304.50648  22221788.594    90994541.15848
  5  4 10 15 12 35.0000000  0  5G 2G 4G 5G 9G10
  20342463.591   106900376.53449  20342461.251    83298984.32249
  21318343.126   112028647.60449  21318343.515    87295039.59049
  21219987.918   111511789.62348  21219988.043    86892308.87248
  24757616.297   130102118.88444         0.000           0.00040
  22218568.967   116759391.76547  22218570.201    90981362.41048
  5  4 10 15 12 40.0000000  0  5G 2G 4G 5G 9G10
  20341996.741   106897923.24949  20341994.394    83297072.68149
  21320448.598   112039711.90149  21320448.986    87303661.11049
  21219013.762   111506670.39648  21219013.887    86888319.86448
  24760140.570   130115382.62043         0.000           0.00040
  22215320.105   116742318.91148  22215321.333    90968058.90148
  5  4 10 15 12 45.0000000  0  5G 2G 4G 5G 9G10
  20341529.136   106895465.97249  20341526.797    83295157.91849
  21322552.342   112050767.08949  21322552.738    87312275.52649
  21218039.837   111501552.38548  21218039.961    86884331.80248
  24762662.153   130128633.84644         0.000           0.00040
  22212070.055   116725239.78147  22212071.283    90954750.48948
  5  4 10 15 12 50.0000000  0  5G 2G 4G 5G 9G10
  20341060.837   106893004.98049  20341058.497    83293240.24849
  21324654.385   112061813.43049  21324654.780    87320883.07049
  21217066.196   111496435.83648  21217066.320    86880344.87449
  24765181.478   130141872.83644         0.000           0.00040
  22208818.859   116708154.69448  22208820.080    90941437.45048
  5  4 10 15 12 55.0000000  0  5G 2G 4G 5G 9G10
  20340621.130   106890694.33349  20340618.790    83291439.75149
  21326784.065   112073005.00249  21326784.459    87329603.77949
  21216122.158   111491474.85348  21216122.290    86876479.16649
  24767727.860   130155253.56944         0.000           0.00040
  22205595.862   116691217.73148  22205597.083    90928239.81748
  5  4 10 15 13  0.0000000  0  5G 2G 4G 5G 9G10
  20340151.510   106888226.46649  20340149.171    83289516.74049
  21328882.826   112084034.06749  21328883.220    87338197.85749
  21215149.174   111486361.82048  21215149.313    86872494.98649
  24770242.649   130168468.50045         0.000           0.00040
  22202342.514   116674121.33348  22202343.735    90914917.96548
  5  4 10 15 13  5.0000000  0  5G 2G 4G 5G 9G10
  20339710.557   106885909.24149  20339708.224    83287711.10549
  21331009.292   112095208.62749  21331009.694    87346905.28449
  21214205.857   111481404.65348  21214205.988    86868632.26249
  24772784.531   130181825.52045         0.000           0.00040
  22199117.424   116657173.37448  22199118.646    90901711.76448
  5  4 10 15 13 10.0000000  0  5G 2G 4G 5G 9G10
  20339268.976   106883588.72049  20339266.644    83285902.90749
  21333134.112   112106374.66749  21333134.513    87355606.09749
  21213262.895   111476449.38748  21213263.026    86864771.02249
  24775324.047   130195170.57945         0.000           0.00040
  22195891.278   116640219.92248  22195892.494    90888501.30448
  5  4 10 15 13 15.0000000  0  5G 2G 4G 5G 9G10
  20338797.490   106881111.04449  20338795.158    83283972.25349
  21335228.056   112117378.41649  21335228.457    87364180.44549
  21212291.032   111471342.21448  21212291.164    86860791.40848
  24777831.974   130208349.94944         0.000           0.00040
  22192634.825   116623107.17648  22192636.034    90875166.70648
  5  4 10 15 13 20.0000000  0  4G 2G 4G 5G10
  20338384.052   106878938.41149  20338381.721    83282279.29549
  21337379.052   112128681.97449  21337379.452    87372988.41049
  21211378.214   111466545.29048  21211378.346    86857053.53948
  22189436.013   116606297.30748  22189437.229    90862068.10348
  5  4 10 15 13 25.0000000  0  4G 2G 4G 5G10
  20337911.466   106876454.95649  20337909.135    83280344.13649
  21339469.907   112139669.52349  21339470.299    87381550.14249
  21210407.238   111461442.80648  21210407.370    86853077.58649
  22186177.635   116589174.47548  22186178.857    90848725.64548
  5  4 10 15 13 30.0000000  0  4G 2G 4G 5G10
  20337526.275   106874430.76349  20337523.944    83278766.84249
  21341647.168   112151111.07649  21341647.560    87390465.63349
  21209524.661   111456804.80548  21209524.793    86849463.54849
  22183006.243   116572508.76348  22183007.466    90835739.39348
  5  4 10 15 13 35.0000000  0  4G 2G 4G 5G10
  20337052.601   106871941.58749  20337050.262    83276827.22849
  21343734.949   112162082.43849  21343735.354    87399014.73849
  21208554.601   111451707.07048  21208554.724    86845491.28149
  22179745.982   116555375.94548  22179747.205    90822389.13848
  5  4 10 15 13 40.0000000  0  4G 2G 4G 5G10
  20336607.724   106869603.74549  20336605.393    83275005.53149
  21345850.542   112173199.89549  21345850.948    87407677.68049
  21207614.342   111446765.94748  21207614.459    86841641.05049
  22176514.103   116538392.36948  22176515.319    90809155.19948
  5  4 10 15 13 45.0000000  0  5G 2G 4G 5G 9G10
  20336162.353   106867263.30149  20336160.021    83273181.80849
  21347964.639   112184309.54849  21347965.045    87416334.55349
  21206674.584   111441827.51748  21206674.687    86837792.93449
  24793039.110   130288301.14754         0.000           0.00040
  22173281.350   116521404.13548  22173282.559    90795917.61748
  5  4 10 15 13 50.0000000  0  5G 2G 4G 5G 9G10
  20335745.795   106865074.27849  20335743.457    83271476.07949
  21350106.562   112195565.42949  21350106.975    87425105.36749
  21205764.653   111437045.76348  21205764.755    86834066.88449
  24795589.942   130301708.51644         0.000           0.00040
  22170077.004   116504565.24648  22170078.206    90782796.42348
  5  4 10 15 13 55.0000000  0  5G 2G 4G 5G 9G10
  20335328.802   106862882.96249  20335326.471    83269768.55949
  21352247.038   112206813.70849  21352247.458    87433870.25649
  21204855.283   111432267.02348  21204855.377    86830343.19849
  24798139.393   130315105.03444         0.000           0.00040
  22166871.853   116487722.06348  22166873.061    90769671.85848
  5  4 10 15 14  0.0000000  0  5G 2G 4G 5G 9G10
  20334882.041   106860535.21949  20334879.711    83267939.15149
  21354356.755   112217900.37649  21354357.175    87442509.22349
  21203917.173   111427337.19448  21203917.269    86826501.76849
  24800657.242   130328336.42044         0.000           0.00040
  22163636.550   116470720.46648  22163637.760    90756423.87148
  5  4 10 15 14  5.0000000  0  5G 2G 4G 5G 9G10
  20334464.179   106858339.34149  20334461.842    83266228.07949
  21356494.397   112229133.75849  21356494.809    87451262.50849
  21203008.953   111422564.52748  21203009.041    86822782.82249
  24803202.423   130341710.93644         0.000           0.00040
  22160429.761   116453868.73848  22160430.963    90743292.66948
  5  4 10 15 14 10.0000000  0  4G 2G 4G 5G10
  20334045.865   106856141.08349  20334043.528    83264515.15249
  21358630.579   112240359.44249  21358630.991    87460009.78449
  21202101.308   111417794.82048  21202101.403    86819066.16349
  22157222.156   116437012.65648  22157223.358    90730158.06248
  5  4 10 15 14 15.0000000  0  5G 2G 4G 5G 9G10
  20333627.111   106853940.51649  20333624.781    83262800.42249
  21360765.318   112251577.53849  21360765.729    87468751.15249
  21201194.241   111413028.14948  21201194.343    86815351.87449
  24808286.468   130368426.80454         0.000           0.00040
  22154013.724   116420152.29648  22154014.927    90717020.13448
  5  4 10 15 14 20.0000000  0  4G 2G 4G 5G10
  20333178.598   106851583.56749  20333176.269    83260963.83949
  21362869.299   112262634.00149  21362869.711    87477366.57249
  21200258.417   111408110.39048  21200258.519    86811519.86449
  22150775.173   116403133.59948  22150776.377    90703758.81348
  5  4 10 15 14 25.0000000  0  4G 2G 4G 5G10
  20332788.301   106849532.50949  20332785.972    83259365.60749
  21365030.484   112273991.10849  21365030.902    87486216.25949
  21199381.839   111403503.91348  21199381.949    86807930.39349
  22147594.468   116386418.88048  22147595.672    90690734.36048
  5  4 10 15 14 30.0000000  0  5G 2G 4G 5G 9G10
  20332368.273   106847325.27849  20332365.936    83257645.69549
  21367160.950   112285186.78149  21367161.362    87494940.16549
  21198476.555   111398746.61448  21198476.673    86804223.40748
  24815896.019   130408418.01654         0.000           0.00040
  22144383.669   116369546.08148  22144384.866    90677586.73848
  5  4 10 15 14 35.0000000  0  5G 2G 4G 5G 9G10
  20331977.165   106845269.99249  20331974.836    83256044.17549
  21369319.326   112296529.09149  21369319.737    87503778.31949
  21197601.201   111394146.59648  21197601.319    86800638.97849
  24818457.870   130421880.66344         0.000           0.00040
  22141201.438   116352823.34348  22141202.636    90664556.03848
  5  4 10 15 14 40.0000000  0  5G 2G 4G 5G 9G10
  20331556.411   106843058.88449  20331554.082    83254321.22549
  21371447.040   112307710.27349  21371447.458    87512490.91949
  21196697.220   111389396.14548  21196697.338    86796937.33049
  24820988.330   130435178.69544         0.000           0.00040
  22137989.196   116335942.92648  22137990.393    90651402.47348
  5  4 10 15 14 45.0000000  0  5G 2G 4G 5G 9G10
  20331135.251   106840845.67449  20331132.922    83252596.64649
  21373573.335   112318884.02849  21373573.753    87521197.74149
  21195793.858   111384648.91648  21195793.977    86793238.18549
  24823516.835   130448465.79643         0.000           0.00040
  22134776.190   116319058.53148  22134777.380    90638245.81648
  5  4 10 15 14 50.0000000  0  4G 2G 4G 5G10
  20330713.680   106838630.30349  20330711.358    83250870.38249
  21375698.219   112330050.39849  21375698.635    87529898.81049
  21194891.107   111379904.95948  21194891.234    86789541.60348
  22131562.427   116302170.15248  22131563.623    90625086.04848
  5  4 10 15 14 55.0000000  0  4G 2G 4G 5G10
  20330321.089   106836567.22349  20330318.761    83249262.79249
  21377851.088   112341363.77049  21377851.505    87538714.42149
  21194018.371   111375318.66848  21194018.498    86785967.86549
  22128377.297   116285432.21648  22128378.487    90612043.51248
  5  4 10 15 15  0.0000000  0  5G 2G 4G 5G 9G10
  20329898.896   106834348.58249  20329896.575    83247533.97949
  21379973.348   112352516.29249  21379973.757    87547404.69048
  21193117.076   111370582.26848  21193117.203    86782277.14949
  24831119.759   130488416.06054         0.000           0.00040
  22125162.222   116268536.91448  22125163.412    90598878.34748
  5  4 10 15 15  5.0000000  0  5G 2G 4G 5G 9G10
  20329535.013   106832436.36549  20329532.691    83246043.93749
  21382152.894   112363969.91349  21382153.302    87556329.59249
  21192275.092   111366157.67548  21192275.219    86778829.42649
  24833699.326   130501968.89944         0.000           0.00040
  22122005.117   116251946.21348  22122006.300    90585950.53448
  5  4 10 15 15 10.0000000  0  5G 2G 4G 5G 9G10
  20329112.227   106830214.60849  20329109.905    83244312.69949
  21384272.524   112375108.61549  21384272.925    87565009.09649
  21191375.257   111361428.97749  21191375.383    86775144.71849
  24836217.803   130515203.39744         0.000           0.00040
  22118788.761   116235044.18048  22118789.945    90572780.12848
  5  4 10 15 15 15.0000000  0  4G 2G 4G 5G10
  20328718.504   106828145.58149  20328716.183    83242700.47449
  21386420.214   112386394.77149  21386420.616    87573803.49749
  21190505.512   111356858.44048  21190505.640    86771583.26548
  22115601.133   116218293.14248  22115602.310    90559727.39248
  5  4 10 15 15 20.0000000  0  4G 2G 4G 5G10
  20328295.226   106825921.27449  20328292.905    83240967.25249
  21388537.343   112397520.32549  21388537.751    87582472.75249
  21189607.253   111352138.08748  21189607.380    86767905.07549
  22112383.639   116201385.09948  22112384.816    90546552.29248
  5  4 10 15 15 25.0000000  0  4G 2G 4G 5G10
  20327901.026   106823849.70749  20327898.706    83239353.04049
  21390682.534   112408793.35149  21390682.943    87591256.92049
  21188739.106   111347575.94548  21188739.233    86764350.15849
  22109194.885   116184628.11348  22109196.062    90533494.90848
  5  4 10 15 15 30.0000000  0  4G 2G 4G 5G10
  20327535.888   106821930.89049  20327533.574    83237857.85449
  21392855.773   112420213.79849  21392856.175    87600155.97349
  21187901.065   111343172.00848  21187901.198    86760918.51449
  22106034.880   116168022.17848  22106036.059    90520555.22248
  5  4 10 15 15 35.0000000  0  4G 2G 4G 5G10
  20327111.932   106819702.98749  20327109.618    83236121.82749
  21394969.187   112431319.86549  21394969.596    87608810.04848
  21187005.258   111338464.47949  21187005.392    86757250.30649
  22102815.721   116151105.44347  22102816.899    90507373.36348
  5  4 10 15 15 40.0000000  0  4G 2G 4G 5G10
  20326717.095   106817628.10549  20326714.782    83234505.03749
  21397110.695   112442573.56349  21397111.089    87617579.16949
  21186139.586   111333915.37248  21186139.720    86753705.55449
  22099625.366   116134340.04547  22099626.543    90494309.42148
  5  4 10 15 15 45.0000000  0  4G 2G 4G 5G10
  20326351.386   106815706.29149  20326349.073    83233007.52049
  21399280.321   112453974.99449  21399280.715    87626463.39149
  21185304.087   111329524.82548  21185304.221    86750284.35849
  22096463.823   116117726.05748  22096464.994    90481363.46648
  5  4 10 15 15 50.0000000  0  4G 2G 4G 5G10
  20325985.512   106813783.55249  20325983.193    83231509.27449
  21401448.746   112465370.17849  21401449.140    87635342.75949
  21184469.465   111325138.82548  21184469.606    86746866.68549
  22093301.803   116101109.53248  22093302.968    90468415.53248
  5  4 10 15 15 55.0000000  0  4G 2G 4G 5G10
  20325590.187   106811706.10249  20325587.868    83229890.48349
  21403586.717   112476605.25749  21403587.102    87644097.35848
  21183606.448   111320603.64549  21183606.597    86743332.77649
  22090110.032   116084336.69048  22090111.197    90455345.79248
  5  4 10 15 16  0.0000000  0  4G 2G 4G 5G10
  20325224.005   106809781.83249  20325221.692    83228391.05249
  21405752.812   112487988.13549  21405753.205    87652967.12549
  21182773.623   111316227.08848  21182773.766    86739922.47249
  22086947.095   116067715.37748  22086948.261    90442394.12948
  5  4 10 15 16  5.0000000  0  5G 2G 4G 5G10G30
  20324799.072   106807548.79449  20324796.759    83226651.02549
  21407859.135   112499056.90349  21407859.527    87661592.13249
  21181883.087   111311547.28948  21181883.229    86736275.87249
  22083725.113   116050783.74948  22083726.278    90429200.64948
  23446472.284   123212038.37355         0.000           0.00040
  5  4 10 15 16 10.0000000  0  5G 2G 4G 5G10G30
  20324461.924   106805777.07349  20324459.612    83225270.46449
  21410052.217   112510581.62949  21410052.616    87670572.43249
  21181081.384   111307334.34048  21181081.525    86732993.06149
  22080590.599   116034311.89148  22080591.764    90416365.46348
  23443707.531   123197509.43344         0.000           0.00040
  5  4 10 15 16 15.0000000  0  5G 2G 4G 5G10G30
  20324066.044   106803696.70949  20324063.740    83223649.40349
  21412185.554   112521792.35749  21412185.953    87679308.06149
  21180222.004   111302818.23648  21180222.145    86729474.01249
  22077397.082   116017529.81348  22077398.240    90403288.51848
  23440883.871   123182670.87344         0.000           0.00040
  5  4 10 15 16 20.0000000  0  5G 2G 4G 5G10G30
  20323699.367   106801769.77549  20323697.056    83222147.89249
  21414347.043   112533151.12349  21414347.442    87688159.05748
  21179392.861   111298461.12648  21179393.004    86726078.87849
  22074232.459   116000899.63948  22074233.624    90390329.94348
  23438089.120   123167984.79944         0.000           0.00040
  5  4 10 15 16 25.0000000  0  5G 2G 4G 5G10G30
  20323332.611   106799842.49149  20323330.307    83220646.11549
  21416507.457   112544504.14149  21416507.855    87697005.55749
  21178564.724   111294109.20549  21178564.866    86722687.76349
  22071067.471   115984267.57648  22071068.629    90377369.91248
  23435294.162   123153297.34944         0.000           0.00040
  5  4 10 15 16 30.0000000  0  5G 2G 4G 5G10G30
  20322965.769   106797914.72149  20322963.465    83219143.95949
  21418666.741   112555851.22649  21418667.139    87705847.43349
  21177737.544   111289762.34248  21177737.686    86719300.59748
  22067902.110   115967633.52648  22067903.262    90364408.32448
  23432498.888   123138608.55345         0.000           0.00040
  5  4 10 15 16 35.0000000  0  5G 2G 4G 5G10G30
  20322598.855   106795986.57849  20322596.551    83217641.51049
  21420824.936   112567192.61749  21420825.327    87714684.88449
  21176911.351   111285420.67148  21176911.486    86715917.47849
  22064736.398   115950997.62548  22064737.548    90351445.28848
  23429703.166   123123918.37345  23429705.001    95940721.60855
  5  4 10 15 16 40.0000000  0  5G 2G 4G 5G10G30
  20322231.878   106794058.10249  20322229.582    83216138.79949
  21422982.039   112578528.24148  21422982.430    87723517.82949
  21176086.161   111281084.23848  21176086.296    86712538.43349
  22061570.354   115934359.98548  22061571.505    90338480.90248
  23426907.701   123109227.01045  23426909.142    95929273.75445
  5  4 10 15 16 45.0000000  0  5G 2G 4G 5G10G30
  20321864.859   106792129.40449  20321862.557    83214635.92549
  21425138.056   112589858.18349  21425138.447    87732346.35548
  21175261.974   111276753.10248  21175262.101    86709163.52249
  22058403.975   115917720.61448  22058405.126    90325515.16948
  23424111.561   123094534.57544         0.000           0.00040
  5  4 10 15 16 50.0000000  0  5G 2G 4G 5G10G30
  20321497.786   106790200.39249  20321495.491    83213132.79049
  21427293.004   112601182.51449  21427293.389    87741170.51448
  21174438.804   111272427.31948  21174438.923    86705792.77949
  22055237.276   115901079.55948  22055238.420    90312548.13248
  23421315.769   123079840.93245         0.000           0.00040
  5  4 10 15 16 55.0000000  0  5G 2G 4G 5G10G30
  20321130.675   106788271.21049  20321128.380    83211629.52949
  21429446.880   112612501.17949  21429447.264    87749990.24449
  21173616.662   111268106.93048  21173616.774    86702426.24549
  22052070.273   115884436.87748  22052071.417    90299579.81748
  23418519.662   123065146.19745         0.000           0.00040
  5  4 10 15 17  0.0000000  0  5G 2G 4G 5G10G30
  20320763.511   106786341.74849  20320761.216    83210126.05649
  21431599.669   112623814.12649  21431600.060    87758805.51949
  21172795.534   111263791.87748  21172795.639    86699063.86849
  22048902.957   115867792.52148  22048904.107    90286610.18248
  23415723.049   123050450.39445         0.000           0.00040
  5  4 10 15 17  5.0000000  0  5G 2G 4G 5G10G30
  20320425.608   106784566.05849  20320423.313    83208742.40149
  21433780.699   112635275.45449  21433781.097    87767736.40849
  21172004.739   111259636.22149  21172004.843    86695825.69049
  22045764.637   115851300.57048  22045765.781    90273759.32148
  23412955.532   123035907.55644         0.000           0.00040
  5  4 10 15 17 10.0000000  0  5G 2G 4G 5G10G30
  20320058.364   106782636.17649  20320056.070    83207238.59949
  21435931.349   112646577.22649  21435931.746    87776542.98849
  21171185.667   111255331.96849  21171185.765    86692471.73149
  22042596.722   115834653.09548  22042597.858    90260787.27048
  23410158.627   123021209.66244         0.000           0.00040
  5  4 10 15 17 15.0000000  0  5G 2G 4G 5G10G30
  20319720.378   106780860.04849  20319718.084    83205854.60349
  21438110.226   112658027.24448  21438110.625    87785465.07048
  21170396.926   111251187.10448  21170397.022    86689241.96449
  22039457.800   115818158.01248  22039458.930    90247933.97948
  23407390.736   123006664.72944         0.000           0.00040
  5  4 10 15 17 20.0000000  0  5G 2G 4G 5G10G30
  20319353.079   106778929.87649  20319350.790    83204350.56749
  21440258.753   112669317.82548  21440259.150    87794262.92248
  21169579.947   111246893.85348  21169580.044    86685896.57549
  22036289.324   115801507.58548  22036290.453    90234959.62548
  23404593.400   122991965.09944         0.000           0.00040
  5  4 10 15 17 25.0000000  0  5G 2G 4G 5G10G30
  20319015.086   106777153.68049  20319012.799    83202966.51849
  21442435.554   112680756.99249  21442435.951    87803176.55648
  21168793.345   111242760.26348  21168793.443    86682675.60549
  22033149.900   115785009.83648  22033151.030    90222104.24348
  23401825.150   122977418.62944         0.000           0.00040
  5  4 10 15 17 30.0000000  0  5G 2G 4G 5G10G30
  20318647.797   106775223.59849  20318645.510    83201462.56049
  21444582.034   112692036.82449  21444582.431    87811966.03548
  21167978.546   111238478.43449  21167978.644    86679339.10749
  22029980.950   115768356.86048  22029982.074    90209127.89848
  23399027.565   122962717.53344         0.000           0.00040
  5  4 10 15 17 35.0000000  0  5G 2G 4G 5G10G30
  20318309.831   106773447.57649  20318307.545    83200078.65049
  21446756.783   112703465.20549  21446757.179    87820871.26449
  21167194.121   111234356.28348  21167194.226    86676127.04649
  22026841.052   115751856.64548  22026842.176    90196270.60348
  23396259.241   122948169.70445         0.000           0.00040
  5  4 10 15 17 40.0000000  0  5G 2G 4G 5G10G30
  20318001.176   106771825.57849  20317998.895    83198814.75049
  21448959.810   112715042.15749  21448960.199    87829892.26248
  21166440.105   111230393.83748  21166440.202    86673039.41549
  22023730.242   115735509.25948  22023731.365    90183532.38648
  23393520.103   122933775.31245         0.000           0.00040
  5  4 10 15 17 45.0000000  0  5G 2G 4G 5G10G30
  20317663.236   106770049.69449  20317660.949    83197430.95049
  21451132.528   112726459.83949  21451132.917    87838789.14849
  21165657.876   111226283.20048  21165657.974    86669836.32148
  22020589.911   115719006.74148  22020591.028    90170673.29148
  23390751.495   122919226.27446         0.000           0.00040
  5  4 10 15 17 50.0000000  0  5G 2G 4G 5G10G30
  20317296.045   106768120.12549  20317293.772    83195927.39049
  21453274.949   112737718.33649  21453275.344    87847561.99648
  21164847.482   111222024.51648  21164847.573    86666517.86449
  22017420.093   115702349.26348  22017421.209    90157693.44448
  23387953.546   122904522.82945         0.000           0.00040
  5  4 10 15 17 55.0000000  0  5G 2G 4G 5G10G30
  20316987.517   106766498.76949  20316985.237    83194663.99149
  21455474.972   112749279.56649  21455475.367    87856570.75348
  21164096.833   111218079.79748  21164096.931    86663444.04849
  22014308.710   115685998.86848  22014309.819    90144952.88648
  23385214.094   122890126.94445         0.000           0.00040
  5  4 10 15 18  0.0000000  0  5G 2G 4G 5G10G30
  20316620.420   106764569.65849  20316618.146    83193160.78449
  21457615.399   112760527.55749  21457615.787    87865335.41648
  21163288.686   111213833.01948  21163288.783    86660134.88249
  22011138.544   115669339.50148  22011139.648    90131971.56348
  23382415.976   122875422.64045         0.000           0.00040
  5  4 10 15 18  5.0000000  0  5G 2G 4G 5G10G30
  20316312.007   106762948.93949  20316309.734    83191897.88849
  21459813.465   112772078.43849  21459813.852    87874336.09548
  21162540.317   111209900.28348  21162540.408    86657070.41149
  22008026.824   115652987.33348  22008027.921    90119229.62548
  23379676.440   122861026.15745         0.000           0.00040
  5  4 10 15 18 10.0000000  0  5G 2G 4G 5G10G30
  20315974.358   106761174.61349  20315972.084    83190515.30049
  21461981.258   112783470.26949  21461981.645    87883212.84448
  21161763.806   111205819.66148  21161763.898    86653890.70149
  22004885.660   115636480.40648  22004886.757    90106367.08548
  23376907.562   122846475.35245         0.000           0.00040
  5  4 10 15 18 15.0000000  0  5G 2G 4G 5G10G30
  20315607.463   106759246.56649  20315605.197    83189012.92749
  21464118.757   112794702.89949  21464119.150    87891965.53848
  21160959.119   111201591.03449  21160959.218    86650595.66949
  22001715.015   115619818.61548  22001716.112    90093383.88648
  23374109.350   122831770.24245         0.000           0.00040
  5  4 10 15 18 20.0000000  0  5G 2G 4G 5G10G30
  20315299.259   106757626.91049  20315296.986    83187750.85249
  21466313.902   112806238.43549  21466314.288    87900954.26349
  21160214.211   111197676.51348  21160214.309    86647545.39449
  21998602.848   115603464.07048  21998603.946    90080640.08648
  23371369.647   122817372.87946         0.000           0.00040
  5  4 10 15 18 25.0000000  0  5G 2G 4G 5G10G30
  20314991.154   106756007.80949  20314988.888    83186489.21349
  21468508.095   112817768.93248  21468508.481    87909939.05449
  21159470.504   111193768.24448  21159470.603    86644499.97748
  21995490.560   115587108.97948  21995491.658    90067895.87848
  23368629.631   122802975.47145  23368635.451    95690664.29556
  5  4 10 15 18 30.0000000  0  5G 2G 4G 5G10G30
  20314624.523   106754081.15049  20314622.251    83184987.92749
  21470642.707   112828986.39449  21470643.093    87918679.93049
  21158669.346   111189558.16149  21158669.438    86641219.40249
  21992319.555   115570445.30048  21992320.652    90054911.20548
  23365831.276   122788270.01545  23365836.687    95679205.50945
  5  4 10 15 18 35.0000000  0  5G 2G 4G 5G10G30
  20314345.865   106752616.82448  20314343.593    83183846.89949
  21472864.257   112840660.71849  21472864.643    87927776.80948
  21157957.282   111185816.20849  21157957.375    86638303.59349
  21989236.340   115554242.89648  21989237.445    90042285.95548
  23363120.700   122774026.28145  23363125.577    95668106.49745
  5  4 10 15 18 40.0000000  0  5G 2G 4G 5G10G30
  20314008.713   106750845.04349  20314006.441    83182466.28949
  21475026.263   112852022.10449  21475026.636    87936629.83848
  21157187.800   111181772.58748  21157187.893    86635152.72349
  21986094.409   115537731.96848  21986095.507    90029420.30748
  23360351.620   122759474.69745  23360355.805    95656767.62145
  5  4 10 15 18 45.0000000  0  5G 2G 4G 5G10G30
  20313671.660   106749073.82249  20313669.389    83181086.11749
  21477187.321   112863378.54249  21477187.700    87945479.00548
  21156419.545   111177735.31549  21156419.638    86632006.78549
  21982952.389   115521220.60348  21982953.486    90016554.31948
  23357582.629   122744923.17846  23357586.261    95645428.76945
  5  4 10 15 18 50.0000000  0  5G 2G 4G 5G10G30
  20313364.030   106747457.18149  20313361.759    83179826.39349
  21479376.767   112874884.12749  21479377.146    87954444.38948
  21155681.786   111173858.42748  21155681.872    86628985.85149
  21979839.606   115504862.81748  21979840.703    90003807.99248
  23354842.935   122730525.80046  23354846.155    95634210.05546
  5  4 10 15 18 55.0000000  0  5G 2G 4G 5G10G30
  20313056.492   106745841.06049  20313054.222    83178567.07849
  21481565.239   112886384.62649  21481565.611    87963405.81848
  21154945.245   111169987.81848  21154945.331    86625969.77849
  21976726.728   115488504.53248  21976727.811    89991061.28448
  23352103.300   122716128.42146  23352106.052    95622991.32446
  5  4 10 15 19  0.0000000  0  5G 2G 4G 5G10G30
  20312749.019   106744225.28049  20312746.749    83177308.02949
  21483752.736   112897879.93949  21483753.109    87972363.19348
  21154209.851   111166123.32848  21154209.937    86622958.49449
  21973613.715   115472145.57248  21973614.792    89978314.05148
  23349363.609   122701730.87046  23349366.006    95611772.44846
  5  4 10 15 19  5.0000000  0  5G 2G 4G 5G10G30
  20312441.667   106742610.13049  20312439.397    83176049.47249
  21485939.294   112909370.41149  21485939.659    87981316.81348
  21153475.694   111162265.27549  21153475.781    86619952.21448
  21970500.635   115455786.28748  21970501.711    89965566.57048
  23346623.926   122687333.52146  23346626.054    95600553.77246
  5  4 10 15 19 10.0000000  0  5G 2G 4G 5G10G30
  20312105.097   106740841.44349  20312102.827    83174671.27349
  21488095.579   112920701.76549  21488095.944    87990146.43949
  21152713.416   111158259.50548  21152713.503    86616830.84448
  21967358.180   115439272.54348  21967359.249    89952698.71348
  23343854.892   122672782.21046  23343856.943    95589215.09946
  5  4 10 15 19 15.0000000  0  5G 2G 4G 5G10G30
  20311827.234   106739381.26349  20311824.964    83173533.47249
  21490309.526   112932336.07149  21490309.890    87999212.11649
  21152010.954   111154568.04548  21152011.048    86613954.37949
  21964274.234   115423066.35848  21964275.302    89940070.52948
  23341144.506   122658539.00446  23341146.518    95578116.48946
  5  4 10 15 19 20.0000000  0  5G 2G 4G 5G10G30
  20311490.847   106737613.51049  20311488.571    83172156.00149
  21492463.894   112943657.25848  21492464.259    88008033.80348
  21151251.066   111150574.80848  21151251.161    86610842.76649
  21961131.585   115406551.65948  21961132.647    89927201.94148
  23338375.505   122643987.84046  23338377.504    95566777.93146
  5  4 10 15 19 25.0000000  0  5G 2G 4G 5G10G30
  20311213.156   106736154.23149  20311210.880    83171018.90049
  21494675.889   112955281.37148  21494676.254    88017091.55248
  21150551.000   111146895.90348  21150551.094    86607976.08148
  21958047.465   115390344.56348  21958048.513    89914573.05548
  23335665.128   122629744.71346  23335667.085    95555679.40946
  5  4 10 15 19 30.0000000  0  5G 2G 4G 5G10G30
  20310906.246   106734541.41149  20310903.970    83169762.15649
  21496857.599   112966746.33549  21496857.972    88026025.29049
  21149822.820   111143069.29248  21149822.908    86604994.31048
  21954933.980   115373983.05848  21954935.021    89901823.82648
  23332925.457   122615347.67245  23332927.377    95544460.91846
  5  4 10 15 19 35.0000000  0  5G 2G 4G 5G10G30
  20310599.406   106732928.95449  20310597.137    83168505.69549
  21499038.333   112978206.17049  21499038.699    88034955.03448
  21149095.826   111139248.88348  21149095.922    86602017.36148
  21951820.380   115357621.04348  21951821.422    89889074.21948
  23330185.704   122600950.67446  23330187.641    95533242.53146
  5  4 10 15 19 40.0000000  0  5G 2G 4G 5G10G30
  20310292.642   106731316.92849  20310290.365    83167249.57949
  21501218.084   112989660.86849  21501218.442    88043880.78248
  21148370.016   111135434.75848  21148370.112    86599045.32149
  21948706.713   115341258.61248  21948707.748    89876324.27748
  23327446.036   122586553.71546  23327447.945    95522024.09146
  5  4 10 15 19 45.0000000  0  5G 2G 4G 5G10G30
  20310015.241   106729859.11549  20310012.965    83166113.61049
  21503426.126   113001264.17748  21503426.484    88052922.31248
  21147674.688   111131780.75149  21147674.776    86596198.04048
  21945622.239   115325049.59248  21945623.267    89863693.87648
  23324735.688   122572310.67946  23324737.518    95510925.62646
  5  4 10 15 19 50.0000000  0  5G 2G 4G 5G10G30
  20309737.889   106728401.65149  20309735.613    83164977.93149
  21505633.177   113012862.27649  21505633.528    88061959.78848
  21146980.540   111128132.98048  21146980.636    86593355.61848
  21942537.678   115308840.14448  21942538.705    89851063.14048
  23322025.333   122558067.73246  23322027.104    95499827.24846
  5  4 10 15 19 55.0000000  0  5G 2G 4G 5G10G30
  20309431.270   106726790.35749  20309428.994    83163722.37549
  21507809.904   113024301.02248  21507810.254    88070873.08748
  21146258.244   111124337.31948  21146258.333    86590397.97048
  21939423.700   115292476.11248  21939424.713    89838311.95748
  23319285.696   122543670.68746  23319287.389    95488608.76146
  5  4 10 15 20  0.0000000  0  5G 2G 4G 5G10G30
  20309153.990   106725333.24249  20309151.714    83162586.96149
  21510014.913   113035888.38949  21510015.270    88079902.19548
  21145566.423   111120701.74248  21145566.511    86587565.04648
  21936338.912   115276265.46948  21936339.923    89825680.28948
  23316575.316   122529427.47946  23316576.961    95477510.16846
  5  4 10 15 20  5.0000000  0  5G 2G 4G 5G10G30
  20308847.441   106723722.28749  20308845.166    83161331.66749
  21512189.586   113047316.34149  21512189.942    88088807.08549
  21144846.444   111116918.19748  21144846.532    86584616.82049
  21933224.697   115259900.22348  21933225.701    89812928.16448
  23313835.663   122515030.28446  23313837.294    95466291.53146
  5  4 10 15 20 10.0000000  0  5G 2G 4G 5G10G30
  20308570.198   106722265.36449  20308567.923    83160196.40349
  21514392.493   113058892.69849  21514392.837    88097827.63148
  21144156.907   111113294.59148  21144156.988    86581793.22449
  21930139.656   115243688.25248  21930140.653    89800295.47048
  23311125.165   122500786.80746  23311126.774    95455192.78147
  5  4 10 15 20 15.0000000  0  5G 2G 4G 5G10G30
  20308263.634   106720654.32649  20308261.352    83158941.04449
  21516565.014   113070309.34349  21516565.358    88106723.71149
  21143439.157   111109522.79248  21143439.225    86578854.16449
  21927025.157   115227321.48348  21927026.153    89787542.14448
  23308385.353   122486388.99346  23308386.951    95443973.69246
  5  4 10 15 20 20.0000000  0  5G 2G 4G 5G10G30
  20307986.348   106719197.18049  20307984.067    83157805.60849
  21518765.755   113081874.31448  21518766.098    88115735.37548
  21142751.809   111105910.78448  21142751.869    86576039.61949
  21923939.818   115211107.91948  21923940.807    89774908.19948
  23305674.777   122472144.94546  23305676.330    95432874.46647
  5  4 10 15 20 25.0000000  0  5G 2G 4G 5G10G30
  20307709.006   106717739.73849  20307706.724    83156669.93849
  21520965.383   113093433.40449  21520965.720    88124742.45749
  21142065.552   111102304.41849  21142065.613    86573229.45548
  21920854.273   115194893.36148  21920855.260    89762273.49648
  23302964.142   122457900.30946  23302965.654    95421774.70046
  5  4 10 15 20 30.0000000  0  5G 2G 4G 5G10G30
  20307402.305   106716128.04449  20307400.022    83155414.07649
  21523134.585   113104832.57449  21523134.921    88133624.91248
  21141351.047   111098549.72848  21141351.100    86570303.73749
  21917739.260   115178523.85848  21917740.234    89749518.04748
  23300224.099   122443501.31846  23300225.573    95410554.71447
  5  4 10 15 20 35.0000000  0  5G 2G 4G 5G10G30
  20307154.148   106714823.93849  20307151.859    83154397.89049
  21525361.245   113116533.75249  21525361.581    88142742.71348
  21140696.231   111095108.55848  21140696.285    86567622.28649
  21914682.656   115162461.29448  21914683.622    89737001.76448
  23297542.546   122429409.72446  23297543.982    95399574.26647
  5  4 10 15 20 40.0000000  0  5G 2G 4G 5G10G30
  20306847.261   106713211.23749  20306844.979    83153141.23549
  21527528.123   113127920.74149  21527528.465    88151615.67848
  21139983.806   111091364.76748  21139983.860    86564705.05648
  21911567.192   115146089.48748  21911568.159    89724244.52348
  23294802.263   122415009.40746  23294803.670    95388353.24447
  5  4 10 15 20 45.0000000  0  5G 2G 4G 5G10G30
  20306628.184   106712059.94649  20306625.895    83152244.12449
  21529781.733   113139763.51348  21529782.077    88160843.80948
  21139360.320   111088088.32748  21139360.375    86562151.98749
  21908539.436   115130178.48848  21908540.395    89711846.33648
  23292149.781   122401070.36147  23292151.147    95377491.63547
  5  4 10 15 20 50.0000000  0  5G 2G 4G 5G10G30
  20306321.045   106710445.95449  20306318.764    83150986.47249
  21531946.212   113151137.92548  21531946.555    88169706.98549
  21138649.920   111084355.08948  21138649.976    86559242.95948
  21905423.493   115113804.16148  21905424.445    89699087.13648
  23289409.206   122386668.44947  23289410.544    95366269.35647
  5  4 10 15 20 55.0000000  0  5G 2G 4G 5G10G30
  20306043.077   106708985.22249  20306040.795    83149848.23649
  21534138.789   113162659.99548  21534139.133    88178685.22648
  21137969.803   111080781.11148  21137969.859    86556458.05648
  21902336.618   115097582.52548  21902337.557    89686446.90948
  23286697.767   122372419.68247  23286699.099    95355166.40847
  5  4 10 15 21  0.0000000  0  5G 2G 4G 5G10G30
  20305794.271   106707677.76849  20305791.989    83148829.44849
  21536359.464   113174329.68949  21536359.808    88187778.48749
  21137320.004   111077366.36448  21137320.067    86553797.20349
  21899278.785   115081513.56248  21899279.723    89673925.65048
  23284015.442   122358324.09147  23284016.786    95344182.85047
